GFSMA_850_temp_000.txt.gz
Temp
14 14 13 13 13 12 13 12 12 12 12 12 13 12 12 12 11 12 12 14 15 15 14 14 14 14 14 14 14 14 14 13 12 12 12 12 12 13 13 12 12 12 12
14 14 14 13 13 12 13 13 13 13 13 12 12 12 12 11 11 12 11 13 14 15 15 14 14 14 14 13 13 13 13 13 12 12 12 12 12 12 12 12 12 12 12
14 14 14 14 12 12 13 12 12 12 11 11 11 11 11 11 11 11 11 11 12 13 14 14 14 14 14 14 14 13 13 13 13 13 13 12 12 12 12 12 12 12 12
14 14 14 12 13 13 12 11 11 11 11 11 10 11 11 11 11 11 11 11 11 13 13 14 14 14 13 13 13 13 12 13 13 12 12 12 12 12 11 12 12 12 12
14 13 13 13 13 12 11 11 10 10 11 10 10 10 10 10 11 11 11 11 11 12 13 13 13 14 14 14 13 12 12 12 11 12 12 12 12 12 12 12 12 12 12
13 13 12 12 12 12 11 11 10 10 10 10 10 10 10 11 11 12 12 12 12 11 11 11 13 12 13 13 13 13 13 12 12 11 11 12 12 12 12 12 12 12 11
12 12 12 12 12 11 11 10 9 9 9 9 9 10 10 11 12 12 12 11 12 12 12 12 11 11 11 12 12 13 13 12 12 12 12 12 11 11 11 11 11 12 12
12 12 11 11 11 10 10 10 9 8 8 8 8 8 10 10 11 10 10 11 11 11 12 11 10 10 10 10 10 11 11 12 11 12 12 12 12 12 12 11 11 11 11
11 11 11 10 10 10 9 8 7 6 6 6 6 7 8 8 7 8 8 10 10 10 10 10 10 10 10 10 10 10 11 11 11 11 11 12 11 11 11 11 12 12 11
11 10 10 9 9 8 8 8 7 6 5 5 5 6 6 6 6 6 8 7 8 8 8 8 8 8 9 9 10 9 9 10 10 10 10 10 10 10 10 11 11 11 11
10 10 9 8 8 8 7 7 6 6 4 4 4 4 4 5 5 5 4 6 6 6 6 6 7 8 8 8 8 8 8 7 7 8 8 9 9 9 9 10 11 11 11
9 9 8 8 7 7 6 6 5 5 5 4 3 3 3 3 4 4 4 4 4 4 5 5 5 6 7 7 7 6 6 6 6 7 6 7 8 9 9 10 10 8 10
8 8 7 7 6 6 5 5 5 4 3 3 2 2 2 2 2 2 2 2 3 3 3 4 5 5 5 5 5 5 5 4 5 5 5 5 6 7 7 7 7 8 7
7 6 6 5 5 5 4 4 4 3 2 1 2 1 1 1 1 1 1 1 1 1 2 3 3 3 3 3 3 3 3 3 3 3 3 4 4 5 6 6 6 7 8
6 5 5 5 4 4 4 3 3 2 1 0 -0 -0 0 0 0 0 -0 -1 -0 0 0 1 1 1 1 1 2 2 1 0 2 2 2 3 5 5 5 6 6 6 7
5 4 4 4 3 3 3 2 1 1 -0 -1 -1 -1 -1 -1 -1 -1 -1 -1 -1 -1 -1 -1 -1 -1 -1 -1 0 -0 -0 -0 -0 0 0 2 2 3 4 5 6 6 6
4 3 3 3 2 2 2 1 1 -0 -2 -2 -2 -2 -2 -2 -2 -2 -2 -2 -2 -2 -2 -3 -2 -2 -2 -2 -2 -1 -1 -1 -1 -1 -0 0 1 1 2 4 5 5 6
3 2 2 2 2 1 1 1 -1 -2 -2 -2 -2 -2 -2 -3 -3 -3 -3 -3 -3 -3 -3 -3 -3 -3 -3 -3 -3 -2 -2 -2 -2 -2 -1 -1 -0 1 2 3 3 4 4
2 1 1 1 1 1 -0 -1 -2 -3 -3 -3 -3 -3 -4 -4 -4 -4 -4 -4 -4 -4 -4 -5 -4 -4 -4 -4 -4 -4 -3 -3 -2 -2 -2 -1 -1 -0 0 1 2 2 3
1 1 1 1 0 -0 -1 -2 -2 -3 -4 -4 -4 -4 -5 -5 -5 -5 -5 -5 -5 -5 -5 -5 -5 -5 -5 -5 -4 -4 -4 -4 -4 -3 -3 -2 -2 -1 -0 0 1 2 2
1 0 0 -0 -1 -1 -2 -2 -3 -5 -5 -5 -5 -5 -5 -6 -6 -6 -6 -6 -6 -6 -6 -6 -6 -6 -5 -5 -5 -5 -5 -5 -4 -4 -3 -3 -2 -2 -1 -0 1 2 2
-0 -0 -1 -1 -2 -2 -3 -3 -4 -6 -6 -5 -5 -6 -6 -6 -6 -6 -6 -6 -6 -6 -6 -6 -6 -6 -6 -6 -6 -6 -6 -6 -5 -4 -3 -4 -3 -3 -3 -2 -1 -0 1
-0 -1 -2 -2 -3 -4 -4 -4 -6 -7 -6 -6 -6 -6 -6 -6 -6 -6 -6 -6 -6 -7 -6 -7 -7 -7 -7 -7 -7 -7 -7 -6 -6 -5 -5 -4 -4 -4 -3 -2 -2 -1 0
-1 -2 -3 -4 -5 -6 -6 -8 -8 -7 -6 -6 -6 -6 -6 -6 -7 -6 -7 -7 -7 -7 -7 -7 -8 -8 -8 -7 -7 -7 -7 -7 -6 -5 -5 -5 -5 -5 -4 -4 -3 -2 -1
-2 -4 -4 -6 -6 -7 -8 -9 -8 -7 -7 -6 -6 -6 -7 -7 -7 -6 -7 -8 -8 -8 -8 -8 -8 -8 -8 -8 -8 -7 -7 -7 -7 -6 -6 -6 -6 -5 -5 -4 -2 -2 -2
-4 -5 -6 -6 -7 -8 -8 -9 -8 -7 -7 -7 -7 -7 -7 -7 -7 -7 -8 -8 -9 -9 -9 -9 -9 -9 -9 -9 -8 -8 -8 -8 -8 -7 -7 -6 -6 -6 -6 -4 -3 -4 -2

GFSMA_850_temp_003.txt.gz
Temp
13 13 13 13 13 13 13 13 12 13 13 13 13 13 13 13 13 13 12 13 12 13 13 14 14 13 14 14 14 14 15 15 15 15 14 13 13 13 13 13 13 13 13
13 13 13 13 13 13 12 12 12 12 12 12 12 12 13 13 13 13 13 12 13 13 13 13 14 14 13 13 12 13 14 14 14 15 14 13 12 12 13 13 13 13 13
12 12 12 12 12 12 12 12 12 12 12 12 12 12 12 12 12 12 13 13 12 12 12 12 12 13 14 14 12 11 11 11 12 13 13 14 13 12 12 12 12 12 13
13 12 12 11 11 11 11 11 11 11 11 11 12 11 11 11 12 12 12 13 13 12 12 12 12 12 12 13 13 12 12 12 12 12 11 12 12 13 12 12 12 11 11
12 11 11 12 11 11 11 11 11 10 10 11 11 11 11 11 11 12 12 13 13 13 13 13 13 13 13 13 13 13 13 13 12 12 12 11 11 12 12 12 12 12 12
12 12 12 12 12 10 10 10 9 9 9 9 10 10 10 11 12 12 13 13 13 13 13 13 13 13 13 12 12 11 12 12 12 12 12 12 12 11 11 11 12 12 12
12 12 11 11 11 10 9 9 8 8 8 8 8 8 9 11 11 11 11 12 12 12 12 12 12 12 11 12 11 11 11 11 11 11 12 11 11 11 11 11 11 11 11
11 11 11 10 10 9 8 8 7 7 7 7 7 7 8 8 9 9 9 9 10 10 11 12 11 11 11 11 11 11 10 10 11 11 10 10 10 10 10 10 11 11 11
11 10 10 9 9 8 7 7 6 6 5 6 6 6 7 7 7 7 7 9 9 9 9 10 10 10 10 10 10 10 10 10 9 8 9 9 9 9 10 10 11 11 11
10 10 9 8 8 7 7 6 6 5 5 5 5 5 5 6 6 6 7 6 7 7 7 7 7 7 8 8 9 9 9 9 9 8 7 7 8 8 9 10 10 11 11
9 9 8 8 7 7 6 6 6 5 4 4 4 4 4 5 5 5 5 5 5 5 6 5 6 5 6 7 7 8 8 7 7 6 6 6 7 8 8 8 9 9 9
9 9 8 7 7 6 6 5 5 4 3 3 3 3 3 3 3 3 3 3 3 3 4 4 4 4 5 6 6 6 5 5 4 4 4 4 5 5 5 5 6 7 7
9 8 7 6 6 5 5 4 4 3 2 2 2 2 2 2 2 2 2 2 2 2 2 2 2 3 3 4 4 4 3 5 4 3 3 3 3 3 3 3 4 5 6
7 6 6 5 4 4 4 3 3 2 1 1 1 1 1 1 1 1 1 1 1 1 1 1 1 1 2 2 2 2 2 2 1 2 1 1 2 2 2 2 3 4 4
6 5 5 4 4 3 3 2 2 1 1 1 0 0 0 0 0 0 0 -0 -0 0 -0 -0 -0 -0 0 -1 0 -1 -1 -1 0 -0 0 0 1 1 1 2 2 2 3
5 4 4 3 3 3 2 1 1 0 -0 -0 -1 -1 -1 -1 -1 -1 -1 -1 -1 -1 -1 -1 -2 -2 -2 -2 -2 -2 -2 -2 -2 -1 -1 -0 -1 -0 0 0 1 1 3
4 3 3 3 3 2 1 0 -0 -1 -1 -1 -1 -1 -1 -1 -1 -2 -2 -2 -2 -2 -2 -3 -3 -3 -3 -3 -3 -3 -3 -3 -3 -2 -2 -1 -1 -1 -1 -1 0 1 1
3 3 2 2 1 0 -0 -1 -1 -2 -2 -2 -2 -2 -2 -2 -3 -3 -3 -3 -4 -4 -4 -4 -4 -4 -4 -4 -4 -4 -4 -4 -3 -3 -2 -2 -2 -1 -1 -1 -0 0 1
2 2 1 1 0 -0 -1 -1 -2 -2 -3 -3 -3 -3 -3 -3 -4 -4 -4 -5 -5 -5 -5 -5 -5 -5 -5 -5 -5 -4 -4 -4 -4 -4 -3 -3 -3 -2 -2 -2 -1 -0 0
2 1 1 0 -1 -2 -2 -3 -3 -3 -4 -4 -4 -4 -4 -4 -5 -5 -5 -6 -5 -6 -6 -6 -6 -6 -6 -5 -5 -5 -5 -5 -5 -5 -5 -4 -4 -3 -2 -2 -2 -1 -0
1 1 -0 -1 -2 -3 -3 -3 -4 -5 -5 -6 -5 -5 -5 -5 -5 -5 -5 -6 -6 -6 -6 -6 -6 -6 -6 -6 -6 -6 -6 -6 -6 -6 -6 -5 -5 -4 -4 -3 -3 -2 -2
0 -1 -2 -3 -3 -3 -4 -5 -6 -6 -7 -7 -6 -5 -5 -5 -5 -5 -6 -6 -6 -6 -6 -7 -6 -7 -7 -7 -7 -7 -7 -7 -7 -7 -6 -6 -5 -5 -4 -4 -3 -2 -2
-1 -2 -3 -3 -3 -4 -5 -6 -7 -7 -7 -6 -6 -6 -5 -5 -6 -6 -6 -6 -6 -7 -7 -7 -7 -8 -8 -8 -8 -8 -8 -8 -8 -7 -7 -6 -5 -5 -5 -4 -4 -4 -4
-2 -2 -2 -3 -4 -5 -5 -6 -7 -8 -7 -6 -6 -6 -6 -6 -6 -6 -7 -7 -7 -8 -7 -7 -8 -8 -9 -8 -8 -8 -8 -8 -8 -7 -7 -6 -6 -5 -5 -5 -5 -4 -4
-2 -2 -3 -4 -5 -6 -6 -7 -8 -8 -7 -7 -7 -7 -7 -7 -7 -7 -7 -8 -8 -8 -8 -8 -8 -8 -8 -8 -9 -9 -9 -8 -8 -8 -8 -8 -7 -7 -7 -6 -5 -5 -4
-2 -3 -5 -5 -5 -6 -6 -7 -7 -8 -8 -7 -7 -7 -7 -7 -7 -7 -8 -8 -9 -9 -9 -9 -9 -10 -10 -10 -9 -9 -9 -9 -9 -9 -8 -9 -8 -8 -7 -6 -6 -6 -6

GFSMA_850_temp_006.txt.gz
Temp
13 13 13 13 13 13 13 13 12 12 12 12 12 12 12 12 12 12 12 12 12 12 12 12 12 12 12 11 12 12 12 11 12 12 13 14 13 12 11 12 13 13 13
13 12 13 12 13 13 12 12 12 12 12 12 12 12 12 12 12 12 12 12 12 12 12 12 13 12 12 12 11 11 12 12 11 11 11 11 12 12 12 11 11 12 12
13 12 12 12 12 11 11 11 12 12 12 11 11 11 11 11 11 11 11 12 12 12 13 13 13 12 12 13 13 13 13 13 12 12 12 12 12 11 11 12 12 11 11
12 12 12 12 11 12 12 12 11 11 11 11 11 11 11 11 11 11 11 11 11 12 12 12 12 13 12 12 12 12 12 13 13 12 12 12 12 12 12 12 12 12 12
12 12 12 12 12 11 11 11 11 10 10 10 9 10 10 10 10 11 10 11 11 12 12 12 12 12 12 12 11 11 11 11 11 12 12 11 11 11 11 11 11 11 11
12 12 12 11 11 11 11 10 10 10 9 8 8 8 9 10 10 10 10 11 11 11 12 12 11 11 11 11 10 11 10 10 10 11 11 11 11 10 11 11 11 11 11
12 12 11 11 11 10 9 9 8 8 8 8 7 8 8 8 8 9 10 10 10 10 10 10 10 11 11 11 11 12 10 11 10 10 10 9 10 10 10 10 10 11 11
11 11 11 10 10 9 9 8 7 7 7 7 5 6 5 6 7 6 6 8 7 8 9 9 9 9 9 9 9 9 9 10 9 8 8 8 8 9 9 9 9 10 11
11 11 10 9 9 8 8 7 7 6 6 7 6 5 4 5 4 5 5 6 6 6 6 5 5 6 6 6 6 7 7 7 6 6 6 6 7 7 7 8 8 9 9
10 10 10 9 8 7 7 7 6 6 5 5 5 4 4 3 3 3 5 4 4 3 3 4 4 4 5 5 4 5 5 5 5 4 4 5 5 5 6 6 6 7 6
10 9 9 9 8 7 7 6 6 5 5 4 3 3 3 2 2 2 2 2 2 2 2 2 3 2 2 3 3 4 3 4 3 3 3 4 4 4 4 4 4 4 5
9 9 9 8 7 6 6 5 5 5 4 3 3 2 2 1 1 1 1 1 1 1 1 1 1 1 1 1 2 2 2 3 3 1 1 2 2 2 2 2 3 3 3
8 8 8 7 6 6 5 5 4 4 3 2 2 1 1 1 0 0 0 0 0 -0 -0 -0 -1 -0 -0 -0 -0 0 0 -1 -1 -0 0 1 1 1 1 1 2 2 2
8 7 7 6 5 5 4 4 3 3 2 1 1 1 0 0 -0 -0 -0 -1 -1 -1 -1 -1 -1 -2 -2 -1 -1 -1 -1 -2 -2 -1 -1 -1 -1 -0 -0 -0 0 1 1
7 6 5 5 4 4 3 3 2 2 1 1 0 -0 -1 -1 -1 -1 -1 -1 -1 -2 -2 -2 -3 -3 -3 -3 -3 -3 -3 -3 -3 -3 -2 -2 -2 -1 -1 -1 -1 -0 -0
6 5 4 4 3 3 3 2 2 1 0 -0 -1 -1 -1 -2 -2 -2 -2 -2 -2 -3 -3 -3 -3 -4 -4 -4 -4 -4 -4 -4 -4 -3 -3 -3 -2 -2 -2 -2 -1 -1 -1
4 4 3 3 3 3 2 2 1 0 -1 -2 -2 -2 -2 -3 -3 -3 -3 -3 -4 -4 -4 -5 -5 -5 -5 -5 -5 -5 -5 -5 -5 -4 -4 -4 -3 -3 -2 -2 -2 -2 -2
3 3 3 3 2 2 2 1 -1 -2 -2 -3 -2 -3 -4 -4 -4 -4 -4 -4 -5 -5 -5 -6 -6 -6 -6 -6 -6 -6 -6 -6 -5 -5 -5 -4 -4 -4 -4 -3 -3 -2 -2
3 3 2 2 2 1 0 -1 -2 -3 -3 -3 -4 -4 -5 -5 -5 -5 -5 -5 -5 -6 -6 -6 -6 -6 -6 -6 -6 -6 -6 -6 -6 -6 -6 -6 -5 -5 -5 -4 -3 -3 -3
2 2 2 1 1 -0 -1 -2 -3 -4 -4 -5 -5 -6 -6 -6 -5 -5 -5 -5 -5 -6 -6 -6 -6 -7 -7 -6 -7 -7 -7 -7 -7 -8 -7 -7 -6 -6 -6 -5 -5 -4 -4
1 1 1 1 -0 -2 -3 -4 -4 -5 -5 -6 -6 -6 -6 -6 -6 -5 -5 -5 -6 -6 -6 -6 -7 -7 -7 -7 -8 -8 -8 -8 -8 -8 -8 -8 -8 -7 -6 -6 -6 -5 -4
1 1 0 -1 -2 -3 -4 -4 -5 -5 -6 -7 -7 -7 -7 -6 -6 -6 -6 -6 -6 -6 -7 -7 -8 -8 -8 -8 -8 -9 -9 -9 -8 -8 -8 -8 -8 -7 -7 -6 -6 -5 -4
0 -0 -1 -2 -3 -3 -4 -5 -5 -6 -7 -7 -7 -7 -7 -7 -7 -7 -7 -7 -7 -7 -8 -8 -8 -8 -9 -8 -8 -9 -8 -9 -9 -9 -9 -9 -8 -8 -8 -7 -7 -6 -6
-0 -1 -2 -2 -3 -4 -5 -5 -6 -6 -7 -7 -7 -7 -7 -7 -7 -7 -7 -7 -7 -8 -8 -9 -9 -9 -9 -9 -9 -9 -9 -9 -9 -9 -9 -9 -8 -9 -8 -8 -8 -8 -7
-1 -2 -2 -3 -4 -5 -5 -6 -6 -7 -7 -7 -8 -8 -8 -8 -7 -7 -7 -7 -8 -8 -8 -9 -9 -9 -9 -9 -9 -9 -9 -10 -10 -10 -10 -10 -9 -9 -9 -8 -8 -8 -6
-2 -3 -3 -4 -5 -6 -6 -6 -6 -7 -7 -8 -8 -8 -8 -8 -7 -7 -7 -8 -9 -9 -9 -9 -10 -9 -10 -10 -10 -10 -10 -10 -10 -10 -10 -10 -10 -9 -9 -8 -7 -8 -8

GFSMA_850_temp_009.txt.gz
Temp
12 12 12 13 13 13 13 13 13 12 12 12 12 12 12 12 12 12 12 12 12 12 12 12 12 12 12 12 12 12 12 13 13 12 11 11 11 12 11 12 12 12 11
12 12 12 13 13 12 12 12 12 12 12 12 12 12 12 12 11 11 11 11 11 11 11 12 12 11 11 11 12 12 12 12 12 12 12 12 12 12 12 12 12 12 12
12 12 12 12 12 11 12 12 12 12 12 12 12 12 12 11 11 11 11 11 11 11 11 12 12 12 11 11 11 11 11 11 11 12 11 11 11 11 11 12 12 12 11
12 11 11 12 12 12 12 12 12 12 11 11 11 11 11 11 10 10 10 10 10 11 11 11 11 11 11 11 11 10 10 10 10 10 11 11 11 11 11 11 11 11 11
12 12 12 12 12 12 12 11 11 10 10 10 10 10 10 10 9 10 10 10 10 10 11 11 10 11 10 10 10 11 10 10 10 10 10 10 10 10 10 10 10 11 11
12 12 12 12 11 11 11 10 10 9 8 8 8 9 10 9 10 9 9 10 10 10 10 10 10 11 11 11 10 10 10 9 7 7 7 8 9 9 9 9 9 10 10
12 12 11 11 11 10 9 9 8 8 8 8 8 9 9 9 9 8 9 9 9 9 8 9 9 9 9 9 9 9 9 9 8 6 6 6 7 7 7 8 8 9 9
11 11 11 10 10 9 8 8 7 7 7 6 5 6 5 7 7 6 7 7 7 6 7 7 6 6 5 5 5 5 5 5 5 4 4 5 5 5 6 6 7 7 7
11 10 10 10 9 8 8 7 7 6 6 6 5 4 3 3 2 5 5 5 5 4 4 4 4 3 3 3 3 4 4 3 3 3 3 4 4 4 5 5 5 6 6
10 10 9 9 8 8 7 7 6 6 5 5 5 4 3 2 1 1 3 4 3 3 2 2 2 1 2 1 1 1 1 1 1 1 2 3 3 3 3 3 4 4 4
9 9 9 8 8 7 6 6 6 6 5 4 3 3 2 2 1 0 -0 -0 -0 0 1 0 0 0 -0 -0 -0 0 0 -1 -0 0 1 1 1 2 3 2 2 2 2
8 8 8 7 7 6 6 6 5 5 4 4 3 2 1 0 0 -0 -1 -1 -1 -1 -1 -1 -1 -1 -1 -1 -1 -2 -2 -2 -1 -1 -1 -0 0 1 1 1 1 1 2
8 8 7 7 6 5 5 5 5 4 4 3 2 2 1 0 -0 -1 -1 -2 -2 -2 -2 -2 -2 -2 -2 -3 -3 -3 -2 -3 -3 -3 -2 -1 -1 -1 -1 -0 -0 0 1
8 7 7 6 5 5 4 4 4 3 3 2 2 1 -0 -1 -1 -1 -2 -2 -2 -3 -3 -3 -3 -3 -4 -4 -4 -4 -4 -4 -4 -4 -3 -3 -2 -2 -2 -2 -1 -1 -0
7 6 6 5 4 4 3 3 3 2 2 1 1 -0 -1 -1 -2 -2 -3 -3 -3 -4 -4 -3 -4 -4 -5 -5 -5 -5 -5 -5 -5 -4 -4 -4 -3 -3 -3 -3 -2 -2 -1
6 6 5 4 3 3 3 2 2 1 1 0 -1 -2 -2 -2 -3 -3 -4 -4 -4 -4 -4 -5 -5 -5 -5 -5 -5 -6 -6 -6 -6 -5 -5 -4 -4 -4 -4 -4 -3 -3 -2
5 4 4 3 3 2 2 1 1 0 -0 -1 -1 -3 -3 -3 -4 -5 -5 -5 -5 -5 -5 -5 -5 -5 -5 -5 -6 -6 -6 -6 -6 -6 -5 -5 -5 -5 -5 -5 -4 -4 -3
4 3 3 2 2 2 1 1 0 -1 -1 -3 -4 -4 -4 -5 -5 -6 -6 -5 -5 -5 -6 -6 -6 -6 -6 -6 -7 -7 -7 -7 -7 -7 -6 -6 -6 -6 -6 -5 -5 -5 -4
3 3 2 2 1 1 1 0 -1 -2 -4 -4 -4 -5 -5 -6 -6 -6 -6 -6 -6 -6 -6 -7 -6 -6 -7 -7 -7 -7 -8 -8 -8 -8 -7 -7 -7 -7 -6 -6 -6 -5 -5
2 2 1 1 1 0 -0 -1 -3 -4 -4 -5 -5 -6 -6 -7 -7 -7 -6 -6 -6 -6 -6 -7 -7 -6 -7 -8 -8 -8 -8 -8 -8 -9 -8 -8 -8 -8 -7 -7 -7 -6 -6
2 1 1 0 0 -0 -1 -3 -4 -5 -5 -5 -6 -6 -7 -7 -7 -7 -6 -7 -7 -7 -7 -7 -6 -7 -8 -8 -8 -9 -9 -9 -9 -9 -8 -9 -9 -9 -9 -8 -8 -7 -7
1 0 0 -0 -1 -1 -2 -4 -5 -5 -5 -6 -6 -7 -7 -7 -7 -7 -7 -7 -7 -7 -6 -7 -7 -8 -8 -9 -9 -9 -9 -9 -9 -9 -9 -9 -10 -9 -9 -9 -8 -7 -7
0 -0 -0 -1 -2 -2 -3 -5 -5 -6 -6 -6 -7 -7 -7 -8 -8 -8 -7 -7 -7 -8 -8 -8 -8 -9 -9 -9 -8 -9 -10 -10 -10 -10 -10 -10 -10 -10 -9 -9 -9 -8 -8
-0 -1 -1 -2 -3 -3 -5 -6 -6 -6 -6 -7 -7 -8 -8 -8 -8 -8 -8 -8 -7 -8 -9 -9 -9 -9 -9 -9 -10 -10 -10 -10 -10 -10 -10 -10 -10 -10 -9 -9 -9 -8 -8
-1 -1 -2 -3 -4 -5 -6 -7 -7 -7 -7 -8 -8 -8 -8 -8 -8 -8 -8 -7 -9 -9 -9 -9 -9 -10 -10 -10 -10 -10 -10 -10 -10 -10 -10 -11 -10 -10 -10 -9 -8 -7 -8
-2 -2 -3 -4 -5 -6 -7 -8 -8 -8 -8 -8 -8 -8 -8 -9 -8 -8 -8 -9 -10 -9 -9 -10 -10 -10 -10 -11 -11 -11 -11 -11 -11 -11 -9 -11 -10 -10 -9 -9 -8 -8 -7

GFSMA_850_temp_012.txt.gz
Temp
12 12 12 12 13 13 13 12 12 12 12 12 13 13 12 12 12 12 12 12 12 11 11 11 11 12 12 11 11 11 11 12 11 11 11 11 12 12 11 12 12 12 12
12 12 12 12 12 12 12 12 12 12 12 13 13 12 12 12 11 11 11 11 11 11 11 11 11 11 11 11 11 11 11 10 10 11 11 10 11 11 11 11 11 11 12
12 12 12 12 12 12 12 12 12 12 12 12 12 12 11 11 11 10 10 10 10 10 10 11 11 11 11 11 11 11 11 10 10 10 10 10 10 10 11 11 11 11 11
11 11 11 11 12 12 12 12 12 12 11 11 11 11 10 10 10 9 10 9 9 10 10 10 10 10 10 10 10 10 10 10 10 10 10 10 10 11 10 10 10 11 11
11 11 12 12 12 12 11 11 10 10 9 9 9 9 10 9 9 9 9 9 9 9 9 9 9 9 9 9 9 10 10 10 8 7 7 7 7 8 8 8 8 8 9
12 12 12 11 11 11 10 10 9 8 8 8 8 9 9 8 9 9 9 9 9 9 9 8 9 9 9 9 9 9 9 9 8 5 5 5 5 5 6 6 7 8 8
12 11 11 11 10 10 9 8 8 8 7 7 8 8 9 8 8 9 9 8 8 8 7 7 7 7 8 8 8 8 7 7 7 4 3 3 4 4 5 5 6 6 7
11 11 10 10 9 9 8 8 7 7 6 6 5 6 5 7 7 7 6 7 7 6 7 7 6 6 5 5 5 5 5 5 3 2 2 2 3 3 4 5 4 5 5
11 10 10 9 9 8 7 7 6 6 6 5 4 4 3 2 2 4 5 5 4 4 4 5 4 4 3 2 2 2 3 2 2 1 1 1 2 2 3 4 4 4 4
10 9 9 9 8 7 6 6 5 5 5 5 4 3 3 1 1 1 2 4 2 2 3 3 2 1 1 1 -0 -0 0 -1 -1 -0 -0 0 1 2 2 3 3 3 4
9 9 8 8 7 6 6 5 5 5 4 4 3 3 3 2 1 -1 -2 -1 1 2 2 1 1 0 -0 -1 -2 -1 -2 -2 -2 -2 -1 -1 -0 0 1 2 2 2 3
9 8 8 7 6 5 5 5 4 4 4 3 3 2 1 0 -0 -1 -2 -2 -3 -2 -2 -1 -1 -1 -2 -2 -2 -3 -3 -3 -3 -3 -2 -2 -1 -1 -0 0 0 1 1
8 7 7 6 5 5 4 4 4 3 3 3 2 2 1 0 -1 -1 -2 -2 -3 -3 -3 -3 -3 -3 -3 -4 -4 -4 -4 -4 -4 -4 -4 -3 -2 -2 -2 -1 -1 -1 -1
7 7 6 5 5 4 4 3 3 3 3 2 2 1 0 -0 -1 -2 -3 -4 -4 -4 -4 -4 -4 -4 -4 -5 -5 -5 -5 -5 -5 -5 -4 -4 -4 -3 -3 -2 -2 -1 -2
7 6 6 5 4 4 3 3 2 2 2 1 1 0 -1 -2 -2 -3 -3 -4 -5 -6 -5 -5 -5 -5 -5 -5 -5 -5 -6 -6 -6 -5 -5 -5 -4 -4 -4 -3 -3 -3 -3
6 5 5 4 4 3 2 2 2 1 1 1 -0 -1 -2 -3 -3 -4 -4 -5 -6 -6 -6 -6 -6 -6 -6 -6 -6 -6 -6 -6 -6 -6 -6 -5 -5 -5 -4 -5 -4 -4 -4
5 5 4 3 3 3 2 1 1 0 -0 -1 -2 -3 -4 -4 -5 -5 -5 -6 -6 -6 -7 -6 -6 -5 -6 -6 -6 -6 -7 -7 -7 -7 -6 -6 -6 -6 -5 -5 -5 -5 -4
4 4 3 2 2 2 1 1 0 -0 -1 -2 -3 -4 -5 -6 -6 -6 -6 -7 -7 -6 -7 -7 -6 -6 -7 -6 -7 -7 -7 -7 -8 -8 -8 -7 -7 -6 -6 -6 -6 -6 -5
3 3 2 2 1 1 0 -0 -1 -2 -2 -3 -4 -5 -6 -6 -6 -7 -7 -7 -7 -7 -7 -7 -7 -7 -6 -7 -7 -8 -8 -8 -8 -8 -8 -8 -8 -8 -7 -7 -6 -6 -6
2 2 1 1 0 -0 -0 -1 -2 -2 -3 -5 -5 -6 -6 -7 -7 -8 -7 -7 -7 -7 -7 -7 -7 -7 -7 -7 -8 -8 -8 -9 -8 -9 -9 -9 -9 -8 -8 -8 -8 -8 -8
2 1 1 0 -0 -1 -1 -2 -3 -4 -5 -5 -6 -6 -7 -7 -7 -7 -7 -8 -8 -8 -7 -7 -7 -7 -8 -8 -9 -9 -9 -9 -9 -10 -9 -10 -10 -10 -10 -9 -9 -9 -9
1 0 -0 -1 -1 -1 -2 -3 -5 -6 -6 -6 -7 -7 -7 -8 -8 -8 -8 -8 -7 -7 -8 -8 -7 -9 -9 -9 -9 -9 -9 -10 -10 -10 -10 -10 -10 -10 -10 -10 -10 -9 -8
0 -0 -1 -1 -2 -2 -3 -4 -6 -6 -7 -7 -7 -8 -8 -8 -8 -8 -8 -8 -8 -8 -8 -9 -9 -9 -10 -9 -9 -10 -10 -10 -10 -10 -10 -11 -10 -10 -10 -10 -9 -9 -9
-1 -1 -2 -2 -3 -3 -4 -4 -5 -7 -8 -8 -8 -8 -8 -9 -9 -8 -8 -8 -8 -9 -8 -9 -10 -9 -9 -10 -10 -10 -10 -10 -10 -11 -11 -11 -10 -10 -9 -9 -8 -8 -8
-1 -2 -2 -3 -4 -4 -5 -6 -8 -8 -8 -8 -8 -8 -9 -9 -9 -8 -8 -9 -9 -9 -9 -10 -10 -10 -10 -10 -10 -10 -10 -11 -11 -11 -10 -11 -10 -11 -10 -9 -8 -8 -8
-2 -3 -3 -4 -4 -5 -6 -7 -8 -8 -8 -8 -8 -8 -9 -9 -8 -8 -9 -10 -10 -10 -10 -10 -10 -10 -10 -10 -11 -11 -11 -12 -11 -11 -9 -11 -11 -10 -10 -9 -9 -9 -9

GFSMA_850_temp_015.txt.gz
Temp
12 12 12 12 12 12 12 12 12 12 11 12 12 12 12 12 12 11 11 11 11 11 11 11 10 11 11 11 11 11 11 11 11 10 11 11 11 11 11 11 11 12 12
12 11 12 12 12 12 12 12 11 12 12 12 12 12 12 11 11 11 10 10 10 10 10 10 10 10 11 10 10 10 11 10 10 11 11 11 11 11 11 11 11 11 11
12 12 12 12 12 11 11 12 12 12 11 11 11 11 11 10 10 10 9 9 9 9 9 10 10 10 10 10 10 10 10 10 10 10 10 10 10 10 10 10 11 11 10
11 12 11 11 11 12 12 12 11 11 11 11 11 10 10 10 9 9 9 9 9 9 9 9 9 9 9 9 9 10 10 10 10 10 9 9 9 10 10 10 9 9 9
11 11 11 11 11 11 11 11 10 10 10 10 10 9 10 10 9 9 9 9 9 9 9 8 8 8 9 9 9 9 8 9 9 9 8 6 6 6 6 7 7 7 8
11 11 11 11 11 11 10 10 9 8 8 8 8 9 9 9 9 8 8 8 8 8 8 8 8 8 8 8 8 8 8 8 8 8 5 4 4 4 4 4 5 5 6
11 11 11 11 10 10 9 9 8 7 7 7 8 9 8 8 9 8 8 8 8 8 8 7 7 7 7 7 7 6 7 7 6 4 3 2 2 3 3 3 4 5 5
11 11 10 10 10 9 8 7 7 6 6 6 5 6 6 7 7 7 8 7 7 6 7 6 6 6 6 6 6 6 6 6 4 2 1 1 2 2 2 2 3 4 5
11 10 10 9 9 8 7 7 6 5 5 4 4 3 3 3 3 4 5 5 5 5 5 5 5 5 5 4 4 4 4 3 1 0 0 1 1 1 1 2 2 3 4
10 10 9 9 8 8 7 6 5 5 4 4 4 3 2 1 0 1 2 4 3 3 4 4 3 3 3 2 1 0 0 -1 -1 -1 -1 -1 -1 -0 1 1 2 2 3
10 9 8 8 8 7 6 5 5 4 4 3 3 2 2 2 1 -1 -2 1 2 2 2 2 1 1 1 0 -1 -2 -2 -3 -3 -2 -2 -2 -1 -0 -0 0 1 1 2
9 8 8 7 7 6 5 5 4 3 3 3 2 2 1 -0 -1 -2 -3 -3 -3 -1 -1 1 0 -0 -1 -2 -2 -3 -3 -4 -4 -4 -3 -2 -2 -1 -1 -1 -1 -0 0
8 8 7 7 6 5 4 4 3 3 3 2 2 1 1 -0 -1 -2 -3 -3 -4 -3 -3 -4 -4 -4 -4 -3 -3 -4 -4 -5 -5 -4 -4 -3 -3 -2 -2 -2 -2 -1 -1
7 7 7 6 5 4 4 3 3 2 2 2 1 0 -0 -1 -2 -3 -4 -5 -5 -5 -5 -5 -5 -5 -5 -5 -5 -5 -5 -5 -5 -5 -5 -4 -4 -4 -4 -3 -3 -2 -2
7 6 6 5 4 3 3 3 3 2 2 1 1 -0 -1 -2 -3 -4 -4 -5 -6 -7 -7 -6 -6 -6 -6 -6 -6 -6 -6 -6 -6 -6 -5 -5 -5 -5 -4 -4 -4 -3 -3
6 5 5 4 3 3 2 2 2 1 1 1 -0 -1 -2 -3 -4 -4 -5 -5 -6 -7 -8 -6 -6 -6 -7 -7 -7 -7 -7 -7 -6 -6 -6 -6 -6 -6 -5 -5 -5 -5 -4
5 5 4 3 3 2 2 2 1 1 0 -0 -1 -2 -3 -4 -5 -6 -6 -6 -7 -7 -7 -6 -6 -7 -6 -6 -7 -7 -7 -7 -7 -7 -7 -7 -7 -6 -6 -6 -6 -6 -5
4 4 3 3 2 2 1 1 0 -0 -0 -1 -2 -4 -4 -5 -6 -6 -7 -7 -7 -7 -8 -7 -7 -7 -6 -6 -7 -7 -7 -8 -8 -8 -8 -8 -7 -7 -7 -7 -7 -6 -6
3 3 2 2 2 1 1 0 -0 -1 -2 -3 -4 -5 -6 -6 -7 -7 -7 -8 -8 -8 -8 -8 -8 -7 -7 -7 -8 -8 -8 -8 -8 -9 -8 -9 -8 -8 -7 -7 -7 -7 -7
3 2 1 1 0 0 -0 -1 -1 -2 -3 -4 -5 -6 -6 -7 -7 -8 -8 -8 -8 -8 -8 -8 -8 -8 -8 -8 -8 -9 -9 -9 -9 -9 -9 -9 -9 -9 -9 -8 -8 -8 -8
2 1 1 0 -0 -1 -1 -2 -3 -4 -4 -5 -6 -6 -7 -7 -8 -8 -8 -8 -8 -8 -8 -8 -8 -8 -9 -8 -9 -9 -10 -9 -9 -10 -10 -10 -10 -10 -10 -10 -10 -9 -9
1 0 -0 -0 -1 -1 -2 -2 -4 -4 -5 -6 -7 -7 -7 -8 -8 -8 -9 -8 -8 -8 -8 -7 -9 -9 -10 -10 -10 -10 -9 -10 -10 -10 -10 -10 -10 -10 -10 -10 -9 -10 -9
0 -0 -1 -1 -1 -2 -2 -4 -5 -7 -7 -7 -7 -8 -8 -8 -8 -9 -8 -8 -8 -9 -9 -9 -10 -10 -10 -10 -10 -10 -10 -11 -10 -11 -11 -11 -10 -10 -9 -9 -9 -10 -9
-0 -1 -1 -2 -2 -3 -4 -5 -6 -7 -7 -7 -8 -8 -8 -9 -9 -9 -8 -8 -8 -9 -9 -10 -10 -10 -10 -10 -10 -10 -10 -10 -11 -11 -11 -11 -10 -10 -9 -9 -8 -8 -9
-1 -1 -2 -3 -3 -4 -5 -5 -7 -7 -8 -8 -8 -8 -9 -9 -9 -8 -8 -9 -10 -10 -9 -10 -10 -10 -11 -11 -11 -10 -10 -11 -11 -11 -11 -11 -10 -11 -10 -9 -8 -9 -9
-2 -2 -3 -4 -4 -5 -6 -6 -8 -8 -8 -8 -8 -9 -9 -9 -9 -9 -9 -10 -10 -10 -10 -10 -10 -9 -9 -9 -10 -11 -11 -11 -12 -11 -11 -11 -11 -11 -10 -10 -9 -9 -9

GFSMA_850_temp_018.txt.gz
Temp
12 11 12 11 11 11 12 12 11 11 11 11 12 12 12 11 11 11 11 10 10 10 10 10 10 10 10 9 10 10 10 10 11 11 11 11 11 11 12 11 11 12 12
12 11 11 11 11 12 11 11 11 12 12 12 11 11 11 11 10 10 10 9 9 9 9 9 9 10 10 10 10 10 10 10 10 10 11 11 11 11 11 11 11 11 11
12 12 11 11 11 11 11 11 11 11 11 11 11 10 10 10 10 9 9 9 9 9 9 9 9 9 9 9 10 9 9 10 10 10 10 10 10 10 10 10 10 11 11
12 12 11 11 11 11 11 11 11 11 11 10 10 10 10 9 9 9 8 8 9 9 9 9 8 9 9 9 9 9 9 9 9 10 10 10 9 9 10 9 9 9 10
12 11 11 10 11 11 11 11 11 10 10 10 9 9 9 10 9 8 8 8 9 9 8 8 8 8 8 8 8 8 8 9 9 9 9 8 8 8 8 6 6 7 7
11 10 11 11 11 10 10 10 9 9 8 8 9 9 9 9 9 8 8 8 8 8 8 8 8 7 7 8 8 8 8 8 8 8 6 5 5 4 4 3 4 4 4
11 11 11 11 10 10 10 10 9 8 8 8 8 9 9 9 9 8 8 7 8 8 7 7 7 7 7 7 7 6 6 6 7 6 4 3 4 4 3 3 3 3 4
11 11 11 10 10 10 9 9 8 8 7 6 6 6 6 7 8 8 7 7 7 6 6 6 6 5 6 6 5 5 6 5 5 3 0 0 1 2 2 2 2 2 3
11 11 10 10 9 9 9 8 7 6 6 5 4 4 3 3 3 4 5 5 5 4 4 4 5 5 4 4 4 4 4 3 2 -0 -0 -0 0 1 1 1 2 2 3
10 10 10 9 9 9 8 7 6 5 5 4 4 3 2 1 0 1 2 3 3 3 3 4 4 3 4 3 3 2 2 2 -1 -2 -1 -1 -1 -0 0 1 2 2 2
10 10 9 9 8 8 7 6 5 5 4 3 3 2 2 2 1 -1 -2 1 2 3 2 1 1 1 2 1 0 -0 -1 -3 -3 -3 -2 -2 -1 -1 -0 0 1 1 1
10 9 9 8 8 7 6 6 5 4 3 3 2 1 0 -0 -1 -2 -3 -3 -3 -2 -0 1 1 1 0 -1 -1 -2 -2 -4 -4 -4 -3 -3 -2 -2 -1 -1 -0 -0 -0
9 8 8 7 7 6 5 5 4 3 3 2 2 2 1 -0 -1 -2 -3 -3 -4 -3 -3 -4 -3 -2 -2 -2 -3 -4 -4 -5 -5 -5 -4 -3 -3 -3 -2 -2 -2 -1 -1
8 8 7 7 6 5 4 4 3 3 2 2 1 1 -0 -1 -2 -3 -4 -5 -5 -5 -5 -6 -5 -5 -5 -5 -6 -6 -6 -6 -6 -6 -5 -4 -4 -4 -3 -3 -3 -3 -3
7 7 6 6 5 4 4 3 2 2 2 1 1 0 -0 -1 -3 -3 -4 -5 -6 -7 -7 -6 -6 -6 -6 -7 -7 -7 -7 -6 -7 -6 -5 -5 -5 -5 -5 -5 -4 -4 -4
6 6 5 5 4 3 3 2 2 1 1 1 0 -0 -1 -2 -3 -4 -5 -6 -7 -7 -8 -7 -7 -7 -7 -7 -7 -7 -7 -7 -7 -7 -6 -6 -6 -6 -6 -5 -5 -5 -5
6 5 5 4 3 2 2 1 1 1 1 1 0 -1 -2 -3 -4 -5 -6 -7 -7 -7 -8 -7 -7 -7 -7 -7 -7 -7 -8 -8 -8 -7 -8 -7 -7 -6 -6 -6 -6 -6 -6
5 5 4 3 2 2 1 1 1 1 0 -0 -1 -2 -3 -4 -5 -6 -7 -7 -8 -8 -8 -8 -8 -8 -7 -7 -7 -8 -8 -8 -8 -8 -8 -8 -7 -7 -7 -7 -7 -7 -6
4 4 3 2 2 1 1 1 0 -0 -1 -2 -3 -4 -5 -6 -6 -7 -8 -8 -8 -8 -8 -9 -8 -8 -7 -8 -8 -8 -8 -9 -9 -9 -9 -9 -9 -8 -8 -8 -7 -7 -7
4 3 2 1 1 1 0 -0 -0 -1 -2 -3 -4 -5 -5 -6 -7 -8 -8 -8 -8 -8 -8 -8 -8 -8 -8 -8 -9 -9 -10 -10 -10 -10 -10 -10 -9 -9 -9 -9 -9 -8 -8
3 2 1 1 1 0 -0 -1 -2 -2 -3 -4 -5 -6 -7 -7 -8 -8 -8 -8 -8 -8 -8 -7 -9 -9 -9 -10 -10 -10 -10 -10 -10 -10 -10 -10 -10 -10 -10 -10 -10 -10 -10
1 1 0 0 0 -0 -1 -2 -3 -4 -5 -5 -6 -7 -8 -8 -8 -9 -9 -9 -8 -7 -8 -9 -9 -10 -10 -10 -10 -10 -10 -10 -10 -10 -10 -10 -10 -10 -10 -10 -9 -10 -9
1 0 0 -0 -1 -1 -2 -3 -4 -5 -6 -7 -7 -8 -8 -8 -8 -9 -9 -9 -8 -8 -9 -10 -10 -10 -10 -10 -10 -10 -10 -11 -11 -11 -11 -11 -10 -10 -10 -9 -10 -10 -9
0 0 -1 -1 -1 -2 -3 -4 -5 -6 -7 -8 -8 -8 -8 -9 -9 -9 -8 -8 -9 -9 -9 -10 -10 -10 -10 -10 -10 -10 -10 -10 -11 -11 -11 -11 -10 -10 -10 -9 -8 -9 -10
-0 -1 -1 -2 -2 -3 -4 -4 -5 -7 -8 -8 -8 -9 -9 -9 -9 -8 -8 -9 -10 -9 -9 -9 -10 -10 -10 -10 -11 -10 -10 -11 -11 -11 -10 -11 -11 -11 -10 -9 -9 -9 -9
-1 -1 -2 -3 -4 -4 -4 -5 -8 -9 -9 -8 -9 -9 -9 -10 -9 -9 -9 -10 -10 -10 -10 -10 -10 -9 -9 -8 -9 -10 -11 -11 -12 -11 -8 -11 -11 -11 -10 -10 -9 -8 -8

GFSMA_850_temp_021.txt.gz
Temp
12 11 11 11 12 12 12 11 11 11 11 12 12 12 11 11 11 11 11 10 10 10 9 9 10 10 9 9 9 9 10 10 10 10 11 11 11 11 11 11 11 12 12
12 12 11 12 12 12 11 11 11 11 11 11 11 11 11 11 10 10 10 9 9 9 9 9 9 9 9 9 9 9 9 10 10 10 10 10 11 11 11 11 11 11 11
12 12 12 12 12 12 11 11 11 11 11 10 10 10 10 10 10 9 9 8 8 8 9 9 9 9 9 9 9 9 9 9 10 10 10 10 10 10 10 10 10 11 11
12 12 12 11 11 11 11 11 11 11 11 10 10 10 10 9 9 8 8 8 8 8 8 8 8 8 8 8 8 8 8 9 9 9 10 10 9 9 9 10 10 9 10
12 12 12 11 11 11 11 11 11 10 10 10 10 9 9 10 9 8 7 7 7 7 7 8 8 8 8 8 8 8 8 8 8 8 8 8 7 7 7 7 8 6 6
12 11 11 11 11 11 11 10 10 10 9 9 9 9 10 9 9 8 7 7 7 7 7 7 7 7 7 7 7 7 7 7 7 7 7 5 3 2 3 3 3 4 4
11 11 11 11 11 10 10 10 9 9 9 9 9 9 9 9 8 7 7 7 7 7 6 6 6 6 6 6 6 6 6 6 6 6 5 3 1 2 2 3 3 3 4
11 11 11 11 10 10 10 9 9 8 8 8 7 7 7 7 7 7 7 7 6 6 6 6 5 5 5 6 6 6 6 6 5 5 3 1 1 1 2 2 3 3 3
11 11 11 10 10 9 9 9 8 7 7 6 6 5 4 3 3 6 6 6 5 5 5 5 5 5 5 5 4 4 4 4 4 3 -0 -0 0 0 1 1 2 2 3
11 11 10 10 9 9 8 8 7 7 6 6 5 4 3 2 0 0 2 3 3 3 4 4 4 4 3 3 3 3 2 2 1 -2 -1 -1 -0 -0 0 1 1 2 2
10 10 10 9 9 8 8 7 7 6 5 5 4 4 3 3 2 -0 -1 1 2 2 2 2 2 2 2 2 1 -0 -1 -3 -3 -3 -2 -2 -1 -0 -0 0 1 1 1
10 10 9 8 8 8 7 6 6 5 5 4 3 3 2 1 0 -1 -3 -2 -3 -2 -0 1 1 1 0 -0 -2 -1 -2 -3 -5 -4 -3 -3 -2 -2 -1 -1 -1 -0 0
10 9 9 8 8 7 6 6 5 4 4 3 3 2 2 1 0 -1 -2 -3 -4 -4 -5 -5 -4 -4 -4 -4 -5 -4 -4 -5 -5 -5 -5 -4 -3 -3 -3 -2 -2 -1 -1
9 9 8 7 7 6 6 5 4 3 3 2 2 1 1 0 -1 -2 -3 -4 -5 -4 -4 -4 -5 -5 -6 -7 -7 -7 -7 -7 -7 -6 -6 -5 -4 -4 -4 -4 -3 -3 -3
9 8 7 7 6 6 5 4 3 3 2 2 1 1 0 -1 -1 -2 -3 -4 -6 -6 -5 -5 -6 -6 -7 -8 -8 -7 -7 -7 -7 -7 -6 -6 -6 -5 -5 -5 -4 -4 -4
8 7 7 6 5 4 4 3 3 2 2 1 1 0 -1 -1 -2 -3 -4 -5 -6 -7 -7 -6 -6 -7 -8 -8 -8 -8 -8 -8 -8 -7 -7 -7 -6 -6 -6 -6 -5 -5 -5
7 6 6 5 4 3 3 2 2 1 1 1 -0 -1 -1 -2 -3 -4 -4 -5 -6 -7 -8 -6 -8 -8 -8 -8 -8 -8 -8 -8 -8 -8 -8 -7 -7 -7 -7 -6 -6 -6 -6
6 5 5 4 3 3 2 2 1 1 0 -0 -1 -1 -2 -3 -3 -4 -5 -6 -7 -8 -8 -8 -8 -8 -8 -8 -8 -8 -9 -9 -9 -9 -9 -8 -8 -8 -7 -7 -7 -7 -7
5 5 4 3 2 2 1 1 0 0 -0 -1 -2 -2 -3 -5 -5 -6 -7 -8 -8 -8 -9 -9 -8 -7 -8 -8 -9 -9 -9 -9 -9 -10 -9 -9 -9 -8 -8 -8 -7 -7 -7
4 3 3 2 2 1 1 0 -0 -1 -1 -2 -2 -4 -5 -6 -7 -7 -8 -8 -8 -8 -8 -8 -8 -8 -9 -8 -9 -9 -10 -9 -10 -10 -9 -9 -9 -9 -9 -9 -9 -9 -8
3 2 2 1 1 0 0 -0 -1 -1 -2 -3 -4 -5 -6 -7 -7 -8 -8 -8 -8 -8 -8 -7 -8 -9 -9 -9 -10 -10 -10 -10 -10 -10 -10 -10 -9 -9 -9 -9 -9 -9 -9
2 2 1 1 0 -0 -1 -1 -2 -2 -3 -5 -6 -6 -7 -7 -8 -9 -9 -9 -8 -8 -7 -8 -9 -9 -10 -10 -10 -10 -10 -10 -10 -10 -10 -10 -10 -10 -10 -9 -10 -10 -9
1 1 0 0 -0 -1 -1 -2 -3 -4 -5 -6 -6 -7 -8 -8 -9 -9 -9 -9 -8 -8 -9 -9 -10 -10 -10 -10 -9 -10 -10 -10 -10 -10 -10 -10 -9 -10 -9 -9 -9 -10 -9
0 -0 -0 -1 -1 -1 -2 -3 -4 -4 -5 -6 -7 -8 -8 -9 -9 -9 -9 -8 -9 -9 -10 -10 -10 -10 -10 -9 -10 -10 -10 -10 -10 -9 -10 -11 -10 -10 -9 -8 -7 -8 -9
-0 -0 -1 -1 -2 -2 -3 -4 -5 -5 -7 -8 -8 -8 -9 -9 -9 -9 -8 -9 -9 -10 -9 -9 -10 -10 -10 -9 -9 -11 -10 -11 -11 -10 -8 -11 -10 -11 -9 -7 -6 -7 -9
-1 -1 -2 -2 -3 -3 -4 -4 -6 -8 -8 -9 -9 -9 -10 -10 -9 -9 -9 -10 -10 -10 -10 -10 -10 -9 -8 -8 -8 -10 -10 -11 -12 -12 -8 -11 -11 -11 -10 -8 -7 -5 -5

GFSMA_850_temp_024.txt.gz
Temp
12 12 12 12 12 12 12 12 11 11 11 12 12 12 12 11 11 11 10 10 9 9 9 9 9 9 9 9 9 9 10 10 10 10 10 10 10 10 11 11 11 11 11
12 12 12 12 12 12 12 12 11 11 12 12 11 11 11 11 10 10 9 9 9 9 9 9 9 9 9 9 9 9 9 9 10 10 10 10 10 10 10 10 10 11 11
12 12 12 12 12 12 12 11 12 11 11 11 11 10 10 10 10 9 9 8 8 8 8 8 8 8 8 8 9 9 8 9 9 9 9 10 10 10 10 10 10 10 10
13 12 12 12 12 11 11 11 11 11 11 11 10 10 10 9 9 8 8 8 8 8 8 8 8 8 8 8 8 8 8 8 8 8 8 9 9 9 8 9 9 9 10
13 12 12 12 11 11 11 11 11 11 11 10 10 9 9 9 8 8 7 7 7 7 7 7 7 7 7 7 7 7 7 7 8 7 7 7 8 7 6 5 6 8 8
12 12 12 11 11 11 11 11 11 10 10 10 10 9 9 9 8 7 6 6 7 7 7 7 7 7 7 7 7 7 7 6 7 6 7 6 6 3 3 3 3 3 4
12 12 11 11 11 11 11 10 10 10 9 9 9 7 8 8 7 6 6 6 6 6 6 6 6 6 6 6 6 6 6 6 6 6 5 5 3 2 2 2 2 3 4
11 11 11 11 11 10 10 10 10 9 9 8 7 6 7 7 5 6 6 6 5 6 6 6 6 6 5 5 5 5 5 5 5 5 4 2 1 1 1 2 2 3 3
11 11 11 11 11 10 10 9 9 8 7 7 6 5 6 7 4 5 5 5 5 4 4 5 5 5 5 4 4 4 4 4 4 3 1 -0 -0 0 1 2 2 2 3
10 11 11 11 10 10 10 9 8 8 7 6 5 5 5 4 3 4 3 3 2 2 1 2 4 4 4 3 3 3 3 2 2 1 -2 -1 -1 -0 0 1 1 2 2
10 10 10 10 10 10 9 8 8 7 6 5 5 4 3 2 1 1 2 3 2 1 -0 -1 -1 -1 -1 -2 -2 -3 -3 -4 -4 -4 -3 -2 -2 -1 -0 0 1 1 1
10 10 10 10 9 9 8 8 7 6 6 5 4 3 3 1 1 1 1 1 0 0 -0 -1 -2 -2 -2 -3 -3 -3 -2 -3 -5 -5 -4 -3 -3 -2 -2 -1 -1 -0 -0
10 10 9 9 9 8 7 7 6 5 5 4 3 3 2 1 0 -1 -1 -1 -1 -1 -1 -2 -1 -2 -3 -4 -4 -4 -3 -3 -5 -5 -5 -4 -4 -3 -3 -3 -2 -2 -2
10 9 9 8 8 7 7 6 5 4 4 3 3 2 2 1 -0 -2 -3 -3 -2 -1 -1 -1 -2 -3 -4 -4 -5 -6 -6 -6 -6 -6 -5 -5 -5 -5 -4 -4 -4 -4 -4
9 9 8 8 7 6 6 5 4 4 3 2 2 2 1 -0 -1 -2 -3 -4 -4 -3 -3 -2 -2 -3 -4 -5 -5 -6 -6 -6 -6 -6 -6 -6 -6 -6 -5 -5 -5 -5 -5
9 8 8 7 6 5 5 4 4 3 2 2 1 1 -0 -1 -2 -3 -4 -5 -5 -5 -5 -3 -4 -4 -5 -6 -6 -6 -6 -6 -7 -7 -7 -6 -6 -6 -6 -6 -6 -5 -5
8 7 7 6 5 4 4 3 3 2 2 1 0 -0 -1 -2 -3 -4 -5 -5 -5 -5 -5 -5 -5 -5 -6 -6 -6 -6 -6 -7 -7 -7 -7 -7 -7 -7 -7 -6 -6 -6 -6
7 6 6 5 4 4 3 2 2 2 1 1 -0 -1 -2 -3 -4 -5 -6 -6 -6 -6 -6 -6 -6 -7 -6 -6 -6 -7 -7 -7 -7 -7 -8 -8 -7 -7 -7 -7 -7 -6 -6
6 5 5 4 3 3 2 2 1 1 0 -1 -1 -2 -3 -4 -5 -6 -6 -7 -6 -6 -7 -7 -7 -7 -6 -7 -7 -7 -7 -7 -7 -8 -8 -8 -8 -8 -8 -7 -7 -7 -7
5 4 4 3 2 2 1 1 0 -0 -1 -1 -2 -3 -5 -6 -7 -7 -7 -7 -6 -7 -7 -7 -7 -7 -7 -7 -7 -7 -7 -8 -8 -8 -8 -8 -8 -8 -8 -7 -7 -8 -8
4 3 3 2 2 1 1 -0 -1 -2 -2 -3 -4 -5 -6 -6 -6 -8 -8 -7 -7 -8 -8 -8 -8 -7 -7 -7 -7 -8 -8 -8 -8 -8 -8 -8 -8 -8 -8 -8 -8 -8 -8
3 2 2 1 1 0 -0 -1 -1 -2 -3 -5 -5 -6 -7 -7 -8 -8 -8 -8 -8 -8 -8 -8 -8 -8 -8 -8 -8 -9 -9 -8 -9 -8 -8 -9 -8 -8 -8 -8 -8 -8 -8
2 1 1 1 0 -1 -1 -1 -2 -2 -4 -5 -6 -7 -7 -7 -8 -8 -9 -8 -8 -8 -8 -8 -8 -8 -8 -8 -9 -9 -9 -9 -9 -9 -9 -9 -9 -9 -8 -8 -8 -8 -8
1 1 0 -0 -1 -1 -1 -2 -2 -3 -5 -7 -7 -7 -8 -8 -8 -8 -8 -8 -8 -8 -8 -8 -9 -9 -9 -9 -9 -9 -10 -10 -9 -9 -9 -9 -9 -9 -8 -7 -5 -5 -6
0 -0 -1 -1 -1 -2 -2 -3 -3 -5 -7 -7 -7 -7 -8 -8 -9 -8 -8 -8 -8 -8 -8 -9 -9 -9 -9 -9 -10 -10 -10 -10 -10 -10 -8 -10 -9 -9 -9 -5 -5 -6 -6
-1 -1 -1 -2 -2 -2 -3 -3 -4 -7 -7 -7 -7 -7 -8 -8 -9 -9 -9 -9 -9 -9 -10 -9 -9 -9 -10 -10 -10 -10 -10 -10 -10 -11 -8 -10 -10 -10 -9 -8 -6 -4 -3

GFSMA_850_temp_027.txt.gz
Temp
13 13 13 11 12 12 12 12 12 11 11 12 12 12 12 10 10 9 9 10 10 10 9 9 10 9 9 9 9 9 9 9 10 10 10 10 10 10 10 10 10 11 11
13 12 12 12 12 12 12 12 12 11 12 12 12 11 11 10 10 9 8 9 9 9 9 9 9 9 9 9 9 9 9 9 10 10 10 10 10 10 10 10 10 10 10
13 13 12 13 12 12 12 12 12 12 12 12 11 10 10 10 10 8 8 7 8 9 9 9 9 9 9 9 9 9 9 9 9 9 9 9 10 10 10 10 10 10 10
13 13 13 12 12 12 12 12 12 11 11 11 11 10 9 9 9 8 8 7 7 7 8 8 8 8 8 8 8 8 8 8 8 9 9 9 9 9 9 9 9 9 10
13 13 13 12 12 12 11 12 12 11 11 11 11 10 9 9 7 7 6 7 7 7 7 7 8 7 8 8 8 8 8 8 7 7 7 7 8 8 8 7 4 5 6
13 13 12 12 12 11 12 11 11 11 11 10 10 10 10 9 8 7 6 6 5 7 7 7 6 6 6 7 7 7 7 7 7 7 6 6 6 6 3 3 3 3 4
13 12 12 12 11 11 11 11 11 10 10 10 10 9 8 8 8 6 5 5 5 5 5 4 4 5 6 6 6 6 6 6 6 6 6 5 4 2 2 2 3 3 3
13 12 11 11 11 11 11 11 10 10 10 9 9 7 8 8 7 7 6 6 5 5 4 4 5 5 5 5 5 5 6 5 5 5 5 4 1 1 1 2 2 3 3
12 11 11 11 11 11 11 10 10 9 8 8 8 7 7 8 7 6 6 5 5 4 4 4 4 3 3 3 3 3 3 3 3 3 3 1 -0 -0 0 1 2 2 2
12 11 11 11 11 11 10 10 10 9 8 7 6 6 6 5 4 4 5 4 4 4 3 2 3 3 3 2 1 2 1 2 2 2 -0 -2 -1 -1 -0 0 1 1 2
11 11 10 10 10 10 10 10 9 8 8 7 6 5 4 3 3 2 2 3 3 3 2 1 1 0 0 -0 -0 -1 -2 -3 -3 -3 -3 -3 -2 -1 -1 -1 -0 0 0
10 11 9 9 10 10 9 9 8 8 7 6 6 5 4 3 3 2 2 1 1 1 1 1 0 1 -1 -1 -2 -2 -3 -4 -4 -4 -4 -3 -3 -2 -2 -2 -2 -1 -1
10 10 9 9 10 9 9 8 8 7 6 6 5 4 3 3 2 1 -0 -0 -1 0 -0 -0 0 -0 -0 -1 -2 -3 -4 -5 -5 -4 -4 -4 -3 -3 -3 -3 -3 -3 -2
10 10 9 9 9 9 8 7 7 6 6 5 4 4 3 2 1 -0 -1 -2 -2 -2 -1 -1 -1 -1 -1 -2 -3 -4 -5 -5 -5 -5 -5 -4 -4 -4 -4 -4 -4 -4 -4
9 9 9 9 8 8 7 7 6 5 5 4 3 3 2 1 0 -0 -1 -2 -3 -3 -3 -2 -2 -1 -2 -3 -4 -5 -5 -5 -5 -5 -5 -5 -5 -5 -5 -5 -5 -5 -5
9 9 9 8 8 7 6 6 5 5 4 3 2 2 1 0 -0 -1 -2 -3 -4 -4 -4 -4 -4 -4 -4 -4 -5 -5 -5 -5 -5 -6 -6 -6 -5 -6 -6 -6 -6 -5 -5
8 8 8 8 7 6 5 5 4 3 3 2 1 0 0 -0 -1 -2 -3 -4 -4 -5 -5 -5 -5 -5 -5 -6 -6 -6 -6 -6 -6 -6 -6 -6 -6 -6 -6 -6 -6 -6 -6
8 7 7 7 6 5 5 4 3 2 2 1 0 -0 -1 -2 -3 -4 -4 -5 -5 -5 -6 -6 -6 -6 -6 -6 -6 -6 -6 -7 -7 -6 -6 -6 -6 -6 -6 -6 -6 -6 -6
7 7 6 6 5 5 4 3 2 2 1 0 -0 -1 -2 -3 -4 -5 -5 -6 -6 -6 -6 -6 -6 -6 -7 -7 -7 -7 -7 -6 -7 -7 -7 -7 -7 -7 -7 -6 -6 -6 -6
6 6 5 5 4 4 3 2 2 1 0 -0 -2 -3 -4 -4 -5 -6 -6 -7 -7 -7 -7 -7 -7 -7 -7 -7 -7 -7 -7 -7 -7 -8 -7 -7 -7 -7 -7 -7 -7 -7 -7
5 5 4 4 3 3 2 1 1 -0 -1 -2 -3 -4 -5 -5 -6 -7 -7 -7 -7 -7 -8 -8 -8 -8 -7 -7 -7 -7 -8 -8 -8 -7 -8 -6 -8 -7 -7 -7 -7 -7 -7
5 4 3 3 3 2 1 1 0 -0 -1 -2 -4 -4 -5 -6 -6 -7 -7 -7 -7 -8 -8 -8 -7 -7 -8 -8 -8 -8 -8 -9 -8 -8 -8 -8 -7 -7 -8 -7 -8 -7 -7
3 3 2 2 2 1 1 -0 -1 -1 -2 -3 -4 -5 -6 -6 -7 -7 -8 -8 -8 -8 -8 -8 -8 -8 -8 -8 -8 -9 -8 -9 -9 -8 -9 -9 -7 -8 -7 -6 -7 -7 -7
2 2 1 1 1 0 -0 -1 -1 -2 -3 -5 -6 -6 -7 -7 -7 -7 -8 -8 -8 -8 -8 -8 -8 -8 -9 -9 -8 -8 -9 -9 -9 -8 -9 -9 -8 -8 -8 -8 -5 -5 -4
1 1 1 0 -0 -1 -1 -2 -2 -3 -4 -6 -6 -6 -7 -7 -7 -7 -8 -8 -8 -9 -9 -8 -9 -9 -8 -8 -8 -9 -9 -9 -9 -8 -9 -10 -9 -9 -8 -6 -6 -6 -6
1 0 -0 -1 -1 -1 -2 -2 -3 -4 -7 -7 -7 -7 -7 -7 -7 -8 -8 -8 -9 -9 -9 -9 -9 -9 -9 -9 -9 -9 -9 -9 -9 -10 -9 -10 -10 -10 -10 -9 -7 -5 -4

GFSMA_850_temp_030.txt.gz
Temp
14 13 12 12 12 12 12 12 12 12 12 12 12 12 12 11 10 10 10 10 10 10 9 9 9 9 9 9 9 9 10 10 10 10 10 10 10 10 10 10 10 10 10
13 13 13 13 12 12 12 12 12 12 12 12 12 12 12 11 10 9 10 10 10 9 9 9 9 9 9 9 9 9 9 9 9 10 10 10 10 11 11 11 10 11 11
13 13 13 13 12 12 12 12 12 12 12 12 12 11 11 11 10 9 9 9 9 9 9 9 9 9 9 9 9 9 9 9 9 9 10 10 10 10 10 10 10 10 10
13 13 13 13 12 12 12 12 12 12 12 12 12 11 11 10 10 9 9 8 8 8 9 8 8 8 8 8 8 8 8 8 8 8 8 9 9 9 9 9 9 8 7
13 13 13 13 12 12 12 11 12 12 12 12 11 11 11 10 9 9 8 8 8 8 7 7 8 8 8 8 8 8 8 8 7 7 7 7 7 8 7 7 7 5 4
13 13 13 12 12 12 11 12 12 12 11 11 11 11 11 10 9 9 8 7 7 7 6 7 6 7 7 7 7 7 7 7 7 7 6 6 6 5 4 3 3 3 3
14 13 13 12 13 12 12 12 11 11 11 11 11 10 10 9 8 8 8 7 7 6 6 6 6 6 6 6 6 5 6 6 6 6 5 5 4 3 2 2 2 2 3
13 13 12 12 12 12 12 11 11 11 11 10 10 9 9 8 7 8 7 7 6 6 5 5 5 5 5 5 5 4 4 4 4 5 5 4 4 2 1 1 1 2 2
13 12 12 12 12 11 11 11 11 10 10 10 9 9 8 8 8 7 7 6 5 5 5 4 5 4 4 4 3 3 3 3 2 3 0 -0 -1 -0 0 1 1 1 2
12 12 12 12 11 11 11 11 10 10 10 9 9 8 7 7 7 6 6 6 5 4 4 4 4 4 3 3 2 2 1 1 -0 -1 -2 -2 -1 -1 -0 0 1 1 1
11 11 11 12 11 11 10 10 10 9 9 9 8 7 6 6 5 4 4 4 4 4 4 3 3 2 1 1 1 1 1 0 -0 -2 -2 -2 -2 -1 -1 -0 -0 -0 -0
10 11 11 11 11 11 10 10 10 9 8 8 7 7 6 5 4 3 2 3 3 4 3 3 3 2 1 -0 -1 -1 -1 -2 -3 -3 -3 -3 -2 -2 -2 -2 -2 -2 -2
10 11 11 10 10 10 9 9 9 8 8 7 7 6 5 4 3 2 1 1 1 2 2 3 1 0 -0 -0 -1 -1 -2 -3 -4 -4 -4 -3 -3 -3 -3 -3 -3 -3 -2
10 10 10 10 10 9 9 9 8 8 7 7 6 5 4 4 3 2 1 -0 -1 -1 0 0 0 -0 -1 -1 -2 -2 -3 -3 -5 -5 -4 -4 -4 -4 -4 -4 -4 -4 -3
9 9 10 10 9 9 8 8 8 7 6 6 5 4 4 3 2 1 0 -1 -2 -4 -3 -2 -3 -2 -2 -3 -3 -4 -4 -5 -5 -5 -5 -5 -5 -5 -4 -4 -4 -4 -4
9 9 9 9 8 8 8 7 7 6 5 5 4 4 3 2 1 0 -1 -1 -2 -4 -4 -3 -4 -4 -5 -5 -5 -5 -6 -6 -6 -6 -6 -6 -5 -5 -5 -5 -5 -5 -5
9 9 8 8 8 7 7 6 6 5 5 4 3 3 2 1 0 -0 -1 -2 -3 -4 -5 -5 -5 -6 -6 -6 -6 -6 -6 -6 -6 -6 -6 -6 -6 -5 -5 -5 -5 -5 -5
8 8 7 7 7 6 6 6 5 4 4 3 2 2 1 -0 -1 -2 -2 -3 -5 -5 -6 -6 -6 -7 -7 -7 -7 -6 -6 -6 -6 -7 -6 -6 -6 -6 -6 -6 -6 -5 -5
7 7 7 6 6 6 5 5 4 3 3 2 1 1 0 -1 -1 -2 -4 -5 -5 -6 -6 -7 -7 -7 -7 -7 -7 -7 -7 -7 -7 -7 -7 -7 -7 -7 -7 -7 -6 -6 -6
6 6 5 5 5 5 4 4 3 3 2 1 1 0 -1 -2 -3 -5 -5 -6 -6 -7 -7 -8 -8 -8 -8 -7 -7 -8 -8 -8 -8 -7 -7 -7 -7 -7 -7 -7 -7 -7 -7
5 5 5 5 4 4 3 3 3 2 1 1 0 -1 -2 -4 -5 -5 -6 -6 -7 -7 -7 -8 -8 -8 -8 -7 -8 -8 -8 -8 -8 -7 -8 -8 -7 -6 -6 -6 -6 -6 -8
5 5 5 4 3 3 3 2 2 1 0 0 -0 -1 -3 -4 -5 -6 -6 -7 -7 -7 -7 -8 -8 -8 -8 -8 -8 -9 -8 -8 -9 -8 -8 -8 -7 -6 -6 -6 -7 -8 -7
3 4 3 3 3 2 2 2 1 0 -0 -1 -2 -3 -5 -5 -6 -7 -7 -7 -7 -8 -8 -8 -8 -8 -9 -9 -9 -9 -8 -8 -8 -8 -9 -9 -7 -7 -7 -7 -7 -6 -8
3 3 3 2 2 2 1 0 -0 -1 -1 -2 -4 -5 -6 -6 -7 -7 -7 -7 -8 -8 -8 -9 -9 -9 -9 -9 -8 -8 -8 -9 -9 -8 -8 -10 -8 -9 -7 -8 -7 -6 -6
3 3 2 2 1 0 -0 -0 -1 -2 -2 -4 -5 -6 -6 -7 -7 -7 -7 -7 -8 -8 -8 -9 -9 -9 -9 -9 -9 -9 -9 -9 -10 -9 -8 -10 -9 -10 -9 -7 -7 -7 -7
2 2 1 0 -0 -1 -2 -2 -2 -3 -4 -5 -5 -6 -7 -8 -8 -7 -7 -8 -8 -8 -9 -9 -9 -8 -8 -8 -8 -9 -10 -10 -10 -10 -9 -10 -10 -11 -10 -9 -8 -7 -6

GFSMA_850_temp_033.txt.gz
Temp
13 13 13 12 13 12 12 12 12 12 12 12 13 13 12 11 12 11 11 10 10 10 10 9 9 9 9 9 9 9 9 9 10 10 10 10 10 10 11 11 10 10 10
14 13 13 13 12 12 12 12 12 12 12 13 13 13 12 11 11 11 10 10 9 9 9 9 9 9 9 9 9 9 9 9 9 9 10 10 10 10 10 10 10 10 10
13 13 13 13 12 12 12 12 12 12 12 13 12 12 12 11 10 10 10 9 9 9 9 9 9 9 9 9 9 8 8 9 9 9 9 9 9 9 9 9 9 9 9
13 13 13 13 13 12 12 12 12 12 12 12 12 12 12 11 10 10 9 9 9 9 8 9 8 8 9 8 8 8 8 8 8 8 8 8 8 8 8 8 8 8 7
13 13 13 13 13 12 12 12 11 12 12 12 12 12 11 10 10 9 9 9 8 8 8 8 8 8 8 8 8 7 7 7 7 7 7 7 7 7 7 7 6 5 4
13 13 13 13 13 12 12 12 12 12 12 12 12 11 11 10 10 9 8 8 8 8 8 7 7 7 7 7 6 6 6 6 6 7 6 5 5 4 3 3 3 3 3
14 13 13 13 12 12 12 12 12 12 11 11 11 11 11 10 9 9 9 8 7 7 7 7 6 6 6 6 5 5 5 5 5 5 5 4 1 1 1 1 2 2 2
14 14 13 13 12 12 12 12 12 12 11 11 11 11 10 9 9 8 8 7 7 6 6 5 5 5 5 5 5 4 4 4 4 3 3 1 0 0 0 1 1 2 2
13 14 13 13 12 12 12 12 12 11 11 11 10 10 10 9 8 8 7 6 6 6 5 5 5 4 4 4 3 3 3 2 2 0 -1 -0 -0 -0 0 1 1 2 2
14 13 13 12 12 11 11 12 11 11 11 11 10 10 9 9 8 8 7 7 6 5 5 5 4 4 3 3 2 2 1 1 0 -1 -1 -1 -1 -0 -0 0 1 1 1
13 13 12 12 11 11 11 11 11 11 10 10 10 9 8 8 7 7 7 7 6 5 5 5 4 3 3 2 1 1 0 -0 -1 -1 -1 -1 -1 -1 -1 -0 -0 -0 -0
13 13 11 11 11 11 11 11 10 10 10 9 9 8 8 7 6 5 4 5 4 5 5 4 4 3 2 1 -0 -1 -1 -2 -3 -2 -2 -2 -2 -2 -1 -1 -1 -1 -1
12 12 11 10 11 10 11 10 10 10 9 9 8 7 7 6 5 4 3 3 2 3 3 4 2 1 0 -0 -1 -1 -2 -2 -2 -4 -3 -3 -3 -2 -2 -3 -2 -2 -2
13 11 10 9 9 9 10 9 9 9 8 8 7 7 6 5 4 3 2 1 0 1 1 2 1 0 -1 -2 -2 -2 -2 -2 -3 -4 -5 -4 -4 -4 -4 -4 -3 -3 -3
11 11 10 9 9 9 9 9 9 8 7 7 7 6 5 4 3 3 2 0 -1 -3 -2 -1 -2 -2 -2 -3 -3 -4 -5 -5 -5 -6 -6 -5 -5 -5 -5 -4 -4 -4 -4
10 10 9 8 8 7 8 8 8 7 7 6 6 5 4 3 2 1 1 -0 -1 -3 -4 -3 -2 -3 -4 -4 -4 -6 -6 -6 -6 -5 -6 -6 -6 -5 -5 -5 -5 -4 -4
9 9 8 7 6 7 8 7 7 6 6 5 5 4 3 2 1 1 -0 -1 -2 -3 -4 -4 -4 -5 -5 -5 -6 -6 -6 -6 -6 -6 -7 -6 -6 -6 -6 -5 -5 -5 -5
8 7 7 6 6 7 6 6 6 6 5 4 4 3 2 1 0 -1 -1 -2 -2 -3 -5 -5 -6 -6 -6 -7 -7 -7 -7 -6 -7 -6 -7 -7 -7 -7 -7 -6 -6 -6 -6
7 6 5 6 5 6 6 5 5 4 4 3 2 2 1 -0 -1 -2 -2 -3 -4 -5 -5 -6 -7 -7 -7 -7 -7 -7 -8 -7 -7 -7 -8 -7 -7 -7 -7 -7 -7 -7 -6
5 4 3 4 4 5 5 4 4 3 2 1 1 1 -0 -1 -2 -3 -4 -5 -5 -6 -7 -7 -7 -8 -8 -8 -8 -8 -8 -8 -8 -7 -7 -7 -6 -6 -7 -6 -6 -6 -6
3 2 3 2 3 4 3 4 3 1 2 1 1 -0 -1 -2 -3 -4 -5 -6 -6 -7 -7 -7 -8 -8 -9 -9 -8 -8 -9 -9 -8 -7 -7 -7 -7 -7 -6 -6 -6 -6 -6
2 3 2 3 3 3 3 3 2 1 0 0 -0 -0 -1 -2 -4 -4 -6 -7 -7 -7 -7 -7 -8 -8 -8 -9 -9 -9 -9 -8 -9 -8 -8 -8 -8 -7 -6 -6 -6 -7 -8
2 2 2 2 2 2 1 1 1 -0 -0 -0 -1 -1 -2 -3 -5 -6 -7 -7 -7 -7 -7 -8 -8 -8 -9 -9 -9 -9 -8 -8 -9 -8 -8 -9 -7 -7 -6 -7 -7 -6 -6
2 1 1 2 1 0 1 0 -0 -1 -1 -1 -2 -2 -3 -5 -6 -7 -7 -7 -7 -8 -8 -8 -9 -9 -9 -9 -8 -8 -9 -9 -9 -8 -8 -10 -8 -9 -8 -8 -7 -6 -6
1 -0 0 -0 1 -0 -1 -1 -1 -1 -2 -2 -3 -4 -5 -6 -7 -8 -7 -8 -8 -8 -8 -8 -8 -9 -9 -9 -9 -10 -9 -10 -9 -9 -8 -10 -8 -9 -10 -7 -7 -7 -7
0 0 0 0 -1 -1 -2 -1 -1 -1 -2 -3 -5 -5 -6 -7 -8 -8 -8 -8 -8 -8 -9 -9 -9 -8 -8 -8 -8 -8 -9 -10 -10 -11 -8 -10 -10 -10 -10 -10 -9 -7 -6

GFSMA_850_temp_036.txt.gz
Temp
15 14 13 13 13 13 13 13 12 12 12 12 12 12 12 12 12 11 11 10 10 10 9 9 9 9 9 9 9 9 9 9 9 10 10 10 10 10 10 10 10 10 10
15 14 13 13 13 13 12 12 12 12 12 12 12 12 12 12 11 11 10 10 10 9 9 9 9 9 8 8 9 9 9 9 9 9 9 9 10 9 10 10 9 10 10
15 14 13 13 13 12 12 12 12 12 12 12 12 12 12 11 11 10 10 10 10 9 9 9 8 8 8 8 8 8 8 9 9 8 8 8 9 9 9 8 8 8 8
14 14 13 13 12 12 12 12 12 11 12 12 12 12 11 11 11 10 10 9 9 9 9 8 8 8 8 8 8 8 7 8 8 8 8 8 8 8 7 7 5 5 5
14 13 13 13 12 12 12 12 12 11 12 12 12 12 11 11 11 10 10 9 9 8 8 8 8 7 7 7 7 7 7 6 7 7 7 7 7 6 6 6 5 4 3
14 13 13 13 12 12 12 12 12 11 12 12 12 12 11 11 10 10 9 9 8 8 7 7 7 7 7 6 6 6 6 6 6 6 6 5 4 3 3 2 2 2 3
14 13 13 13 12 12 13 12 11 11 12 12 11 11 11 10 10 9 9 8 8 7 7 6 6 6 6 5 5 5 5 5 4 4 3 3 2 1 1 1 2 2 2
14 14 13 13 12 12 12 12 11 12 12 12 11 11 10 9 9 9 8 8 7 7 6 6 6 5 5 5 5 4 4 4 3 3 2 1 1 1 1 1 2 2 2
14 15 14 13 13 13 12 12 12 12 12 12 11 11 11 10 9 9 8 7 7 6 6 5 5 5 4 4 4 4 4 3 3 1 0 0 0 0 1 1 1 2 2
16 15 13 13 13 13 12 12 12 12 11 11 11 11 10 10 9 8 7 7 6 6 5 5 5 4 4 4 4 3 3 2 1 -0 -0 -0 -0 0 0 1 1 1 1
15 15 14 13 13 13 12 11 11 11 11 11 11 10 10 9 9 8 8 7 6 6 5 5 5 4 4 3 3 3 2 1 -0 -1 -1 -1 -1 -1 -0 -0 0 1 1
15 15 14 13 13 13 12 11 11 11 11 10 10 9 9 9 8 8 7 6 6 6 6 5 4 3 3 2 2 1 0 -0 -0 -1 -3 -2 -2 -2 -1 -1 -1 -1 -1
15 15 14 13 11 13 11 11 10 10 10 10 9 9 8 7 7 6 6 5 4 4 4 4 3 2 2 1 0 -1 -1 -1 -1 -2 -3 -3 -3 -3 -3 -2 -2 -2 -2
16 15 14 11 10 12 10 10 9 9 9 9 9 8 7 7 6 5 4 3 2 2 2 3 2 1 -0 -1 -1 -1 -1 -1 -2 -3 -4 -5 -5 -4 -4 -4 -3 -3 -3
15 14 12 10 10 10 9 8 8 8 7 8 8 8 6 6 5 4 3 2 1 -1 -1 0 0 -0 -1 -1 -2 -2 -3 -3 -4 -4 -5 -6 -6 -5 -5 -5 -4 -4 -4
14 12 10 10 9 9 8 7 7 6 6 7 7 6 5 4 4 3 2 1 0 -1 -3 -2 -1 -2 -2 -2 -3 -4 -5 -5 -5 -5 -5 -6 -6 -6 -5 -5 -5 -5 -4
12 11 10 9 8 8 5 5 5 4 5 6 5 5 4 4 3 2 1 0 -1 -2 -3 -3 -3 -3 -4 -4 -3 -4 -5 -5 -5 -5 -5 -7 -7 -6 -6 -6 -6 -5 -5
10 10 8 7 6 5 4 4 4 4 4 4 4 3 3 2 2 1 0 -1 -1 -2 -3 -4 -5 -5 -5 -5 -6 -6 -6 -5 -6 -5 -6 -7 -7 -7 -7 -7 -6 -6 -5
9 7 7 6 5 4 3 1 3 3 3 3 2 2 1 1 1 1 -0 -1 -2 -3 -4 -5 -6 -6 -7 -6 -7 -7 -7 -6 -6 -6 -6 -6 -6 -6 -7 -7 -7 -6 -7
7 6 4 4 3 2 1 2 2 3 3 2 1 1 -0 0 -0 -1 -2 -3 -4 -5 -6 -6 -7 -7 -7 -7 -7 -8 -8 -7 -7 -6 -6 -6 -6 -7 -6 -7 -6 -6 -6
4 3 2 2 1 1 0 1 2 2 2 1 0 -0 -0 -1 -1 -2 -4 -5 -6 -6 -6 -7 -7 -7 -7 -8 -8 -8 -9 -8 -8 -7 -6 -7 -7 -7 -6 -6 -6 -6 -5
2 2 1 1 1 1 -0 1 1 1 0 -1 0 -1 -1 -2 -2 -3 -5 -6 -6 -7 -7 -7 -7 -8 -8 -8 -8 -9 -9 -8 -9 -7 -7 -8 -7 -7 -6 -6 -6 -6 -6
1 1 1 1 -0 0 0 -0 -0 -0 -0 -1 -1 -1 -2 -2 -3 -5 -5 -6 -7 -7 -7 -7 -8 -8 -8 -8 -9 -9 -8 -9 -9 -8 -8 -8 -7 -6 -6 -6 -6 -6 -6
1 1 0 1 0 -0 -1 -1 0 -0 -1 -1 -2 -2 -3 -4 -5 -5 -6 -7 -7 -8 -8 -8 -8 -8 -9 -9 -8 -8 -9 -9 -9 -8 -7 -10 -7 -7 -7 -7 -6 -5 -6
0 0 -0 -0 -1 -1 -1 -0 -1 -2 -2 -3 -3 -4 -5 -6 -5 -7 -8 -8 -8 -8 -8 -8 -9 -9 -9 -9 -9 -9 -9 -9 -9 -8 -7 -10 -8 -9 -8 -6 -6 -6 -6
0 -0 -2 -1 -1 -2 -3 -3 -3 -2 -3 -4 -4 -5 -5 -6 -7 -8 -8 -8 -9 -8 -9 -9 -9 -9 -8 -8 -8 -8 -9 -10 -10 -11 -8 -10 -9 -9 -10 -9 -8 -7 -6

GFSMA_850_temp_039.txt.gz
Temp
15 14 14 13 13 13 13 12 12 12 12 12 12 12 13 13 12 12 11 10 10 10 10 10 9 9 9 9 9 9 9 9 10 10 10 10 10 10 10 10 10 10 10
14 14 13 13 13 13 12 12 12 12 12 12 12 12 12 12 12 11 11 10 10 9 9 9 9 9 9 9 9 9 9 9 9 9 9 9 9 9 9 9 10 10 10
15 14 13 13 13 12 12 12 12 12 12 11 12 12 12 12 11 11 10 10 10 9 9 9 9 8 8 8 8 8 8 9 9 9 8 8 9 9 8 8 8 8 8
15 14 13 13 12 12 12 12 12 11 11 11 12 12 12 12 11 11 10 10 9 9 8 8 8 8 8 8 7 7 7 7 8 8 8 8 8 8 8 7 7 6 5
15 14 13 13 12 12 12 12 12 11 11 11 12 12 11 11 11 10 10 9 9 9 8 8 8 7 7 7 7 7 7 6 6 7 7 7 7 7 6 6 5 4 3
14 14 13 13 12 12 12 12 11 11 11 11 11 11 11 11 11 10 9 9 8 8 8 7 7 7 7 6 6 6 6 6 6 6 5 5 5 4 3 2 2 2 3
14 14 14 13 13 12 12 12 12 11 11 11 11 11 11 10 10 10 9 9 8 8 7 7 7 7 7 6 6 6 5 5 5 4 4 2 2 2 1 2 2 2 2
16 15 14 13 13 13 12 12 12 12 11 11 11 11 11 10 10 10 9 9 8 7 7 6 6 6 6 6 6 5 5 5 4 3 2 1 1 1 1 1 2 2 2
16 16 16 14 13 13 12 12 12 12 11 12 11 11 11 11 10 9 9 8 8 7 7 6 5 5 5 5 5 5 4 4 3 2 1 1 1 1 1 1 2 2 2
16 16 15 15 13 13 13 12 12 12 11 11 11 11 11 11 10 9 9 8 7 7 6 5 5 5 5 5 5 4 4 3 2 0 -0 -0 0 0 1 1 1 1 1
16 16 16 16 14 13 12 12 12 12 12 11 11 11 11 10 10 9 9 8 7 6 6 5 5 5 5 4 4 4 3 3 2 1 -0 -1 -1 -1 -0 0 0 0 1
16 15 15 15 14 13 12 11 12 12 11 11 11 11 10 10 10 9 8 7 7 6 5 5 5 4 4 4 3 2 2 1 1 1 0 -2 -2 -2 -1 -1 -1 -1 -0
16 15 15 15 15 14 13 11 11 11 11 10 10 10 10 9 9 8 7 6 6 6 6 5 4 4 3 3 2 1 1 1 1 1 0 -2 -3 -3 -3 -3 -3 -2 -1
16 16 16 15 15 14 12 11 10 10 9 8 9 8 8 8 8 7 7 6 5 4 4 5 4 3 2 1 -0 -1 -0 -0 -0 -0 -0 -1 -3 -4 -5 -4 -4 -3 -3
16 16 15 15 14 13 10 10 9 8 7 8 8 7 7 7 6 5 5 4 3 2 2 3 2 2 1 0 -0 -1 -1 -2 -3 -2 -2 -2 -4 -5 -5 -5 -5 -4 -4
15 15 15 14 13 10 9 9 8 7 6 6 6 6 5 6 5 4 4 3 2 1 -1 -0 0 0 -1 -1 -1 -2 -3 -4 -4 -4 -4 -4 -6 -6 -6 -5 -5 -5 -4
14 14 13 12 10 9 9 8 6 6 5 4 4 4 2 4 4 3 3 2 1 0 -1 -2 -2 -2 -2 -2 -2 -3 -3 -4 -4 -4 -4 -4 -6 -7 -6 -6 -6 -5 -5
11 10 10 9 9 8 7 5 5 4 4 4 5 3 2 3 3 2 1 0 -0 -1 -2 -3 -3 -3 -4 -4 -5 -5 -5 -5 -5 -4 -4 -4 -7 -7 -7 -7 -6 -6 -6
9 9 9 9 8 5 5 4 3 3 3 2 1 0 1 2 1 -1 -2 -1 -1 -2 -3 -4 -4 -5 -6 -6 -6 -6 -6 -6 -6 -5 -5 -5 -6 -6 -7 -7 -7 -7 -6
8 8 7 6 4 4 3 3 2 2 1 -1 -2 0 -0 -0 -1 -3 -1 -2 -2 -3 -4 -5 -6 -6 -7 -7 -7 -7 -7 -7 -7 -6 -5 -5 -6 -6 -7 -6 -6 -6 -6
7 7 6 3 3 3 3 2 1 0 -0 -0 0 -0 -0 -2 -1 -1 -2 -3 -4 -5 -6 -6 -7 -7 -7 -7 -8 -8 -8 -8 -8 -7 -5 -6 -7 -7 -5 -5 -5 -5 -5
4 3 2 2 2 2 1 1 0 0 -0 -1 -0 -2 -1 -2 -2 -2 -3 -4 -5 -6 -7 -7 -7 -8 -8 -8 -8 -8 -9 -8 -9 -8 -7 -7 -7 -6 -6 -6 -5 -5 -5
1 2 1 1 1 0 0 -0 -0 -1 -2 -2 -2 -2 -2 -2 -3 -4 -4 -5 -6 -6 -7 -7 -8 -8 -8 -8 -9 -9 -8 -9 -9 -9 -8 -8 -7 -6 -6 -6 -5 -5 -5
1 1 1 0 -0 0 -0 -1 -1 -2 -1 -2 -2 -2 -3 -4 -4 -5 -6 -7 -7 -8 -8 -8 -8 -8 -9 -9 -9 -8 -9 -9 -9 -8 -8 -9 -7 -7 -7 -6 -5 -5 -5
-0 -0 -0 -1 -0 -0 -1 -1 -2 -2 -3 -4 -3 -4 -5 -5 -6 -6 -7 -8 -8 -8 -8 -8 -8 -9 -9 -9 -9 -9 -9 -9 -9 -8 -7 -9 -7 -8 -8 -6 -6 -6 -6
-0 -0 -1 -1 -3 -2 -2 -2 -3 -4 -3 -3 -4 -5 -6 -6 -7 -8 -8 -8 -9 -9 -9 -9 -9 -8 -8 -8 -8 -8 -9 -10 -10 -10 -8 -9 -9 -10 -10 -9 -8 -7 -6

GFSMA_850_temp_042.txt.gz
Temp
14 14 14 14 14 13 13 13 12 12 12 12 12 12 12 12 12 11 11 10 10 9 9 9 9 9 9 9 9 10 10 10 10 10 10 10 10 10 10 10 10 10 11
14 14 14 14 13 13 13 12 12 12 12 12 12 12 12 12 12 11 11 10 10 9 9 9 9 9 9 9 9 9 9 9 9 9 9 9 9 10 10 10 10 10 10
14 14 14 14 13 13 13 12 12 12 12 11 11 12 12 12 11 11 10 10 10 9 9 9 9 9 8 8 8 8 8 9 9 9 9 9 9 9 9 9 9 9 9
14 14 14 13 13 13 12 12 12 12 11 11 11 11 12 11 11 11 10 10 9 9 9 8 8 8 8 8 8 8 8 7 8 8 8 8 8 8 8 7 7 6 6
15 14 14 13 12 12 12 12 12 12 11 11 11 11 12 11 11 11 10 9 9 9 8 8 8 8 8 8 7 7 7 7 7 7 8 8 7 7 6 4 3 3 3
15 15 14 13 13 12 12 12 12 11 11 11 11 11 11 11 11 11 10 9 9 8 8 7 7 7 7 7 7 7 7 7 7 7 6 6 6 6 4 2 2 2 3
15 14 14 14 13 13 13 12 12 11 11 11 10 11 11 11 10 10 10 9 9 9 8 8 8 8 7 7 7 7 6 6 6 5 5 4 4 3 2 2 2 2 3
15 15 15 14 13 13 12 12 12 12 11 11 11 11 10 10 10 10 10 9 9 9 8 8 7 7 7 7 6 6 6 5 5 5 4 3 1 1 2 2 2 2 3
16 16 15 15 13 13 13 13 12 12 12 11 11 11 10 11 10 10 10 9 9 8 8 7 7 7 6 6 6 5 5 5 5 4 3 1 1 1 1 2 2 2 2
16 16 15 15 15 13 13 13 12 12 11 11 11 11 11 11 11 10 9 9 8 8 8 7 7 7 6 6 5 5 5 4 4 3 2 1 0 1 1 1 1 2 2
16 16 15 15 15 15 13 12 12 12 11 11 11 12 11 11 10 10 10 10 8 8 7 7 7 6 6 5 5 4 4 3 3 3 2 1 -0 -0 -0 0 0 1 1
16 16 15 15 15 15 14 13 12 11 11 11 11 11 11 11 11 10 9 9 9 8 7 6 6 5 5 4 3 3 3 2 2 2 2 2 -1 -1 -1 -1 -1 -1 -1
16 16 15 15 15 15 15 14 12 11 10 10 10 10 10 9 9 10 9 8 8 7 7 6 5 5 4 4 3 2 2 2 2 2 2 1 -0 -2 -3 -3 -3 -2 -2
16 16 16 15 15 15 14 14 11 10 10 9 9 8 8 8 8 7 7 7 6 6 6 5 5 4 3 2 1 0 0 0 0 1 1 1 1 0 -2 -4 -4 -3 -3
15 15 15 15 15 14 14 14 12 10 9 8 8 7 7 6 6 7 6 5 5 4 4 5 3 3 2 1 0 -0 -0 -1 -1 -2 -2 -2 -1 -2 -4 -5 -5 -4 -4
14 14 14 14 14 14 13 11 10 9 8 7 7 6 4 5 4 4 3 2 3 2 1 2 2 1 0 0 -0 -1 -2 -2 -2 -3 -3 -3 -3 -5 -6 -6 -5 -5 -4
13 13 12 12 12 11 10 10 9 8 7 6 5 4 3 3 3 2 1 1 0 0 -1 0 0 0 -1 -1 -2 -2 -2 -3 -3 -3 -3 -3 -4 -6 -6 -6 -6 -5 -5
11 11 10 10 9 9 9 8 7 6 6 5 4 3 3 3 3 1 -1 -0 0 -2 -3 -2 -1 -2 -2 -3 -3 -3 -4 -5 -5 -4 -4 -3 -6 -7 -7 -7 -7 -6 -6
8 8 8 9 9 8 7 6 6 5 3 3 2 2 2 1 1 1 -0 -1 -1 -4 -3 -3 -3 -4 -4 -4 -5 -5 -6 -6 -5 -5 -5 -5 -6 -6 -5 -7 -7 -6 -6
8 8 8 7 7 6 5 4 3 3 2 2 2 1 1 1 -0 -1 -1 -2 -2 -3 -3 -4 -4 -5 -6 -6 -6 -7 -7 -7 -7 -7 -5 -6 -6 -6 -6 -6 -6 -5 -5
6 6 6 5 5 4 3 2 2 2 2 1 0 0 -0 -1 -0 -2 -1 -2 -3 -5 -5 -5 -6 -6 -7 -7 -7 -8 -8 -8 -8 -7 -5 -6 -6 -6 -5 -5 -5 -5 -5
4 3 3 3 2 2 1 1 1 1 0 -0 -1 -1 -1 -3 -1 -2 -3 -4 -4 -5 -5 -6 -7 -7 -7 -8 -8 -9 -9 -9 -9 -8 -7 -6 -7 -6 -5 -6 -5 -5 -5
1 1 1 1 0 1 1 0 -0 -0 -0 -1 -1 -3 -2 -3 -2 -3 -4 -4 -4 -5 -6 -8 -8 -8 -8 -9 -9 -9 -9 -9 -9 -9 -8 -7 -8 -6 -6 -6 -6 -6 -6
1 1 0 -0 -0 -0 -1 -0 -1 -1 -1 -2 -4 -3 -3 -3 -3 -4 -4 -5 -6 -6 -7 -7 -8 -8 -9 -9 -9 -9 -9 -9 -9 -8 -8 -9 -7 -7 -7 -6 -6 -6 -6
-1 -1 -1 -1 -1 -1 -1 -0 -1 -3 -3 -3 -3 -3 -4 -4 -5 -5 -6 -7 -8 -8 -8 -8 -8 -8 -8 -8 -9 -9 -8 -9 -9 -8 -7 -9 -7 -8 -8 -7 -6 -6 -6
-1 -0 -0 -1 -1 -1 -0 -1 -4 -3 -3 -4 -4 -5 -6 -6 -6 -8 -8 -8 -8 -8 -8 -8 -7 -8 -8 -8 -8 -8 -8 -9 -9 -10 -9 -10 -9 -10 -11 -9 -8 -7 -6

GFSMA_850_temp_045.txt.gz
Temp
15 14 14 14 14 13 13 13 13 13 12 12 12 12 12 12 12 12 11 11 10 10 10 10 10 10 10 10 10 10 10 10 10 10 10 11 10 10 10 10 10 10 10
15 14 14 14 13 13 13 13 12 12 12 12 12 12 12 12 12 12 11 11 10 10 9 9 9 9 9 9 9 10 10 10 10 10 10 10 10 10 10 10 10 10 10
15 15 14 14 13 13 13 13 12 12 12 12 12 11 12 12 12 11 11 10 10 10 9 9 9 9 9 9 9 9 9 9 10 10 10 9 9 9 9 9 9 9 9
15 15 15 14 13 13 13 12 12 12 12 12 11 11 11 12 11 11 11 10 10 9 9 9 9 9 9 9 9 8 8 8 9 9 8 9 9 9 8 8 8 8 9
15 14 14 14 13 13 12 12 12 12 12 11 11 11 11 11 11 11 10 10 10 9 9 9 9 9 9 8 8 8 8 8 7 8 8 8 8 8 8 7 6 5 5
15 14 14 14 13 13 12 12 12 11 12 11 11 11 11 11 11 11 10 10 10 9 9 9 8 8 8 8 8 8 7 7 7 7 6 6 6 6 6 5 3 3 3
16 15 15 14 13 13 13 12 12 11 11 11 11 10 10 11 11 11 10 10 10 9 9 9 9 9 8 8 8 7 7 7 6 6 6 5 5 4 3 2 3 3 3
16 16 15 15 14 13 13 12 12 12 11 11 10 10 10 10 11 11 10 10 10 9 9 9 9 8 8 8 7 7 7 6 6 6 5 4 3 2 2 2 2 3 3
17 16 16 16 15 14 13 13 13 12 12 11 11 11 10 11 11 11 10 10 9 9 9 9 9 8 7 7 7 6 6 6 5 5 4 3 2 1 2 2 2 3 3
17 17 16 16 16 15 13 13 13 12 12 11 11 11 11 12 12 11 11 10 9 9 9 8 8 8 7 6 6 6 6 5 5 4 4 4 2 1 1 1 2 2 2
17 16 16 16 16 15 15 14 13 12 12 11 11 11 11 10 10 11 11 11 10 9 8 8 8 7 7 6 5 5 5 4 4 3 3 3 3 1 0 1 1 1 1
16 16 16 15 15 15 15 15 14 12 12 11 10 10 10 10 11 10 9 10 10 9 8 7 7 6 6 5 5 5 4 3 3 3 3 3 2 0 -1 -1 -1 -0 -0
15 16 16 15 15 15 15 14 14 13 12 11 10 10 10 9 9 10 9 9 8 8 7 6 6 5 5 4 4 3 3 2 2 2 2 2 2 2 2 1 -2 -2 -2
14 15 15 15 15 15 14 14 14 14 12 10 10 10 9 8 8 8 9 7 7 5 6 6 6 5 4 4 3 2 2 1 1 1 1 1 2 1 1 0 -2 -3 -3
14 14 14 14 15 15 14 14 14 14 13 10 9 9 8 8 7 7 7 7 4 5 5 5 4 4 2 1 1 1 1 0 -0 -0 0 0 0 -1 -1 -2 -4 -5 -4
14 13 13 12 13 13 14 13 12 11 10 9 9 8 7 7 6 6 5 5 4 3 3 2 1 0 -1 -1 -1 -1 -0 -1 -2 -2 -2 -2 -2 -3 -4 -6 -6 -5 -5
13 12 11 11 11 11 10 10 10 10 9 9 8 7 6 5 5 4 3 1 2 2 2 1 1 0 -0 -4 -1 -1 -2 -2 -3 -3 -3 -2 -3 -3 -6 -6 -6 -6 -5
12 11 10 10 9 9 9 9 9 8 8 7 5 5 4 4 3 2 1 1 1 1 0 0 -1 -1 -4 -1 -1 -2 -2 -3 -4 -4 -4 -3 -3 -4 -5 -5 -7 -6 -6
9 8 9 8 8 8 8 8 7 7 6 4 3 3 2 2 2 1 1 0 0 -1 -2 -1 -3 -2 -2 -2 -3 -4 -4 -4 -4 -4 -3 -4 -5 -5 -5 -5 -7 -7 -7
7 7 8 8 7 7 7 7 6 4 3 2 1 1 1 1 1 0 -0 -1 -2 -1 -3 -3 -3 -4 -4 -4 -5 -5 -5 -6 -6 -5 -5 -5 -5 -5 -5 -5 -5 -5 -5
6 6 6 5 5 4 4 3 2 2 2 1 1 1 0 -0 -0 -1 -1 -1 -3 -2 -2 -5 -5 -5 -5 -6 -6 -8 -8 -8 -8 -6 -6 -5 -5 -5 -4 -5 -5 -5 -5
4 3 3 2 1 1 1 1 1 1 1 1 1 -0 -1 -1 -1 -2 -2 -3 -4 -4 -5 -6 -6 -6 -6 -7 -8 -9 -9 -9 -9 -8 -7 -8 -8 -6 -5 -5 -5 -5 -5
1 1 1 0 0 0 0 0 -0 0 0 -1 -1 -1 -1 -3 -2 -3 -4 -4 -4 -5 -6 -7 -7 -7 -8 -8 -8 -8 -9 -9 -10 -8 -8 -8 -6 -6 -6 -5 -5 -5 -5
0 0 -0 0 -0 -1 -1 -1 -0 -0 -1 -1 -1 -2 -3 -3 -4 -4 -4 -5 -5 -5 -6 -7 -8 -8 -8 -8 -9 -9 -9 -9 -9 -7 -8 -9 -6 -7 -7 -6 -5 -5 -5
-1 -1 -1 -1 -0 -1 -1 -1 -1 -2 -3 -3 -3 -3 -4 -4 -4 -5 -6 -7 -7 -7 -7 -7 -7 -8 -8 -8 -8 -9 -8 -9 -8 -7 -7 -9 -7 -9 -8 -6 -6 -6 -6
-1 -1 -1 -1 -1 -1 -2 -2 -2 -3 -3 -3 -4 -4 -5 -4 -5 -6 -8 -8 -8 -8 -8 -7 -7 -7 -7 -7 -8 -8 -8 -8 -9 -9 -9 -9 -9 -10 -10 -8 -7 -7 -6

GFSMA_850_temp_048.txt.gz
Temp
12 12 12 12 11 12 12 11 13 13 13 13 12 12 12 12 12 10 10 11 10 10 10 10 10 10 10 10 10 10 11 11 11 11 11 11 11 11 10 11 11 11 11
14 13 12 12 12 11 11 12 13 13 13 12 12 12 12 12 12 11 9 9 10 10 10 9 10 10 10 10 10 10 10 10 10 10 10 10 10 10 10 10 10 10 10
14 14 13 12 12 11 12 13 13 13 13 12 12 12 12 12 12 11 11 8 9 10 9 9 9 9 10 10 10 10 9 9 10 10 10 10 9 9 9 9 9 9 9
15 14 13 12 12 11 12 13 13 13 12 12 12 12 11 11 12 11 11 11 9 8 10 9 9 9 9 9 9 9 9 9 9 9 9 9 9 9 9 9 9 8 8
15 14 14 12 11 11 12 13 13 12 12 12 12 12 11 11 11 11 11 11 10 10 9 10 9 9 9 9 9 8 8 8 8 8 8 8 8 8 8 8 7 6 5
17 15 14 13 12 12 12 13 13 12 12 12 11 11 11 11 11 11 11 11 10 10 10 10 9 9 9 8 8 8 8 7 7 7 7 7 7 7 7 6 5 3 3
17 16 16 14 14 13 11 13 13 12 12 11 11 11 11 11 11 11 11 11 10 10 10 9 9 9 9 8 8 8 8 7 7 7 7 7 7 6 5 4 3 3 3
17 16 16 16 15 14 12 12 13 12 11 11 11 9 9 9 10 11 11 11 10 10 10 9 9 8 8 8 8 7 7 7 7 7 6 6 6 4 3 3 3 3 3
17 17 17 16 16 15 14 14 13 13 12 12 11 11 10 11 10 11 11 11 10 10 10 9 9 9 8 8 7 7 7 7 6 6 6 6 5 5 2 2 3 3 3
17 17 17 17 16 16 15 15 14 13 12 12 11 11 11 12 11 10 10 11 10 10 10 9 9 8 7 7 7 7 7 6 6 6 6 6 5 4 3 1 2 2 2
16 17 17 16 16 16 16 16 15 14 13 12 12 12 11 11 10 11 10 11 9 10 9 9 8 8 7 7 6 6 6 6 5 5 4 4 4 4 1 1 1 1 2
14 15 15 15 15 16 15 16 15 14 13 12 12 11 12 11 11 10 10 10 10 10 9 9 8 7 8 7 6 5 5 5 4 3 3 3 3 2 2 1 1 -0 -0
14 15 15 14 14 15 15 15 15 15 13 11 11 11 11 11 10 10 10 9 9 10 9 8 7 6 5 5 4 4 4 3 3 3 3 3 3 3 3 3 1 0 -1
11 13 14 14 14 14 14 13 14 14 14 13 11 11 11 11 10 9 9 8 8 8 8 7 6 6 4 3 3 2 1 2 1 2 2 2 2 2 2 3 2 2 1
12 13 12 13 12 13 13 13 13 14 14 13 11 11 11 10 9 8 8 8 7 7 6 5 4 3 3 2 2 0 1 0 -0 0 1 1 1 1 1 1 1 1 0
12 12 13 12 12 12 11 10 10 10 10 10 10 10 9 9 8 7 6 6 7 6 5 4 3 2 0 1 1 1 1 0 -1 -1 -0 0 -0 -1 -0 -0 -0 -2 -4
12 13 12 11 10 11 10 10 10 9 9 9 9 9 8 7 5 5 4 4 4 4 3 2 1 1 0 -1 -0 -0 -0 -2 -2 -2 -1 -1 -1 -1 -1 -1 -3 -5 -5
12 11 12 11 8 9 9 9 9 9 9 8 8 7 7 5 3 2 1 2 3 2 1 0 0 -0 -1 -1 -1 -1 -2 -2 -2 -2 -2 -2 -2 -2 -3 -3 -5 -6 -6
7 10 8 11 8 7 7 7 8 8 7 7 6 5 4 2 1 2 2 1 1 1 -0 -1 -1 -1 -1 -2 -2 -3 -3 -3 -3 -3 -3 -2 -3 -3 -3 -4 -4 -6 -6
6 7 6 8 8 7 7 7 7 6 5 4 2 1 1 1 1 1 0 1 -0 -1 -1 -2 -2 -3 -3 -3 -3 -4 -6 -6 -6 -6 -5 -4 -4 -3 -3 -3 -4 -4 -4
5 6 7 6 7 4 5 5 4 3 2 1 1 1 1 1 0 0 -0 -1 -1 -2 -3 -3 -4 -6 -6 -6 -6 -6 -7 -7 -7 -6 -6 -7 -7 -7 -7 -5 -4 -3 -4
3 3 3 3 2 1 0 1 1 1 1 1 1 0 0 -0 -1 -2 -2 -3 -3 -3 -3 -5 -6 -6 -6 -6 -7 -7 -8 -8 -8 -7 -8 -8 -7 -7 -5 -4 -4 -4 -4
0 -1 -0 -0 -0 -1 -0 -0 -0 0 0 -0 -0 -1 -2 -2 -2 -3 -3 -3 -3 -4 -4 -6 -7 -6 -7 -7 -8 -8 -8 -8 -9 -8 -8 -8 -6 -7 -6 -6 -5 -4 -5
-1 -1 -1 -1 -0 -1 -1 -0 -1 -1 -1 -2 -1 -2 -2 -3 -3 -3 -3 -3 -4 -5 -6 -7 -8 -8 -8 -8 -8 -8 -9 -9 -8 -8 -8 -8 -7 -8 -7 -6 -4 -4 -4
-1 -1 -1 -1 -1 -1 -2 -1 -1 -2 -2 -2 -2 -3 -3 -3 -4 -4 -6 -6 -7 -8 -7 -7 -7 -7 -7 -7 -7 -8 -8 -9 -9 -8 -8 -8 -7 -8 -7 -5 -4 -4 -4
-1 -1 -2 -1 -2 -1 -2 -1 -2 -2 -3 -3 -3 -3 -4 -5 -5 -7 -8 -8 -8 -8 -8 -7 -8 -7 -7 -7 -7 -7 -8 -8 -9 -8 -8 -7 -7 -9 -9 -7 -7 -7 -6

GFSMA_850_temp_051.txt.gz
Temp
14 14 13 13 13 13 13 13 13 12 12 13 12 12 12 12 11 11 11 11 12 11 11 11 11 11 11 11 11 11 11 11 11 11 11 11 11 11 11 11 11 11 11
14 13 14 13 13 13 13 13 13 12 12 12 12 12 12 11 11 11 10 11 11 11 11 11 11 10 11 11 11 11 11 11 11 11 11 11 10 10 10 10 10 10 10
14 13 13 13 13 13 13 13 12 12 12 12 12 12 12 12 12 11 10 9 11 11 11 10 10 10 10 10 10 11 10 10 10 10 10 10 10 10 10 10 10 10 10
15 14 13 13 13 13 12 12 12 11 11 12 12 12 12 12 11 11 10 10 9 10 11 10 10 10 10 10 10 10 10 10 10 11 10 10 10 10 10 10 10 10 9
13 13 13 13 13 13 12 12 12 11 11 12 12 11 12 12 12 11 10 11 10 9 9 11 10 10 10 9 9 9 9 9 9 10 10 10 10 9 9 9 9 9 8
14 13 13 13 13 13 12 12 11 11 12 12 11 11 11 12 11 11 11 10 10 11 9 10 10 10 10 9 9 9 8 8 8 8 9 9 9 8 8 8 8 7 5
14 13 13 13 13 13 13 12 11 11 11 11 11 10 10 11 11 11 11 10 10 11 10 10 10 10 10 9 9 8 8 8 8 8 7 7 7 7 7 6 5 4 4
15 15 14 14 14 14 13 12 11 11 11 11 11 10 10 10 11 11 11 11 10 10 11 10 10 9 9 10 9 9 8 8 8 7 7 7 7 6 5 3 3 3 3
14 13 14 14 14 13 13 13 12 11 11 11 12 12 11 11 12 11 11 10 10 9 9 10 10 9 9 9 10 9 9 8 8 7 7 7 7 7 6 4 3 3 3
16 15 14 13 13 12 12 13 13 12 11 11 11 11 12 11 11 10 10 10 9 9 9 8 10 8 9 8 8 8 9 7 7 6 6 6 6 6 5 5 3 2 2
13 14 14 13 12 12 12 12 12 12 13 11 12 12 11 11 11 12 11 11 10 10 9 7 8 8 8 8 7 7 7 7 6 6 6 6 5 5 4 3 2 1 1
12 12 12 12 12 12 12 12 11 11 12 12 10 11 12 12 11 11 11 10 10 11 10 8 8 8 8 7 7 6 7 6 5 5 5 5 4 4 4 4 4 4 4
12 12 13 12 11 11 12 12 12 11 11 11 10 10 11 11 10 11 10 9 10 9 9 8 8 7 7 6 6 6 5 4 4 3 3 3 4 4 3 4 4 4 3
12 12 11 12 12 12 11 11 11 11 11 10 10 9 10 10 10 10 10 10 9 8 7 8 7 7 6 5 5 6 5 3 3 3 3 3 3 3 3 3 3 3 2
11 11 11 10 11 12 10 11 10 10 10 10 9 9 8 9 9 9 8 10 8 6 6 5 4 4 4 4 3 3 2 2 2 2 3 3 2 2 2 3 2 2 2
9 9 10 10 9 10 9 10 10 10 9 9 9 9 8 8 9 8 7 6 6 6 5 4 4 3 3 3 2 2 1 1 1 0 1 1 2 2 1 1 1 1 1
11 11 11 9 8 9 9 9 9 9 8 8 8 8 8 8 7 7 6 5 4 4 2 2 3 3 2 2 1 1 0 0 -0 0 0 1 1 1 -0 -0 -0 -1 -1
10 11 10 9 8 7 8 8 8 8 7 7 7 7 7 7 6 5 3 3 3 2 2 2 2 1 0 -0 -1 -0 -0 -1 -1 -0 -0 -0 -0 -1 -1 -1 -1 -2 -3
8 8 8 7 7 7 7 7 7 7 7 6 6 6 5 5 4 3 2 2 2 2 2 1 1 -0 -1 -1 -2 -2 -2 -2 -2 -2 -2 -3 -2 -2 -2 -2 -3 -3 -5
4 5 5 5 5 6 6 6 6 7 6 5 4 3 2 2 1 2 2 1 1 1 -0 -1 -1 -2 -2 -2 -2 -2 -3 -5 -5 -3 -4 -4 -3 -3 -3 -3 -3 -3 -3
4 4 4 3 3 4 5 4 3 5 4 2 1 1 1 1 1 1 0 0 -1 -1 -2 -2 -3 -2 -3 -5 -5 -5 -6 -6 -5 -4 -6 -4 -5 -4 -4 -3 -3 -4 -5
2 2 2 1 1 1 1 1 1 1 1 0 0 0 0 0 -0 -0 -1 -1 -1 -2 -3 -3 -3 -5 -5 -6 -6 -6 -6 -6 -6 -5 -7 -4 -5 -5 -4 -4 -4 -4 -5
1 0 -0 1 -0 -1 -0 0 -1 0 -0 -1 -1 -1 -1 -1 -1 -2 -1 -1 -1 -3 -4 -4 -6 -6 -6 -6 -6 -6 -7 -7 -7 -6 -7 -4 -5 -5 -4 -4 -4 -4 -4
0 0 0 -0 -1 -1 -1 -1 -1 -1 -1 -2 -1 -1 -1 -2 -2 -2 -2 -3 -4 -4 -5 -6 -7 -6 -7 -7 -8 -8 -8 -8 -7 -7 -8 -6 -5 -5 -4 -3 -3 -4 -4
-1 -1 -1 -1 -1 -1 -2 -2 -2 -2 -3 -1 -2 -2 -3 -3 -3 -4 -4 -5 -5 -6 -7 -7 -6 -6 -6 -6 -6 -7 -6 -7 -7 -6 -6 -7 -5 -7 -5 -3 -3 -3 -4
-0 -1 -1 -1 -1 -1 -1 -1 -1 -2 -2 -2 -2 -3 -3 -4 -4 -4 -5 -7 -7 -8 -8 -7 -7 -8 -7 -7 -7 -7 -7 -7 -8 -8 -7 -7 -6 -7 -8 -4 -4 -5 -4

GFSMA_850_temp_054.txt.gz
Temp
14 14 15 14 15 15 14 13 13 14 13 13 13 13 13 13 13 12 12 12 12 13 12 12 12 12 11 11 11 11 11 11 11 11 11 12 11 11 11 11 11 11 11
14 14 14 14 14 14 13 13 13 12 12 13 13 13 13 12 12 12 12 12 12 12 12 12 12 11 11 11 11 11 11 11 11 11 11 11 12 11 11 11 11 11 11
14 14 14 14 14 13 14 13 13 13 12 12 13 13 13 12 12 11 12 12 13 12 12 12 12 11 11 11 11 11 11 11 11 11 11 11 11 11 11 11 11 10 10
14 14 14 14 14 13 13 13 13 12 12 12 12 13 13 12 12 12 11 12 12 12 12 12 12 11 10 11 11 11 11 11 11 11 11 11 11 11 11 11 11 10 10
14 14 14 14 14 13 13 13 13 12 12 12 12 12 12 12 12 12 11 11 12 12 12 12 11 11 11 10 10 11 11 11 11 11 11 11 11 11 11 11 11 10 9
15 14 14 14 14 13 13 13 13 12 12 12 12 11 11 11 12 12 11 11 11 11 12 12 11 11 11 10 10 11 11 11 11 11 11 11 11 11 11 10 10 9 8
15 15 15 15 14 13 13 13 13 12 12 11 11 11 11 11 11 11 11 11 11 11 11 12 12 11 11 11 10 11 11 10 10 10 10 10 10 10 10 10 9 8 7
14 14 14 15 15 14 13 13 13 13 12 12 11 10 10 10 11 11 11 11 11 11 11 11 11 11 10 10 10 10 10 10 9 9 9 9 9 9 8 8 8 7 5
15 14 13 13 15 15 14 13 13 13 13 12 11 11 10 11 12 12 12 11 11 10 11 11 11 11 10 10 9 10 10 9 9 8 8 8 8 8 8 7 7 7 6
15 15 14 13 13 13 13 13 12 12 11 11 11 11 11 12 11 11 11 11 10 10 10 10 10 10 9 9 9 9 9 9 8 8 8 8 7 7 7 6 5 4 3
13 13 13 13 12 12 13 12 12 12 11 11 12 12 11 11 11 12 12 12 10 9 9 10 10 9 9 9 8 9 8 8 7 7 7 6 6 7 6 7 6 5 5
13 13 12 12 12 11 11 11 11 11 11 11 11 10 11 11 11 10 11 11 11 11 10 8 8 7 6 6 6 6 6 6 6 6 6 6 5 5 5 6 6 5 5
12 12 12 12 11 11 11 11 10 11 11 11 11 10 10 10 10 10 10 10 10 9 9 7 6 5 5 4 5 4 4 4 5 5 4 4 4 4 4 4 4 4 4
11 11 11 11 11 11 11 11 10 10 10 11 11 10 9 9 9 9 9 9 8 8 8 8 5 6 6 3 2 3 3 2 3 2 2 2 3 2 3 3 2 3 3
11 11 11 10 10 11 10 10 10 9 10 10 10 10 9 9 9 8 8 8 8 7 6 5 3 3 3 1 2 3 1 2 3 3 2 1 1 1 2 2 2 2 2
10 11 10 10 10 9 9 9 9 8 9 8 9 9 9 8 8 8 8 7 7 6 4 4 5 3 2 2 1 3 1 1 2 1 1 0 0 1 1 1 1 1 2
10 10 10 10 9 8 7 8 8 8 7 7 8 8 8 8 7 7 7 7 6 5 2 2 2 2 3 3 2 2 0 1 0 -0 0 0 -1 -0 1 1 1 1 -0
8 9 9 10 9 6 7 7 7 7 7 7 7 7 7 7 6 6 5 4 4 3 3 2 2 2 2 2 1 0 -0 -0 -0 0 0 -1 0 0 0 -1 -1 -2 -3
5 5 6 5 5 5 6 6 6 6 6 6 6 5 5 5 5 4 3 2 2 1 1 1 1 1 1 -0 -1 -1 -1 -1 -0 -0 -1 -2 -1 -1 -2 -2 -2 -4 -4
4 4 4 4 4 4 4 4 5 5 5 6 6 5 5 3 2 2 1 1 1 1 1 0 -0 -1 -1 -2 -1 -1 -1 -2 -2 -2 -3 -2 -2 -3 -2 -3 -3 -4 -4
6 5 5 5 3 3 3 3 3 2 4 2 3 2 3 1 1 0 0 0 0 0 -0 -1 -0 -1 -1 -2 -2 -3 -4 -4 -3 -3 -4 -2 -4 -3 -3 -3 -3 -3 -4
3 3 3 3 3 1 0 0 1 1 1 0 1 -0 2 -0 -0 -1 -1 -1 -1 -2 -1 -1 -2 -2 -3 -4 -5 -5 -5 -5 -4 -4 -5 -3 -5 -3 -3 -3 -3 -3 -4
1 1 1 0 0 -0 -0 -0 -0 -0 -1 -1 -1 -1 -1 -1 -1 -2 -1 -2 -2 -3 -3 -3 -4 -4 -4 -6 -6 -5 -6 -6 -6 -5 -6 -3 -4 -3 -3 -3 -3 -4 -4
1 1 0 0 1 0 -1 -1 -1 -1 -1 -1 -1 -1 -1 -2 -3 -3 -3 -3 -4 -4 -4 -5 -4 -4 -5 -6 -6 -6 -6 -6 -6 -6 -6 -4 -4 -3 -3 -2 -3 -3 -4
-0 -0 -0 -0 -0 -0 -1 -1 -1 -1 -1 -1 -1 -1 -3 -3 -3 -3 -4 -4 -5 -6 -6 -6 -6 -6 -6 -6 -6 -6 -6 -7 -6 -5 -5 -5 -4 -4 -3 -2 -3 -3 -4
0 -0 0 -0 -0 -0 -0 -0 -1 -2 -2 -3 -3 -4 -4 -4 -4 -4 -4 -5 -6 -7 -6 -7 -7 -7 -7 -6 -6 -7 -7 -6 -7 -6 -6 -6 -6 -7 -6 -3 -3 -4 -4

GFSMA_850_temp_057.txt.gz
Temp
16 15 15 15 16 16 16 15 15 14 14 14 14 13 13 13 13 13 13 13 12 12 13 14 14 13 13 12 12 13 12 12 12 12 12 12 12 12 12 12 12 12 11
15 14 14 15 15 15 15 15 14 14 13 14 13 13 13 13 13 13 13 13 13 12 12 13 14 14 13 12 12 12 12 12 12 12 12 12 12 12 12 12 11 11 11
14 14 14 15 15 14 14 14 13 13 12 13 13 13 13 13 12 13 13 12 13 12 12 13 13 13 13 12 12 12 12 12 12 12 12 12 12 12 12 11 11 11 11
15 14 14 14 14 14 13 13 13 13 13 12 13 13 13 13 12 12 12 12 12 12 12 12 13 13 13 12 12 12 12 12 12 12 12 12 12 12 12 12 12 11 11
15 15 15 15 14 14 14 13 13 13 13 13 12 12 13 13 13 12 12 12 12 12 12 12 12 12 12 12 12 12 12 12 12 12 12 11 11 11 11 11 11 11 11
15 16 15 15 15 14 14 14 13 13 13 13 13 12 12 12 12 12 12 12 12 12 12 12 12 12 12 11 11 11 12 11 11 11 11 11 11 11 11 11 10 10 10
16 14 15 15 15 14 14 14 13 13 13 13 12 11 11 11 11 11 11 11 11 12 12 12 12 11 11 11 10 10 11 10 10 10 10 10 11 11 10 11 10 10 9
14 15 15 14 14 14 14 14 13 13 13 13 12 11 11 11 11 11 11 11 11 11 12 12 11 11 11 11 10 10 10 9 9 9 9 9 9 10 10 10 10 9 9
14 15 14 14 14 14 14 13 13 13 14 14 14 12 10 10 12 12 12 12 12 11 11 11 11 11 10 10 10 9 9 8 8 8 8 8 7 8 8 8 8 8 8
14 14 14 14 13 13 13 13 13 12 13 13 12 11 11 12 12 12 13 13 11 10 10 9 9 9 9 9 9 9 8 8 7 7 7 7 6 6 6 7 7 6 6
13 13 13 13 13 13 12 12 12 12 12 12 12 11 11 10 10 11 12 12 12 11 10 9 9 8 8 8 8 8 7 6 5 5 4 4 4 5 5 5 4 4 5
13 13 12 12 12 12 12 12 12 11 11 11 11 11 11 10 10 9 10 10 11 10 10 9 8 7 6 6 6 5 5 5 4 3 3 2 2 3 3 4 3 4 5
12 12 12 12 12 11 11 11 11 11 11 11 11 11 10 10 10 10 9 9 9 9 9 8 8 7 6 6 4 3 3 2 2 2 2 2 2 1 2 3 3 3 3
11 12 11 12 11 11 11 11 10 10 9 10 10 10 10 10 10 9 10 8 7 8 8 8 8 6 5 4 4 3 5 3 0 1 2 2 3 -0 2 1 2 2 2
11 11 11 11 11 11 10 10 10 10 9 9 9 9 9 9 9 9 8 9 7 6 7 7 6 6 5 4 5 4 3 4 2 2 1 2 1 -0 0 0 0 1 2
10 10 10 10 10 10 9 9 9 8 8 8 8 9 9 9 8 8 7 7 6 6 6 6 6 5 4 3 3 4 3 2 2 1 1 1 -1 -1 -0 0 0 -0 -0
9 9 9 9 10 10 9 8 8 6 7 7 7 7 7 7 8 8 7 7 6 5 4 4 3 4 4 4 2 2 2 0 1 0 -0 -1 -1 -1 -1 -1 -1 -2 -2
7 7 7 8 8 9 8 6 5 6 6 6 6 6 6 7 7 7 6 6 5 4 3 3 3 3 1 3 1 1 -0 0 -1 -0 -1 -1 -2 -3 -3 -3 -3 -3 -3
5 5 4 5 4 3 4 5 5 5 5 5 5 5 6 6 6 6 5 4 3 3 2 2 1 1 1 1 0 0 0 -1 -1 -2 -3 -3 -4 -4 -3 -3 -3 -3 -4
5 4 4 4 4 3 3 3 3 3 4 5 5 5 4 3 4 3 2 1 1 0 0 0 1 1 0 -0 -1 -1 -2 -2 -3 -3 -3 -3 -4 -3 -3 -3 -3 -3 -3
5 5 4 4 4 3 3 3 3 3 2 3 3 3 3 2 1 0 0 0 -0 -1 -0 -1 -1 -1 -2 -2 -2 -3 -3 -3 -3 -4 -4 -3 -3 -3 -3 -4 -3 -3 -3
2 3 3 3 3 2 1 2 1 1 1 1 1 1 0 -0 -0 -1 -0 -1 -1 -1 -2 -2 -3 -3 -4 -4 -4 -4 -5 -5 -5 -5 -4 -4 -4 -3 -3 -3 -3 -3 -3
1 2 2 2 2 1 0 0 -0 0 -0 -0 -0 -0 -1 -1 -1 -1 -1 -2 -2 -2 -2 -2 -3 -3 -4 -4 -5 -5 -6 -6 -6 -5 -6 -4 -3 -3 -4 -3 -3 -3 -3
1 1 1 1 0 -0 -1 -0 -0 -0 -1 -1 -1 -1 -1 -1 -2 -2 -2 -2 -2 -3 -3 -3 -4 -5 -5 -6 -6 -6 -6 -6 -5 -5 -6 -5 -3 -3 -3 -3 -3 -3 -4
1 1 0 -0 -0 0 -0 -0 -0 -1 -1 -1 -1 -2 -2 -3 -3 -3 -3 -3 -4 -4 -5 -5 -6 -6 -6 -6 -7 -6 -6 -7 -6 -6 -5 -6 -5 -4 -3 -2 -3 -3 -3
1 0 0 0 0 0 0 -1 -1 -1 -2 -2 -2 -3 -3 -3 -4 -5 -5 -5 -6 -6 -7 -7 -7 -7 -6 -7 -7 -6 -7 -7 -7 -7 -6 -6 -6 -5 -4 -2 -3 -3 -3

GFSMA_850_temp_060.txt.gz
Temp
16 16 16 15 16 16 16 16 15 15 15 14 15 14 14 14 14 13 13 13 13 13 13 13 14 14 13 13 13 13 13 12 12 12 12 12 12 12 12 12 12 12 12
16 15 16 15 15 15 15 15 15 15 14 14 14 14 14 14 14 13 13 13 13 13 13 13 13 14 13 13 13 13 12 12 12 12 12 12 12 12 12 12 12 11 11
15 15 15 15 15 15 15 14 14 14 14 13 13 13 13 13 14 14 13 13 13 13 13 13 13 13 13 13 12 12 12 12 12 12 12 12 12 12 12 11 11 11 11
15 15 15 15 15 14 14 14 14 14 14 13 13 13 13 13 13 13 13 13 13 12 12 12 12 13 13 12 12 12 11 11 12 12 12 11 11 11 11 11 11 11 11
15 15 15 15 15 14 14 14 14 13 13 13 13 12 12 12 12 12 13 12 12 12 12 12 12 12 12 12 11 10 11 11 11 11 11 11 11 11 11 11 11 11 11
15 14 15 15 14 14 14 14 14 13 13 13 13 13 12 12 12 12 12 12 12 12 12 12 11 12 12 11 10 8 8 11 10 10 10 10 10 10 10 10 10 10 10
15 15 15 15 15 14 15 14 14 13 13 13 12 12 12 12 12 12 12 12 12 12 12 11 11 11 11 11 10 9 7 8 10 9 9 9 9 9 9 9 9 9 8
14 14 14 14 14 14 14 14 13 13 13 13 13 12 11 11 12 13 12 12 12 12 12 11 11 10 10 10 10 9 8 7 7 8 8 8 8 7 7 7 7 7 6
14 14 14 14 14 13 14 13 13 13 12 12 12 11 11 11 12 13 14 13 13 12 12 11 11 10 10 9 9 9 8 7 6 5 6 6 7 7 6 5 5 5 5
14 14 14 14 13 13 13 13 13 12 12 12 12 12 11 11 11 12 13 13 13 11 10 10 10 10 9 9 8 8 8 7 6 6 4 4 4 4 4 3 3 3 3
13 13 13 13 13 12 12 12 12 12 12 12 11 11 11 11 10 10 10 11 11 11 12 11 10 9 9 8 8 7 7 6 5 5 4 3 3 3 2 2 3 3 3
12 12 12 13 12 12 12 12 11 11 11 11 11 10 10 10 10 10 9 9 9 10 10 10 11 10 9 8 7 6 5 5 6 5 3 3 2 2 2 2 2 2 2
12 12 12 12 12 12 12 11 11 11 11 10 11 10 10 9 10 9 9 9 8 8 7 9 9 9 9 7 6 5 4 2 2 2 3 3 3 2 1 2 3 2 1
11 11 12 12 11 11 11 11 11 10 10 10 10 10 9 10 9 8 9 8 7 7 8 8 8 6 7 6 5 5 4 4 2 3 4 3 2 1 1 1 1 1 0
10 10 10 11 11 11 11 11 11 10 10 9 9 9 8 8 8 8 8 8 7 6 6 6 4 5 4 4 3 3 3 3 2 3 2 2 1 0 0 0 0 0 -0
8 9 9 10 10 10 10 10 10 9 9 8 8 6 7 7 8 8 7 7 7 6 6 6 5 5 3 3 2 2 1 1 1 2 1 0 -1 -1 -1 -1 -0 -1 -1
8 8 8 8 9 9 9 9 8 8 8 8 6 5 6 6 6 6 7 7 6 6 5 6 5 4 4 2 1 1 1 0 1 0 -1 -1 -1 -1 -1 -1 -2 -2 -1
7 6 6 6 7 7 7 7 7 7 6 5 5 5 5 6 6 6 5 5 5 5 4 4 3 3 3 3 2 2 1 0 -0 -0 -1 -1 -1 -2 -2 -2 -2 -4 -4
5 5 4 4 4 4 3 3 3 3 4 4 5 5 5 5 5 4 4 4 3 3 3 2 2 1 1 1 1 1 -0 -0 -1 -1 -1 -1 -2 -2 -3 -4 -4 -4 -4
5 5 5 4 4 3 3 3 3 3 3 3 3 4 4 4 4 4 3 2 2 1 1 1 1 1 0 0 1 -1 -1 -2 -2 -2 -2 -3 -2 -3 -3 -3 -3 -3 -3
5 5 4 4 4 3 3 3 3 2 2 3 3 3 3 2 2 2 1 1 0 0 0 -0 -0 -0 -0 -0 -1 -2 -2 -2 -3 -4 -3 -3 -3 -3 -3 -3 -3 -3 -3
3 3 3 3 3 3 3 3 2 2 1 1 2 2 1 1 0 1 0 -0 -1 -1 -2 -2 -2 -2 -2 -3 -3 -3 -4 -4 -4 -4 -4 -4 -5 -3 -4 -4 -3 -3 -3
2 2 2 2 3 2 2 2 1 1 1 1 1 0 -0 -0 -1 -1 -1 -1 -2 -3 -3 -3 -3 -4 -4 -4 -4 -4 -5 -5 -5 -6 -5 -4 -4 -4 -4 -4 -4 -4 -4
1 2 2 2 2 2 1 1 1 1 1 0 -0 -0 -1 -1 -2 -2 -2 -3 -3 -3 -4 -4 -5 -5 -6 -6 -6 -6 -6 -6 -6 -6 -6 -5 -4 -3 -4 -4 -3 -3 -3
1 1 2 1 1 1 1 0 0 -0 -1 -1 -1 -2 -2 -3 -3 -3 -3 -3 -4 -4 -5 -6 -6 -7 -7 -7 -8 -7 -7 -7 -7 -6 -6 -6 -4 -4 -3 -3 -2 -3 -3
1 1 1 1 0 -0 -1 -1 -1 -1 -2 -2 -3 -3 -4 -4 -4 -5 -4 -5 -5 -5 -5 -6 -7 -7 -7 -7 -7 -7 -7 -7 -7 -6 -5 -6 -5 -5 -4 -3 -3 -3 -4

GFSMA_850_temp_063.txt.gz
Temp
17 17 16 16 16 15 16 16 16 15 15 15 15 14 14 14 14 14 13 13 13 12 12 12 13 13 13 13 13 13 12 12 12 12 12 12 12 12 12 12 12 12 12
16 16 16 16 15 15 15 15 15 15 14 14 14 14 14 14 14 13 13 13 13 12 12 12 12 13 13 13 13 12 12 12 12 11 11 11 11 12 12 12 11 11 11
16 15 15 15 15 15 14 14 14 14 14 14 14 13 13 13 13 13 13 13 12 13 12 12 12 12 12 12 13 13 12 12 11 11 11 11 11 11 11 11 11 11 11
15 15 15 15 15 14 14 14 14 14 14 13 13 13 13 13 13 13 12 13 13 12 12 12 12 12 12 12 11 12 12 12 11 11 10 11 11 10 11 11 11 11 10
15 15 15 15 15 14 14 14 14 13 13 13 13 13 13 13 13 12 12 12 12 12 12 12 12 11 11 11 11 9 10 12 11 11 11 11 10 10 10 10 10 10 10
15 15 14 15 14 14 14 14 13 13 13 13 13 13 13 12 12 12 12 12 12 12 12 12 12 12 11 11 10 9 7 7 9 10 10 10 10 10 10 10 10 10 9
14 14 14 14 14 14 14 14 13 13 13 13 13 13 13 12 12 12 12 12 12 12 12 12 12 11 11 11 10 9 8 7 6 7 8 8 8 8 9 9 8 8 7
14 14 14 14 13 13 14 14 13 13 13 13 12 12 11 11 12 12 13 13 13 12 12 11 11 11 10 10 10 9 9 7 6 5 6 6 7 7 7 6 6 5 5
14 14 14 14 14 13 13 14 13 13 12 12 12 11 11 11 12 12 12 13 13 13 13 12 11 10 10 9 9 9 9 8 7 6 5 4 5 5 5 4 4 4 4
15 14 14 14 14 14 14 13 13 12 12 12 12 11 11 11 11 10 10 11 12 13 12 11 11 10 10 9 9 9 8 7 6 6 5 5 4 4 4 4 4 3 4
14 14 14 13 13 13 13 13 12 12 12 11 11 11 10 10 10 9 9 9 9 10 10 10 10 10 9 8 7 7 7 6 5 5 5 5 5 4 4 3 3 3 3
13 13 13 12 12 12 12 12 12 11 11 11 11 10 10 10 9 9 9 9 9 10 10 9 8 9 8 9 7 6 5 5 4 4 4 3 3 3 3 3 3 3 4
11 11 11 11 11 11 11 11 11 11 11 11 10 10 9 9 10 9 9 9 8 8 8 8 8 9 9 8 8 6 4 4 4 4 3 4 2 3 3 2 3 3 2
10 10 10 10 10 10 10 10 10 10 10 10 10 9 9 9 9 9 9 8 8 7 8 7 7 8 7 7 7 7 6 4 3 3 3 3 3 3 2 2 2 2 1
8 9 9 9 10 10 10 10 10 9 9 9 9 9 8 8 8 7 8 7 7 7 7 8 7 7 7 7 6 5 4 4 2 2 3 2 2 1 1 1 1 0 0
8 8 8 9 9 9 9 9 9 9 9 8 8 8 8 7 5 6 6 7 7 6 6 6 6 6 6 5 4 2 4 2 2 1 1 1 0 0 0 0 -0 -0 -0
7 7 7 7 7 8 8 8 8 8 8 8 8 7 6 5 5 5 6 6 6 6 5 5 5 5 5 4 3 1 1 1 1 -0 -0 -0 -0 -1 -1 -1 -1 -1 -1
6 6 6 6 6 6 6 6 6 6 6 5 5 4 5 5 5 5 5 5 5 4 4 4 4 4 3 2 2 1 -0 -0 -1 -1 -1 -1 -1 -1 -1 -2 -2 -2 -1
5 5 5 4 4 4 4 4 4 4 3 3 3 3 4 4 4 4 4 4 4 4 4 3 3 2 2 1 0 0 -0 -0 -1 -1 -1 -1 -1 -1 -2 -3 -3 -3 -3
5 5 4 4 4 4 3 3 4 3 2 2 2 2 3 3 4 3 3 3 3 2 2 2 1 1 1 1 0 -0 -1 -1 -1 -1 -2 -1 -2 -2 -2 -2 -3 -2 -3
4 4 4 4 4 3 3 3 3 1 1 2 2 2 2 2 1 1 1 1 0 1 1 0 -0 -0 -0 -1 -1 -2 -2 -2 -3 -3 -2 -2 -2 -3 -3 -3 -2 -2 -3
3 3 3 3 3 3 3 2 2 2 2 2 1 1 0 0 0 -0 -0 -1 -0 -1 -1 -1 -1 -2 -1 -2 -2 -2 -3 -3 -3 -3 -3 -3 -3 -3 -3 -3 -3 -3 -3
3 3 3 2 2 2 2 2 2 2 2 2 1 1 0 -0 -1 -1 -1 -1 -1 -1 -1 -2 -2 -2 -3 -3 -3 -3 -4 -4 -5 -5 -4 -3 -3 -3 -3 -3 -3 -3 -3
2 2 2 2 2 2 2 2 2 1 1 0 0 -0 -0 -1 -1 -1 -2 -2 -3 -3 -4 -4 -4 -4 -4 -4 -4 -4 -4 -4 -5 -5 -5 -4 -4 -4 -4 -4 -4 -3 -3
2 2 2 2 2 2 1 1 1 1 0 -0 -1 -1 -2 -2 -3 -3 -3 -4 -4 -5 -6 -6 -6 -6 -6 -7 -7 -7 -7 -7 -6 -6 -6 -6 -4 -4 -4 -4 -3 -3 -3
1 1 1 1 1 1 1 0 0 0 -0 -1 -1 -2 -3 -4 -4 -4 -4 -5 -5 -5 -6 -6 -7 -7 -7 -7 -7 -8 -8 -7 -8 -6 -6 -6 -5 -5 -4 -3 -3 -4 -4

GFSMA_850_temp_066.txt.gz
Temp
16 16 16 16 16 16 15 15 15 15 15 15 14 14 14 14 13 13 13 13 13 13 12 12 12 12 12 12 13 13 13 13 13 12 12 12 12 12 12 11 11 12 12
16 16 16 16 15 15 15 14 14 14 14 14 14 14 14 14 13 13 13 13 13 13 13 12 12 12 12 12 12 13 13 12 12 12 12 12 12 12 12 12 12 11 11
15 15 15 15 15 15 14 14 14 14 14 14 14 14 14 13 13 13 13 13 12 12 13 13 12 12 12 12 11 12 12 12 11 11 11 11 11 11 11 11 11 11 11
15 15 15 15 14 14 14 14 14 14 14 14 14 14 13 13 13 13 13 13 13 12 12 12 12 12 12 11 11 10 10 11 11 11 10 10 10 10 11 10 10 10 10
15 15 15 15 14 14 14 14 14 13 13 13 13 13 13 13 12 12 12 12 12 12 12 12 12 12 11 11 10 10 8 8 9 10 10 10 10 9 9 10 10 10 9
15 14 14 14 14 14 14 14 13 13 13 13 13 13 13 13 12 12 12 12 12 12 12 12 11 11 11 11 10 10 9 8 7 8 9 10 9 9 9 9 9 9 9
14 14 14 14 13 14 14 13 13 13 13 13 12 12 12 12 12 12 12 12 12 12 12 12 11 11 10 10 10 10 9 8 7 7 8 8 8 8 8 7 7 7 7
14 14 14 14 14 14 13 13 13 13 13 13 12 12 11 12 12 12 12 12 12 12 12 12 11 11 10 10 10 9 9 9 7 7 7 6 5 6 6 5 4 4 4
14 14 14 14 14 14 14 13 13 13 13 13 12 11 11 11 12 11 11 11 11 11 11 11 11 11 10 10 9 9 9 8 8 7 7 6 5 4 4 4 4 4 5
14 14 14 14 14 14 13 13 13 13 12 12 12 12 11 11 10 10 10 10 10 11 11 10 10 10 10 10 10 9 8 7 7 7 7 7 5 5 4 4 4 4 4
13 13 13 13 13 13 13 12 12 12 12 11 11 11 10 10 10 9 9 9 9 9 9 9 10 9 9 9 8 9 9 8 7 6 7 7 6 5 4 4 5 4 4
12 12 12 12 13 13 12 12 12 12 11 11 11 10 10 9 9 9 8 8 8 8 9 10 9 9 8 8 8 8 7 7 6 6 6 5 6 5 5 4 4 4 4
11 11 11 11 11 11 11 11 11 11 11 11 10 10 10 9 9 9 8 7 8 7 8 9 9 8 8 8 7 7 7 6 5 6 6 5 5 4 4 4 3 3 3
9 10 10 10 10 10 10 10 10 10 10 10 10 9 9 8 8 8 8 8 7 7 6 7 8 7 7 7 7 7 6 5 5 4 5 4 4 4 3 3 3 3 3
8 8 8 8 9 9 9 9 9 9 8 8 8 8 7 8 8 8 7 7 7 6 6 6 6 7 6 6 6 6 6 5 4 3 4 4 3 3 3 3 2 2 2
8 8 8 8 8 8 8 8 8 8 8 7 7 7 7 7 7 6 5 5 6 6 5 5 5 5 5 5 5 5 5 5 4 2 2 2 2 3 2 1 1 1 1
7 7 7 7 7 7 7 7 7 7 7 7 7 6 6 5 5 5 5 5 6 6 5 5 5 4 4 4 3 4 3 3 2 1 2 2 1 1 1 0 -0 -0 -0
6 6 6 6 6 5 5 5 5 5 5 5 5 4 4 4 4 4 5 4 4 4 4 5 4 4 4 4 4 3 2 2 1 1 1 1 -0 -0 -0 -0 -1 -1 -1
5 5 5 5 4 4 4 4 4 4 3 2 2 3 3 3 4 4 4 4 4 4 4 4 4 4 3 2 2 2 1 1 1 0 0 -0 -1 -1 -1 -1 -2 -2 -2
4 4 4 4 4 4 3 3 2 2 2 2 2 2 2 2 3 3 3 2 2 2 2 2 1 1 1 0 0 0 -0 -0 -0 -0 -1 -1 -1 -1 -1 -1 -2 -2 -2
3 4 4 4 3 3 2 2 2 1 1 1 1 1 2 2 2 2 1 1 1 1 1 1 0 -0 -0 -1 -2 -2 -2 -2 -2 -2 -2 -2 -2 -2 -2 -2 -2 -2 -2
2 3 3 3 3 3 2 2 1 1 1 1 1 1 1 0 0 0 0 0 0 0 0 -0 -1 -1 -1 -2 -2 -3 -3 -3 -3 -3 -3 -3 -3 -3 -3 -3 -3 -3 -3
2 2 2 2 3 2 2 2 2 2 1 2 1 1 1 1 0 -0 -0 -0 -1 -1 -1 -1 -2 -2 -3 -3 -4 -4 -4 -4 -5 -5 -5 -3 -4 -4 -3 -3 -3 -4 -3
1 1 2 2 2 2 2 2 2 2 1 1 1 0 -0 -1 -0 -1 -1 -2 -2 -2 -3 -3 -3 -4 -4 -4 -5 -5 -5 -5 -5 -5 -5 -5 -4 -4 -4 -4 -3 -3 -3
1 2 2 2 2 2 2 1 1 1 0 0 -0 -1 -1 -2 -2 -2 -2 -3 -3 -4 -4 -5 -5 -5 -6 -6 -6 -6 -6 -6 -5 -5 -5 -5 -4 -4 -3 -3 -3 -3 -3
1 2 2 1 1 1 1 1 1 0 -0 -1 -1 -1 -2 -3 -3 -4 -3 -4 -4 -4 -5 -6 -6 -6 -6 -6 -6 -6 -6 -6 -6 -5 -6 -6 -5 -5 -4 -3 -3 -3 -3

GFSMA_850_temp_069.txt.gz
Temp
16 16 16 16 16 16 15 15 15 15 15 14 14 14 14 14 14 14 13 13 13 13 13 12 13 13 13 13 13 13 13 13 12 12 12 11 11 12 12 12 12 12 12
16 16 16 15 15 15 15 14 14 14 14 14 14 14 14 14 13 13 13 13 13 12 12 12 12 12 12 12 12 12 12 12 12 12 12 12 11 10 10 11 11 11 11
15 15 15 15 14 14 14 14 14 14 14 14 14 14 13 13 13 13 13 13 12 12 12 12 12 12 12 11 11 11 11 11 12 12 11 11 11 11 11 11 10 10 10
15 15 15 15 14 14 14 14 14 14 14 14 14 14 13 13 13 13 13 13 12 12 12 12 12 12 11 11 11 10 9 9 11 11 11 11 11 11 11 11 11 10 10
15 15 14 14 14 14 14 14 14 13 13 13 13 13 13 13 13 13 13 13 12 12 12 12 12 11 11 11 10 9 9 9 8 9 10 10 10 10 10 10 10 10 10
14 14 14 14 14 14 14 14 13 13 13 13 13 13 14 13 13 13 13 13 13 12 12 12 11 11 11 11 10 10 9 9 8 8 8 9 9 9 9 9 9 9 9
14 14 14 14 14 14 14 14 14 14 14 13 13 13 14 13 12 12 12 12 12 12 12 12 11 11 11 10 10 10 9 9 9 8 8 8 7 8 7 7 7 7 7
15 14 14 14 14 14 14 14 13 13 13 13 12 12 11 12 12 12 12 12 11 12 12 11 11 11 11 11 10 10 9 9 8 8 8 8 8 8 7 5 5 5 5
14 14 14 14 14 14 14 14 13 13 12 12 12 12 11 12 12 11 11 11 11 11 11 10 11 10 10 11 10 10 9 9 8 8 8 8 7 6 7 5 5 5 5
14 14 14 14 14 14 14 13 13 12 12 12 12 12 12 11 10 10 10 10 10 10 10 10 10 10 10 9 9 9 9 8 8 8 7 8 8 6 5 5 5 5 5
13 13 13 13 13 13 13 13 12 12 12 11 11 11 10 10 10 9 9 9 9 8 9 9 10 9 9 9 8 8 8 8 7 7 7 7 7 7 6 6 5 5 5
12 12 12 12 12 12 12 12 12 12 12 11 11 11 11 10 9 9 9 8 8 8 8 8 9 9 8 8 8 8 8 8 8 7 7 7 7 7 7 6 5 5 4
11 10 10 10 10 11 11 11 11 11 11 11 10 10 10 10 8 8 8 8 8 8 7 7 8 8 8 7 7 7 7 7 7 7 7 6 6 6 7 6 5 5 4
10 10 9 9 9 9 10 10 10 10 10 10 10 10 9 8 8 8 7 7 7 7 7 7 7 7 6 6 7 7 6 6 6 6 7 6 6 7 6 5 5 4 4
8 8 8 9 9 9 9 9 9 9 9 8 8 8 8 8 7 7 7 7 6 5 5 6 6 5 6 6 6 5 5 5 6 6 6 5 5 5 5 4 4 4 3
8 8 8 8 8 8 8 8 8 8 8 7 7 7 6 6 6 6 6 5 5 5 5 5 6 6 5 3 3 5 5 4 4 4 4 4 4 3 3 3 3 3 2
7 8 7 7 7 7 7 7 7 7 7 6 6 6 6 6 6 5 5 5 5 5 5 5 5 5 4 4 4 4 4 3 3 2 3 3 4 4 3 3 2 2 2
7 7 6 6 6 6 5 5 5 5 5 5 5 5 4 4 4 4 4 5 4 4 4 4 4 4 4 3 3 4 4 3 2 1 1 2 2 1 1 1 1 1 1
5 5 5 5 5 5 4 4 3 3 3 2 2 2 2 2 3 4 4 4 4 4 4 4 4 4 3 3 2 2 3 2 2 1 1 1 1 0 -0 0 0 -0 -1
4 4 5 5 4 4 3 3 2 2 1 2 2 2 2 2 3 3 3 2 3 2 2 2 2 2 2 1 0 0 1 1 1 1 0 0 0 -0 -1 -1 -1 -1 -1
3 4 4 4 3 3 3 3 2 1 2 1 1 1 2 2 2 2 2 2 2 1 1 1 1 0 0 -0 -1 -1 -1 -1 -1 -1 -0 -0 -1 -1 -1 -2 -1 -2 -2
2 3 3 3 2 2 2 2 2 2 2 2 2 2 2 2 2 1 1 1 1 1 0 0 -0 -1 -1 -1 -2 -2 -2 -2 -2 -2 -2 -2 -2 -2 -1 -1 -1 -2 -2
1 2 2 2 2 2 2 2 3 2 2 2 2 2 1 1 1 0 0 -0 -1 -1 -1 -1 -2 -2 -2 -3 -3 -3 -4 -4 -4 -4 -4 -3 -3 -3 -2 -2 -2 -2 -2
1 1 2 2 2 2 2 2 2 2 2 1 1 0 0 0 0 0 -1 -1 -2 -2 -2 -3 -3 -3 -4 -4 -4 -5 -5 -5 -5 -5 -5 -5 -4 -4 -4 -3 -3 -3 -3
1 1 1 1 1 1 1 2 2 2 1 1 0 0 -0 -1 -1 -0 -1 -2 -3 -3 -3 -4 -4 -4 -5 -6 -5 -5 -6 -6 -5 -6 -6 -6 -5 -4 -4 -4 -4 -4 -4
1 0 1 1 1 1 2 2 1 1 1 0 0 -0 -1 -1 -2 -3 -3 -3 -3 -3 -4 -5 -5 -5 -5 -5 -6 -6 -6 -6 -6 -6 -6 -6 -6 -5 -5 -5 -4 -4 -4

GFSMA_850_temp_072.txt.gz
Temp
16 15 15 16 16 16 15 15 15 14 15 14 15 14 14 14 14 13 13 14 13 13 13 13 12 12 13 13 12 12 12 13 12 12 12 12 12 12 12 12 12 12 12
15 15 15 16 15 15 15 14 14 14 14 14 14 14 14 13 13 13 13 13 13 13 13 13 12 12 11 11 12 12 12 12 12 12 12 12 12 12 11 12 12 11 11
15 15 15 15 15 14 14 14 14 14 14 14 14 14 13 13 13 13 13 13 13 13 13 12 12 12 12 11 10 10 10 11 11 11 12 12 11 11 11 11 11 11 11
15 15 15 14 14 14 14 14 14 14 14 14 13 13 12 13 14 13 13 13 13 13 13 13 12 12 11 11 11 10 9 9 9 10 10 11 11 11 11 11 11 11 10
15 15 15 15 14 14 14 14 14 14 14 13 13 13 13 13 14 13 13 13 13 13 13 12 13 12 11 11 11 10 10 9 9 9 10 10 10 11 11 10 10 10 9
15 15 15 14 14 14 14 14 14 14 14 13 13 13 14 13 14 14 13 12 12 13 13 12 12 12 12 11 11 11 10 10 9 10 9 9 9 10 10 10 9 9 9
15 15 15 14 14 14 14 14 14 13 13 13 13 13 12 13 13 13 12 12 12 12 12 12 12 11 11 11 11 11 10 10 10 9 9 8 9 9 9 9 8 7 6
15 15 14 14 14 14 14 14 13 13 13 13 12 12 12 13 13 12 12 12 12 11 11 11 11 11 11 11 11 11 10 10 10 9 9 8 8 8 8 8 8 6 5
15 15 15 14 14 14 14 14 13 13 13 12 12 12 12 13 12 11 11 11 11 11 11 10 10 10 10 10 10 10 10 9 9 9 9 8 9 8 7 7 7 6 6
15 14 14 14 14 14 14 14 13 13 13 11 11 11 11 11 10 11 11 10 10 10 10 9 10 10 10 9 9 9 9 9 9 9 9 9 8 9 8 7 6 5 5
14 13 13 13 13 13 13 13 13 13 12 11 10 10 10 11 10 10 9 10 10 10 9 8 9 9 9 9 8 8 8 8 8 9 8 8 7 8 8 7 7 6 5
12 12 12 12 12 12 12 12 12 12 12 11 11 10 10 10 10 10 9 9 9 9 9 8 8 8 8 8 8 8 8 8 8 8 8 8 7 8 8 8 7 7 6
11 11 11 11 11 11 11 11 11 11 11 10 9 9 9 9 9 9 9 8 8 8 8 7 7 7 7 7 7 7 7 7 7 7 8 8 7 7 7 7 7 6 5
10 10 10 10 10 10 10 10 9 9 10 8 9 9 9 9 9 8 8 8 7 7 7 6 7 7 7 7 6 7 6 6 6 7 7 7 7 7 7 7 7 6 6
9 9 9 9 9 9 9 9 8 8 9 7 7 8 8 8 8 7 7 7 7 6 7 6 6 6 6 6 5 6 6 6 6 6 6 6 6 4 5 6 5 6 5
8 8 8 8 8 8 8 8 8 8 7 7 6 6 7 7 7 7 6 6 6 6 5 5 6 6 6 5 4 5 5 5 5 5 4 5 4 4 4 5 5 4 4
7 7 7 7 7 7 7 7 7 6 6 6 6 6 6 6 6 6 6 5 5 5 5 5 5 5 5 4 4 4 4 4 3 4 3 3 3 3 3 3 3 4 4
6 6 6 6 6 6 6 6 6 5 5 5 5 5 5 5 5 5 4 4 4 4 4 4 4 4 4 3 3 3 3 3 3 3 3 2 2 2 2 2 2 2 2
6 6 5 5 5 5 5 5 4 4 4 4 4 3 3 3 3 3 4 4 4 4 4 3 4 3 3 3 2 2 2 2 2 2 2 1 2 2 2 1 1 2 2
5 5 5 5 5 4 4 4 3 2 2 2 2 2 2 2 2 3 3 3 3 3 3 2 2 2 1 1 1 1 -0 1 1 1 1 1 1 1 1 1 1 1 1
4 4 4 4 4 3 3 2 1 1 2 2 2 2 2 2 2 2 3 3 2 2 2 1 1 0 -0 -1 -0 -0 -0 -0 -0 -0 -0 -0 -0 -0 0 0 0 -0 -1
1 2 3 3 3 3 3 2 2 2 2 2 2 2 2 3 2 3 2 2 2 2 1 0 -0 -1 -1 -1 -1 -1 -2 -2 -2 -1 -1 -1 -1 -1 -1 -1 -1 -1 -1
0 1 2 2 2 2 2 2 2 2 2 2 2 2 2 2 2 1 1 1 0 -0 -1 -1 -2 -2 -2 -2 -3 -3 -3 -3 -4 -4 -3 -2 -3 -3 -2 -2 -2 -2 -2
0 1 1 2 2 2 2 2 2 2 2 2 2 2 2 1 1 1 -0 -1 -1 -2 -2 -2 -3 -3 -3 -3 -4 -4 -4 -4 -5 -4 -4 -4 -4 -4 -3 -3 -3 -3 -3
0 1 1 2 2 2 2 2 1 2 2 2 1 1 1 1 1 0 -1 -1 -2 -2 -2 -3 -3 -3 -4 -4 -4 -5 -6 -6 -6 -7 -5 -5 -5 -4 -3 -3 -3 -3 -3
-0 1 1 1 1 2 2 1 1 1 1 1 1 1 1 -0 -0 0 -1 -1 -2 -3 -3 -4 -4 -4 -4 -4 -5 -5 -6 -6 -6 -7 -5 -6 -5 -5 -4 -4 -4 -3 -3

GFSMA_850_temp_075.txt.gz
Temp
14 14 14 14 14 14 14 13 13 13 13 13 13 13 13 13 13 13 13 14 14 14 14 13 13 13 13 13 13 13 13 13 13 13 13 13 13 12 12 12 12 12 13
14 15 14 15 14 15 14 13 13 13 13 13 13 13 13 13 13 13 13 14 14 14 13 13 13 13 12 11 11 11 13 13 12 12 12 12 12 12 12 12 12 11 11
15 15 15 14 14 14 14 13 13 13 13 13 13 13 13 13 13 13 13 13 13 14 14 13 13 13 13 12 12 11 11 11 12 12 12 11 12 12 11 11 11 11 11
16 15 15 15 14 13 14 13 13 13 13 13 13 14 14 13 13 13 13 12 12 13 13 14 13 13 12 12 12 11 11 11 11 11 11 11 11 11 11 11 11 11 10
14 15 14 14 14 13 13 13 13 13 13 13 13 13 13 13 13 13 13 13 12 12 12 12 12 12 12 12 11 12 11 11 11 11 11 11 10 10 10 11 11 11 10
14 14 14 14 13 13 13 13 13 13 13 13 13 13 13 13 12 12 13 12 12 12 11 11 12 12 12 12 11 11 11 11 11 10 10 10 10 10 9 9 10 10 10
14 14 14 13 13 13 13 13 13 13 13 13 12 12 13 13 13 13 12 12 12 12 11 12 11 11 11 10 11 11 11 10 10 10 10 10 9 8 9 9 8 7 7
15 15 15 14 14 13 13 13 13 13 13 13 12 12 12 13 13 13 12 12 12 11 11 11 11 11 10 10 9 10 10 10 10 10 10 9 9 9 8 9 8 8 7
15 15 15 14 14 13 13 13 13 13 12 12 11 11 12 13 13 13 12 11 11 11 10 10 10 10 10 10 9 9 10 10 10 10 10 10 9 9 9 8 8 8 7
15 15 15 14 14 14 14 13 13 13 11 11 11 11 11 11 11 11 12 11 11 11 10 10 9 8 8 9 9 9 9 9 9 9 9 9 9 9 9 9 9 7 7
15 14 14 14 13 13 13 13 12 12 12 12 11 10 10 10 11 10 10 11 11 10 10 9 8 8 8 8 8 8 8 8 8 9 9 9 9 8 8 8 9 8 8
13 13 13 12 12 12 12 12 12 11 11 11 11 9 9 10 9 10 10 9 10 10 10 9 8 8 8 7 8 7 7 8 8 8 8 8 8 8 8 8 8 8 7
12 12 12 11 11 11 11 11 11 10 10 10 10 9 9 9 9 9 9 9 9 8 9 8 8 7 7 7 7 7 7 7 7 7 8 8 8 8 8 8 8 8 7
11 11 10 10 10 10 10 10 9 9 9 9 9 8 9 9 9 9 9 8 8 7 7 7 6 6 6 6 6 6 6 6 7 7 7 7 7 7 7 7 7 7 7
10 9 9 9 9 9 9 9 9 8 8 8 7 7 8 8 8 8 8 8 7 7 7 6 6 6 6 6 5 5 5 6 6 6 6 6 6 6 6 6 7 7 7
9 9 8 8 8 8 8 8 8 8 7 7 7 6 6 7 7 7 7 7 6 6 5 5 6 5 5 5 5 4 4 5 5 5 5 5 5 5 5 5 5 6 5
8 8 8 8 8 7 7 7 7 6 6 6 6 6 5 5 5 6 6 6 6 5 5 4 5 5 5 5 4 4 4 4 4 4 3 4 4 4 4 4 4 4 4
7 7 7 7 7 7 6 6 6 5 5 5 5 5 5 5 5 5 5 5 5 5 4 4 5 4 4 4 4 3 3 3 3 3 3 3 3 2 2 2 3 3 3
6 6 6 6 6 5 5 5 4 4 4 4 4 4 4 4 4 4 4 4 4 4 4 3 3 3 3 3 3 3 3 2 2 2 2 3 2 2 2 2 2 2 2
5 5 5 5 5 4 4 4 3 3 3 3 2 2 3 3 3 3 3 3 3 3 2 2 2 2 2 2 2 1 0 0 1 1 1 1 1 1 1 1 1 1 1
5 4 4 4 4 4 3 3 1 1 2 2 2 2 2 2 2 3 3 3 3 2 2 1 0 0 -1 -1 0 -0 -0 -0 -2 -0 -0 -0 -0 -0 -0 0 0 0 0
3 3 3 3 3 3 3 3 2 2 2 2 2 2 2 3 3 3 3 3 2 2 2 1 0 -0 -2 -1 -1 -1 -1 -1 -2 -3 -1 -1 -1 -1 -1 -0 0 -0 -1
0 1 1 2 2 2 1 1 1 2 2 2 2 2 2 2 2 2 2 2 2 1 1 0 -0 -1 -2 -1 -2 -2 -3 -3 -3 -3 -2 -2 -3 -2 -2 -2 -1 -1 -1
0 -0 1 1 1 1 2 2 1 2 2 2 2 2 2 2 2 1 1 1 0 0 -0 -0 -1 -1 -2 -2 -3 -3 -4 -4 -4 -5 -4 -3 -4 -3 -3 -3 -2 -2 -2
0 0 0 0 1 2 2 2 2 1 2 2 2 2 1 1 1 0 1 -0 -1 -0 -1 -1 -2 -2 -2 -3 -3 -4 -4 -4 -5 -6 -4 -4 -4 -3 -3 -3 -3 -2 -2
-0 -0 0 1 1 2 2 2 2 2 1 1 1 1 1 1 1 1 -0 -1 -2 -1 -2 -2 -3 -2 -3 -3 -4 -4 -4 -4 -5 -6 -5 -5 -4 -4 -3 -3 -3 -3 -3

GFSMA_850_temp_078.txt.gz
Temp
15 15 15 15 15 16 15 15 15 15 14 14 14 14 14 14 13 13 13 14 14 14 14 14 14 13 13 13 13 13 13 13 13 13 13 13 13 13 12 12 12 12 12
15 15 15 16 16 16 16 15 14 14 14 14 13 13 13 14 14 13 13 14 14 14 14 13 13 13 13 12 12 11 13 13 12 12 12 12 12 12 12 12 12 12 12
15 15 15 15 15 15 15 14 14 14 14 14 14 14 14 14 14 13 13 13 13 13 13 13 13 12 12 12 12 11 12 12 12 12 12 12 11 12 12 12 12 11 11
15 15 15 15 14 14 14 14 14 14 14 13 13 14 13 14 13 13 13 13 13 12 12 12 12 12 12 11 11 11 11 11 11 11 11 11 11 11 11 11 11 11 11
15 15 15 14 14 14 14 14 14 13 13 13 13 13 14 13 14 13 13 13 12 12 12 12 11 12 11 11 11 11 11 11 11 11 11 10 10 10 10 10 10 11 11
14 14 14 14 13 13 13 13 13 13 13 13 13 13 13 13 13 13 13 13 13 12 12 12 11 11 11 11 10 11 11 11 11 10 10 10 10 10 10 10 9 9 9
14 14 14 14 13 13 13 13 13 13 13 13 12 12 13 13 13 13 13 12 12 12 12 11 11 11 10 10 10 10 10 11 11 11 10 10 10 9 9 9 10 9 8
14 14 14 14 14 13 13 13 13 12 12 12 12 12 12 13 13 13 13 12 12 11 11 11 11 10 10 9 9 10 10 10 10 10 10 10 10 9 9 9 9 8 8
14 14 14 14 14 13 14 13 13 12 12 12 11 11 11 12 12 13 12 12 11 11 11 11 10 9 9 9 9 9 9 9 9 9 10 10 11 10 9 9 9 9 8
15 15 15 15 14 14 14 13 13 13 12 11 11 11 11 10 10 11 12 11 11 11 11 10 9 9 8 9 8 8 8 8 9 9 9 9 9 9 8 8 9 9 9
15 15 15 14 14 14 13 12 12 12 12 11 11 10 9 10 10 10 10 11 11 11 11 10 9 9 8 8 8 7 7 8 8 8 8 8 8 9 8 8 9 8 9
15 14 14 13 13 12 12 12 11 11 11 10 11 10 9 8 9 10 10 10 9 9 10 9 10 9 8 7 7 7 7 7 7 7 7 7 8 8 8 9 9 8 8
13 13 13 12 12 11 11 11 10 10 10 9 8 8 8 8 8 9 9 9 9 9 9 9 8 8 7 6 6 6 6 6 6 7 7 7 7 8 8 8 8 9 8
12 11 11 11 11 10 10 10 9 9 9 9 9 8 8 8 8 8 8 9 8 8 8 8 7 6 6 6 6 5 5 5 6 6 6 6 7 7 7 7 8 9 9
11 10 10 10 9 9 9 9 9 9 8 8 8 7 7 7 7 7 8 8 8 8 7 7 7 6 6 5 5 5 4 4 5 5 5 6 6 6 6 5 5 7 7
10 10 9 9 9 9 8 8 8 8 7 7 7 6 6 6 7 7 7 7 7 7 6 6 6 5 5 5 5 4 4 4 4 4 4 4 5 5 5 5 5 5 6
9 9 9 8 8 8 8 7 7 7 6 6 7 6 4 5 4 5 6 6 6 6 5 4 4 4 4 4 4 4 3 3 3 4 4 4 4 4 5 5 5 5 5
9 8 8 7 7 7 7 6 6 6 5 5 5 5 5 4 4 4 5 5 5 5 4 3 4 4 4 4 4 3 3 3 3 3 3 3 3 2 2 3 3 3 3
7 7 6 6 6 6 6 5 5 5 5 4 4 4 4 4 4 4 4 4 4 4 4 4 3 4 4 3 3 3 3 2 2 2 2 2 2 2 2 3 2 2 2
6 6 5 5 6 5 5 5 4 3 3 3 3 3 3 3 3 3 3 3 3 4 3 3 3 3 3 2 2 2 1 2 2 1 1 1 1 1 1 2 2 3 2
6 5 5 5 4 4 4 3 2 1 2 2 2 2 1 1 1 2 3 3 3 3 3 2 2 1 1 1 1 1 1 1 0 1 -0 -1 -0 -0 -0 1 1 1 1
5 4 3 3 3 3 2 2 1 1 1 1 1 2 2 2 2 2 3 3 3 3 3 2 1 1 0 0 -0 -0 -0 -0 -1 -1 -1 -1 -1 -1 -1 -1 -0 -0 -0
4 2 1 1 2 2 1 0 0 1 1 1 1 2 2 2 2 3 3 2 2 2 2 1 1 0 -0 -0 -1 -1 -1 -2 -2 -2 -2 -2 -1 -2 -1 -1 -1 -1 -1
0 0 0 0 2 1 0 0 1 1 1 1 2 2 2 2 2 2 2 2 2 1 0 0 -0 -1 -1 -1 -2 -2 -2 -2 -3 -2 -3 -2 -2 -2 -2 -2 -1 -2 -2
0 0 -0 0 1 1 1 2 2 1 1 1 1 1 1 2 2 2 1 2 1 0 -0 -0 -1 -1 -2 -2 -2 -2 -2 -3 -3 -4 -3 -3 -3 -2 -2 -2 -2 -2 -2
0 -0 -0 -0 0 1 1 1 1 1 1 2 1 1 1 2 2 1 1 1 0 0 -0 -1 -1 -2 -2 -2 -2 -2 -2 -3 -3 -4 -3 -4 -3 -3 -2 -2 -2 -3 -3

GFSMA_850_temp_081.txt.gz
Temp
15 16 16 16 16 16 16 16 16 15 15 15 15 15 14 14 14 14 14 14 14 14 14 13 13 13 12 12 13 13 13 12 12 12 12 12 13 13 13 13 12 12 12
15 15 15 15 16 16 15 15 15 15 15 14 14 14 14 14 14 14 13 14 13 13 13 13 13 12 12 12 12 12 12 12 12 12 12 12 12 12 12 12 12 12 12
15 15 15 15 15 15 15 15 15 14 14 14 14 14 14 13 13 13 13 13 13 13 12 12 12 12 12 12 12 12 12 11 11 11 11 11 11 11 11 12 12 11 11
15 15 15 15 15 15 14 14 14 14 14 14 13 13 13 14 14 14 13 13 12 12 12 12 12 12 11 11 11 11 11 11 11 11 11 11 11 10 11 11 11 11 11
15 15 15 15 14 14 14 14 14 13 13 13 13 13 13 13 13 13 13 13 12 12 12 12 12 12 11 11 11 11 11 11 11 11 10 10 10 10 10 10 10 10 11
14 14 14 14 14 13 13 13 13 13 13 13 13 13 13 13 13 13 14 13 13 12 12 12 11 11 11 11 10 10 11 11 11 11 10 10 10 10 9 10 10 10 10
14 15 14 14 14 13 13 13 13 13 13 13 12 13 13 12 13 13 13 13 12 12 12 12 11 11 11 10 10 10 10 10 10 10 10 10 10 10 10 9 9 9 9
14 14 14 13 13 14 13 12 12 12 12 11 12 12 12 12 12 13 13 13 13 12 12 11 11 10 10 9 9 9 9 9 9 10 10 10 10 10 10 9 9 9 9
14 15 15 15 14 12 12 12 12 11 11 11 11 11 12 12 12 12 12 12 11 11 11 11 11 10 10 9 9 9 8 9 9 9 9 9 9 9 9 9 9 9 9
14 14 14 14 14 14 14 14 13 13 12 12 12 12 10 10 10 10 11 11 11 11 10 10 10 10 9 9 8 7 8 8 8 8 8 8 9 8 7 8 9 9 9
14 14 15 14 14 14 14 13 13 12 12 11 11 11 11 10 10 9 9 10 10 10 10 9 9 9 10 9 7 7 7 7 7 7 8 8 8 8 8 9 9 9 9
14 15 14 14 13 13 13 12 12 11 11 11 11 10 10 10 9 9 9 9 10 9 9 9 8 8 9 8 8 7 6 6 6 6 7 6 7 8 8 8 9 9 9
15 14 13 13 12 12 12 11 11 11 10 10 10 10 8 7 8 8 8 8 9 9 9 8 8 8 8 7 6 6 5 5 5 5 5 5 7 7 7 7 8 9 9
14 14 13 12 12 11 11 11 10 10 10 9 9 9 8 7 7 7 8 8 8 7 8 7 8 7 7 5 5 5 5 4 4 5 5 6 6 6 6 6 6 8 9
12 12 12 11 11 10 10 10 10 9 9 8 8 9 8 7 7 7 7 7 7 7 8 7 6 7 6 5 5 5 4 4 4 4 4 5 5 5 5 5 4 7 8
11 11 11 10 10 9 9 9 9 8 8 8 7 8 7 6 6 6 6 7 7 7 6 6 6 5 5 5 5 5 4 4 4 4 4 4 4 4 5 5 5 4 6
11 10 10 9 9 8 8 8 8 7 7 7 7 7 6 4 4 5 6 6 6 6 6 5 5 4 4 4 4 4 4 4 3 3 3 3 4 4 5 5 5 5 5
10 8 8 8 8 7 7 7 6 6 6 6 5 5 5 4 3 3 3 4 5 5 5 4 3 3 4 4 3 3 3 3 3 2 2 2 2 3 3 4 3 4 4
9 8 7 7 7 6 6 6 5 5 5 4 4 4 4 4 3 4 4 4 4 4 4 4 3 3 3 3 3 2 2 2 2 2 2 2 2 2 2 2 3 3 3
7 7 6 6 6 5 5 5 4 4 4 3 3 3 2 2 2 3 3 3 3 4 3 3 2 1 2 2 2 2 1 1 1 1 1 1 1 1 1 1 2 2 2
7 5 5 5 5 5 5 3 3 3 1 2 2 2 1 1 1 1 2 3 3 3 3 2 2 2 2 2 1 1 1 0 1 1 -0 0 0 0 1 1 1 0 1
6 5 5 4 4 4 3 2 2 1 1 1 2 2 1 1 2 2 2 2 3 3 3 3 2 1 1 1 0 0 0 -0 -0 -0 -1 -0 -0 -0 -0 -0 -0 0 0
5 4 4 3 2 3 2 1 -0 0 0 1 1 1 2 2 2 2 2 2 3 2 3 2 2 1 1 0 -0 -0 -1 -1 -1 -1 -1 -1 -1 -1 -1 -1 -1 -1 -1
4 3 1 0 0 1 0 -0 -0 0 0 1 1 1 2 2 2 2 2 2 2 2 2 2 1 1 0 0 -0 -1 -1 -2 -2 -2 -2 -1 -1 -2 -2 -1 -1 -1 -1
3 1 0 0 -0 0 0 -0 0 1 1 1 1 1 1 1 1 1 1 1 1 1 2 1 1 0 0 -0 -0 -1 -1 -2 -3 -2 -2 -2 -2 -2 -1 -1 -2 -2 -2
2 0 -0 -0 -0 -0 0 1 1 1 1 1 1 1 1 1 1 1 1 1 1 1 1 1 -0 -1 -1 -1 -1 -2 -2 -2 -3 -3 -2 -2 -2 -2 -2 -2 -2 -2 -2

GFSMA_850_temp_084.txt.gz
Temp
16 16 16 16 16 16 16 16 15 15 15 14 14 14 14 14 14 14 14 14 13 13 13 13 12 12 12 12 12 12 12 12 12 12 12 12 12 12 12 12 12 12 12
15 15 16 16 16 16 16 16 15 15 14 14 14 14 14 14 14 13 13 13 13 13 12 12 12 12 12 12 12 12 11 12 11 11 11 11 11 11 11 12 12 12 12
15 15 15 16 15 15 15 15 15 14 14 14 14 14 14 13 13 14 13 13 13 13 12 12 13 12 12 12 12 12 11 11 11 11 11 11 11 11 11 11 11 11 11
15 15 15 15 15 15 15 14 14 14 14 14 13 13 13 13 13 13 13 13 13 12 12 12 12 11 12 11 11 11 11 11 11 11 10 10 10 10 10 10 10 11 11
15 15 15 15 15 14 14 14 13 13 13 13 13 13 13 13 13 13 13 13 13 12 12 12 12 12 12 11 11 11 11 11 11 11 10 10 10 10 10 10 10 10 10
14 14 14 14 14 14 13 13 13 13 13 13 13 13 13 13 13 13 13 13 13 12 12 12 12 11 11 11 10 10 10 10 10 10 10 10 10 10 10 10 9 10 10
15 15 15 14 14 13 13 13 13 13 13 13 12 12 12 13 13 13 13 13 13 12 12 12 12 11 11 11 10 10 10 10 10 10 10 10 10 10 10 10 10 10 10
15 15 15 14 13 13 13 13 12 12 12 12 12 11 11 12 12 12 12 13 13 12 12 11 11 11 11 11 10 9 9 9 9 9 9 9 9 9 9 10 9 9 9
15 15 14 14 13 13 13 12 12 12 11 12 11 11 11 11 11 12 11 11 11 12 11 11 11 11 10 10 10 9 8 8 8 8 9 9 9 9 9 9 9 10 9
15 15 14 14 14 15 14 14 13 13 12 12 12 12 11 10 10 10 10 10 10 11 11 11 10 9 10 9 9 9 8 8 8 8 8 8 8 7 8 8 8 8 9
15 15 15 15 15 14 14 14 13 13 12 12 12 12 11 10 10 9 9 10 10 10 10 9 10 9 9 8 9 8 7 7 7 7 7 7 6 8 8 8 8 9 9
15 15 15 15 15 14 14 13 13 12 12 11 11 11 10 10 10 9 8 9 9 9 8 9 8 8 7 7 7 7 6 6 6 6 6 6 6 7 7 7 7 8 8
15 15 14 14 14 13 13 12 12 11 11 11 10 10 9 9 8 8 7 8 8 8 8 8 8 8 7 7 7 6 5 5 4 5 4 4 6 6 7 7 7 8 9
14 14 14 14 13 12 11 11 11 11 10 10 10 9 9 9 7 7 7 7 8 7 7 7 8 7 7 7 6 5 5 5 4 4 4 6 6 6 7 7 7 8 9
13 13 13 13 12 12 11 10 10 10 10 9 9 8 8 8 7 7 6 7 7 7 7 7 7 7 6 6 5 5 5 5 4 4 4 5 5 6 5 6 4 5 7
13 12 11 11 11 11 10 9 9 9 8 8 8 7 7 7 6 6 6 6 6 6 6 6 6 6 5 4 4 4 4 4 3 4 3 4 4 5 4 5 5 4 5
11 11 11 10 10 10 9 8 8 8 7 7 7 6 6 6 5 5 5 5 5 6 6 6 5 5 4 3 3 4 4 3 3 3 3 3 4 4 4 4 5 4 4
11 10 10 10 9 8 8 8 7 7 6 6 6 5 6 5 3 3 3 3 3 5 4 4 4 3 3 3 3 3 3 3 3 3 3 3 3 3 3 4 3 4 5
9 9 9 9 8 7 7 6 6 6 6 5 5 4 4 4 3 2 2 3 3 4 4 3 3 2 2 2 3 2 2 2 2 2 2 2 1 2 2 2 3 3 3
8 8 8 8 7 7 6 5 5 5 4 4 4 4 3 3 2 2 2 3 3 3 3 3 3 2 2 2 2 1 1 1 1 1 1 1 1 1 2 1 2 2 2
8 8 7 7 6 6 5 4 4 3 3 3 2 2 2 1 1 1 1 2 2 2 2 2 2 2 2 2 2 1 1 1 1 0 1 1 0 1 1 1 1 2 2
7 7 6 5 5 4 4 3 2 1 0 1 0 1 1 0 1 1 1 1 2 2 2 2 2 2 1 1 1 1 1 1 1 0 -1 -0 -0 0 -0 -0 0 1 1
6 5 5 5 4 2 1 1 -0 -0 0 0 -0 0 1 2 2 1 2 2 3 2 2 2 1 2 1 1 1 1 0 -0 -0 -0 -0 -0 -1 -0 -1 -1 -0 -1 -0
5 4 4 2 -0 -0 0 -0 -0 -1 -1 -0 0 1 1 1 2 1 1 1 2 2 2 2 2 1 0 0 0 -0 -1 -1 -1 -1 -1 -1 -1 -1 -1 -1 -1 -1 -1
4 3 2 0 -0 -0 -0 -1 -1 -1 -0 0 1 1 1 1 1 1 1 1 1 1 2 2 1 1 0 0 -0 -1 -1 -1 -1 -1 -1 -2 -2 -2 -1 -1 -1 -1 -1
3 2 1 0 -0 -0 -1 -1 -0 0 0 1 1 1 1 1 1 1 1 1 1 1 1 0 0 0 -0 -0 -1 -1 -1 -2 -2 -2 -2 -2 -2 -2 -2 -2 -2 -2 -2

GFSMA_850_temp_087.txt.gz
Temp
15 15 16 15 15 16 16 15 15 15 15 14 14 14 14 14 14 14 14 13 13 13 12 12 12 12 12 13 12 12 12 12 11 11 11 11 12 12 12 12 12 12 12
15 15 15 15 15 15 15 15 15 15 14 14 14 14 14 13 13 13 13 13 13 13 12 12 12 12 12 12 12 12 11 11 11 11 11 11 11 11 11 11 12 12 12
15 15 15 15 15 15 15 15 14 14 14 14 14 13 13 13 13 13 13 13 13 13 13 13 13 13 12 12 12 12 11 11 11 11 11 11 11 11 11 11 11 11 11
15 14 14 15 14 14 14 14 14 14 14 13 13 13 13 13 13 13 13 13 13 13 13 12 12 12 12 12 12 11 11 11 11 11 11 11 10 10 10 10 10 11 11
14 14 14 14 14 14 14 14 13 13 13 13 13 13 13 13 12 12 12 13 12 12 12 12 12 12 12 11 11 11 11 10 10 10 10 10 10 10 10 9 10 10 10
14 15 14 14 14 14 14 13 13 13 12 13 13 13 13 12 13 13 12 12 12 12 12 12 12 12 11 11 11 10 10 10 10 10 10 10 10 10 10 10 10 10 10
15 15 15 14 14 14 13 13 13 13 13 12 12 12 12 12 12 13 13 13 13 13 12 12 12 11 11 11 11 10 10 9 9 9 9 9 10 10 10 10 10 10 10
14 15 15 14 14 14 13 13 12 12 12 12 12 12 11 12 13 12 12 12 12 12 12 12 11 11 11 11 10 10 9 9 9 9 9 9 9 9 9 9 10 9 10
14 15 14 14 14 14 13 13 12 13 13 12 12 11 11 11 11 11 11 11 11 11 11 11 11 11 10 10 9 9 9 9 9 8 8 8 8 7 7 8 9 9 9
15 15 15 15 14 14 13 13 14 13 13 13 12 12 11 10 10 10 10 10 10 10 10 11 10 10 10 9 9 8 8 8 8 8 8 8 7 6 7 8 9 8 8
14 14 14 15 14 14 14 14 14 13 13 13 12 11 11 10 10 9 8 9 9 9 9 9 9 9 9 9 8 7 7 7 7 6 7 6 6 6 7 8 8 8 8
13 14 15 15 14 14 14 14 14 13 12 12 11 11 10 10 9 9 8 8 8 8 9 9 8 8 8 8 7 7 7 6 6 6 6 6 5 5 5 6 6 7 8
14 15 15 14 14 14 14 13 13 12 12 11 10 10 9 9 8 8 7 7 7 8 8 8 8 8 7 7 7 7 6 5 5 5 4 4 5 6 5 5 5 6 8
14 14 13 14 13 13 13 12 12 11 11 11 10 9 9 8 8 7 6 6 7 7 7 7 7 7 7 7 6 6 5 5 5 5 4 5 5 6 6 6 6 7 8
14 13 13 13 13 13 12 11 10 10 10 10 9 8 8 7 7 7 6 6 6 6 7 7 6 6 6 6 6 5 4 4 4 4 4 4 5 5 5 6 6 5 6
13 12 12 11 11 11 12 11 11 10 9 9 8 8 7 7 7 6 4 5 5 5 6 6 6 6 6 5 5 5 4 4 4 4 4 4 4 4 5 5 5 4 4
12 12 11 12 12 11 10 10 9 9 8 8 7 6 6 6 5 5 4 4 4 5 5 5 5 5 5 4 4 4 3 3 4 3 4 3 4 4 4 4 4 4 4
12 11 11 12 10 10 9 8 8 7 7 7 6 5 5 5 5 4 3 3 3 4 4 4 4 4 4 4 3 2 3 3 2 3 3 3 3 4 3 3 3 4 4
10 10 10 9 9 8 8 7 7 7 6 5 5 4 4 4 4 2 2 2 2 2 3 3 3 3 3 2 2 2 2 2 2 2 2 1 2 3 2 2 2 3 3
9 9 9 8 8 7 7 7 6 6 5 5 4 3 3 2 2 2 1 1 2 2 2 2 2 2 2 1 2 1 1 1 2 2 2 1 1 2 2 1 2 2 2
8 8 8 7 7 6 6 6 5 5 4 3 2 1 1 1 1 1 1 1 1 1 2 2 2 1 2 1 2 2 1 1 1 1 1 1 1 1 1 1 1 2 2
7 7 7 7 6 5 5 5 4 3 1 1 1 0 0 1 0 1 1 1 1 2 1 1 1 1 1 1 1 1 1 1 0 0 1 0 -0 0 0 0 1 1 2
7 6 6 5 5 4 4 2 1 0 0 0 -0 -0 -0 0 1 1 1 1 2 2 2 2 1 1 1 1 0 0 0 -0 0 0 -0 -0 -0 -0 -0 0 0 0 1
6 6 5 5 4 3 0 -1 -1 -1 -1 -1 -1 -1 -0 0 1 1 1 1 1 2 2 2 1 1 1 1 -0 0 -0 -0 -0 -1 -1 -1 -1 -1 -1 -0 0 0 -0
5 5 5 4 3 1 0 -1 -1 -1 -1 -1 -1 -1 0 0 1 0 1 1 1 1 1 2 1 1 0 0 -0 -0 -0 -1 -1 -1 -1 -1 -1 -1 -1 -1 -0 -0 -0
5 5 4 3 2 0 0 -0 -1 -1 -1 -1 0 0 0 0 0 0 1 1 0 1 2 1 1 0 0 0 0 -0 -1 -1 -1 -2 -1 -2 -1 -2 -1 -1 -1 -1 -1

GFSMA_850_temp_090.txt.gz
Temp
16 16 16 16 15 15 15 15 14 14 14 14 14 14 14 14 13 13 13 13 13 13 12 12 12 12 12 12 12 12 11 11 12 12 11 11 11 11 12 12 12 12 12
15 15 15 15 15 15 15 15 14 14 14 14 14 14 14 13 13 13 13 13 13 13 13 12 13 13 12 12 12 11 11 11 11 11 11 11 11 11 11 11 11 12 12
15 15 15 15 14 15 14 14 14 14 14 14 13 13 13 13 13 13 13 13 13 13 13 13 12 12 12 12 12 11 11 11 11 11 11 11 11 10 10 11 11 11 11
14 14 14 14 14 14 14 14 14 14 13 13 13 13 13 13 13 13 12 12 12 13 13 12 12 12 12 12 11 11 11 11 11 11 11 11 10 10 10 10 10 10 10
14 14 14 14 14 14 14 14 13 13 13 13 13 13 13 13 12 12 12 12 12 12 12 12 12 12 12 11 11 11 11 10 10 10 10 10 10 10 10 10 9 10 10
15 14 14 14 14 14 14 13 13 12 12 12 13 12 13 13 13 12 12 12 12 12 12 12 12 12 11 11 11 11 10 10 10 10 10 10 10 10 10 10 10 10 10
15 14 14 14 14 14 13 13 13 13 12 12 12 12 12 12 13 13 13 12 12 13 13 12 12 11 12 11 11 11 10 10 10 9 10 10 10 10 9 9 10 10 9
14 14 14 14 14 14 14 13 13 12 12 12 12 12 11 12 12 12 12 12 12 12 12 12 12 11 11 11 11 10 10 9 9 9 9 9 8 9 9 9 9 9 10
14 14 14 14 14 14 13 13 13 13 12 12 12 11 11 11 11 11 11 11 11 11 11 11 11 11 11 10 10 9 9 9 9 9 8 8 7 7 7 8 8 8 8
14 14 13 13 13 12 13 13 13 13 12 13 13 12 11 11 9 9 10 10 10 10 10 10 10 10 10 10 9 9 9 8 8 8 7 7 7 6 6 6 7 8 8
14 14 13 13 13 12 12 14 14 13 13 13 12 12 11 10 10 9 8 9 9 9 9 9 9 9 9 9 9 8 8 8 8 7 6 6 6 6 6 6 6 6 7
13 14 13 13 12 13 14 13 13 13 13 12 12 11 11 10 9 8 8 8 9 8 8 8 8 9 8 8 8 7 7 7 7 6 5 5 5 5 5 6 6 5 5
12 13 13 13 13 13 13 13 13 13 12 12 12 11 10 10 9 8 7 6 6 7 7 7 8 8 8 7 7 7 7 6 6 5 5 4 4 5 4 4 4 5 6
12 12 13 13 13 13 13 12 12 12 12 11 11 10 10 9 8 8 7 6 5 6 6 7 7 7 7 7 6 6 5 5 5 5 5 4 5 5 5 5 5 6 6
13 13 12 12 12 12 12 11 11 11 10 10 9 9 9 8 7 7 6 6 4 5 6 6 6 6 6 6 6 6 5 5 4 4 4 4 4 4 5 5 5 4 4
13 12 12 12 12 12 12 12 11 11 10 8 8 8 7 7 7 6 5 5 4 4 4 5 6 6 5 5 5 5 4 4 3 4 4 4 4 4 4 5 5 4 3
12 12 12 12 12 12 13 12 11 10 9 8 7 7 6 6 5 5 5 3 3 3 4 5 4 5 5 5 4 4 4 3 3 3 3 3 4 4 4 4 4 4 3
10 11 11 11 11 12 11 10 9 9 8 7 6 6 6 5 5 5 4 3 2 3 3 3 4 4 4 4 4 4 3 2 3 2 2 3 3 3 3 3 4 4 4
10 10 10 10 11 10 10 9 8 8 8 6 6 5 4 4 4 4 3 2 2 2 2 2 2 2 3 3 3 2 2 2 2 2 2 2 2 3 2 2 3 3 3
10 10 10 9 10 9 9 8 8 8 6 5 5 4 3 3 2 2 1 1 1 1 1 2 2 2 2 2 2 1 1 1 1 1 2 1 1 2 1 1 2 2 3
9 9 9 9 9 8 8 7 7 6 6 5 4 2 1 0 0 1 1 1 0 1 1 1 2 2 1 1 1 1 1 1 1 1 1 1 1 0 0 1 2 2 2
8 8 8 8 8 7 7 6 6 6 5 2 0 0 0 0 0 0 0 1 1 1 1 1 1 1 1 1 1 1 1 1 0 1 1 0 -0 -0 -0 0 1 1 2
7 7 7 7 7 6 6 5 5 4 2 0 0 0 -0 -0 -0 0 1 1 1 1 1 1 0 1 1 1 1 0 1 0 0 -0 -0 -0 -1 -1 -1 -0 0 -0 0
7 7 6 6 6 5 5 4 2 -0 -0 -0 -0 -0 -0 -1 0 1 1 1 1 1 2 1 1 1 2 1 1 1 0 -0 -0 -1 -1 -1 -1 -1 -1 -1 -0 -0 -0
6 6 6 5 5 4 3 2 0 -0 -0 -1 -1 -1 -1 -1 -0 0 0 1 0 0 1 1 1 1 1 1 1 1 -0 -0 -0 -0 -1 -1 -1 -1 -1 -1 -1 -1 -0
5 5 5 4 4 3 3 1 1 -0 -1 -1 -1 -1 -1 -0 -0 -0 -0 0 0 -0 0 1 0 0 0 0 1 0 -0 -0 -0 -0 -1 -1 -1 -1 -1 -1 -1 -1 -1

GFSMA_850_temp_093.txt.gz
Temp
15 15 15 15 15 15 15 15 15 15 14 14 14 14 14 14 14 13 13 13 13 13 13 12 13 12 12 12 12 12 12 11 12 12 12 11 11 11 12 12 12 12 12
15 15 15 15 15 15 15 15 14 14 14 14 14 14 14 13 13 13 13 13 13 13 13 13 13 13 12 12 12 12 12 11 11 11 12 11 11 11 11 11 11 11 11
15 14 14 15 14 14 14 14 14 14 14 14 14 13 13 13 13 13 13 12 12 13 13 13 13 12 12 12 11 11 11 11 11 11 11 11 11 10 10 11 10 10 11
15 14 14 14 14 14 14 14 14 14 14 14 13 13 13 13 13 13 12 12 12 12 13 12 13 12 12 12 11 11 11 11 11 10 11 11 11 10 10 10 9 10 10
14 14 14 14 13 14 14 14 14 13 13 13 13 13 13 13 13 13 12 12 12 12 12 12 12 12 12 11 11 11 11 11 11 10 10 10 10 10 10 10 10 9 10
14 14 14 14 13 13 14 13 13 13 12 12 12 12 13 13 13 13 13 13 13 13 12 12 12 12 11 11 11 11 11 11 10 10 10 10 10 10 10 10 10 10 10
14 14 14 13 13 13 14 13 13 13 12 13 12 13 12 13 13 13 13 13 13 12 12 12 12 11 11 11 11 11 11 10 10 10 9 9 9 9 9 9 9 10 10
15 14 14 13 13 13 13 13 13 12 12 12 12 12 11 12 12 12 12 11 12 12 12 12 12 11 11 10 10 11 10 9 9 9 9 9 8 7 7 8 9 9 9
13 14 15 14 12 12 13 12 12 12 12 12 11 11 11 11 11 11 11 11 11 11 11 11 11 11 10 10 10 10 10 9 9 8 9 8 7 7 7 7 7 7 8
13 13 13 13 12 12 12 12 12 12 12 13 12 12 12 11 9 9 10 10 10 10 10 10 10 10 10 10 9 9 9 9 8 8 8 7 7 7 7 6 6 6 7
12 12 12 12 12 12 12 12 11 11 12 12 13 12 12 11 11 10 8 10 9 9 9 9 9 9 9 9 9 8 8 8 8 8 7 7 6 7 6 7 6 7 6
12 12 12 12 12 11 12 12 11 12 12 13 13 12 11 10 10 9 8 9 8 9 8 8 8 8 8 8 8 8 7 7 7 7 6 5 6 5 5 6 6 6 5
13 12 12 12 12 11 12 12 11 12 13 13 12 12 11 10 9 8 8 6 5 6 7 7 7 7 8 8 7 7 7 7 6 6 6 5 5 5 4 4 6 5 4
13 12 12 12 11 11 12 12 12 11 12 12 12 11 11 10 9 8 6 6 5 5 5 6 6 6 7 7 7 6 6 6 6 5 4 4 4 4 4 4 4 5 5
13 13 12 12 11 11 12 12 11 12 11 11 10 10 10 9 8 8 6 6 5 4 5 6 6 6 6 6 5 6 6 5 5 5 4 4 4 4 4 5 5 4 5
13 12 12 11 11 11 11 12 12 11 11 11 10 10 9 8 8 7 6 5 5 4 4 4 5 5 6 6 5 4 5 5 4 3 3 4 4 4 4 4 4 4 4
12 11 11 11 11 11 11 11 11 10 12 11 10 9 8 7 7 6 5 4 4 3 3 4 4 4 5 4 4 4 4 4 3 3 2 3 3 3 4 4 4 4 4
11 10 10 10 10 10 10 10 10 10 11 10 9 8 7 6 6 6 5 5 3 2 3 3 3 3 3 4 4 3 3 3 2 2 2 2 3 3 3 3 4 4 3
10 10 10 10 10 10 10 9 10 10 10 9 8 7 6 5 5 5 5 4 1 2 2 2 2 2 2 2 3 3 3 2 2 1 1 1 1 2 2 2 3 3 3
9 9 9 9 9 9 9 9 9 9 9 8 7 6 5 5 4 3 1 1 1 1 1 1 1 1 2 2 2 2 2 1 0 1 0 0 1 2 1 2 2 2 2
8 8 8 8 8 8 9 8 8 8 8 7 7 6 4 2 0 1 1 1 1 1 1 1 1 1 1 1 1 1 1 0 0 0 1 0 0 1 1 1 1 2 2
8 7 7 7 7 8 8 8 8 8 7 7 6 3 1 0 0 0 -0 0 1 1 1 1 1 1 1 0 0 0 1 1 0 1 0 0 0 -0 -0 0 1 1 1
7 7 7 7 7 7 7 7 8 7 6 5 2 0 0 -0 -1 -0 0 1 1 1 1 1 1 1 0 0 1 0 1 1 1 0 0 -0 -0 -0 -1 -1 0 0 0
6 6 6 6 6 6 6 6 6 5 5 1 -0 -0 -0 -1 -1 0 1 1 1 1 2 2 1 1 1 1 1 1 0 1 1 -0 -0 -0 -0 -0 -1 -1 -1 -0 -0
6 6 6 6 6 5 5 5 4 3 1 -0 -0 -0 -1 -1 -1 0 1 1 1 1 1 1 1 1 1 1 1 0 1 1 1 0 -0 -1 -1 -1 -1 -1 -1 -0 -0
5 5 5 5 5 5 4 4 4 3 1 -0 -0 -1 -1 -1 -0 0 0 0 0 0 0 1 1 1 0 0 1 1 0 0 0 -0 -1 -1 -1 -1 -1 -1 -1 -1 -1

GFSMA_850_temp_096.txt.gz
Temp
16 16 15 15 15 15 15 15 15 15 15 15 14 14 13 13 13 13 13 13 13 13 13 13 13 13 13 12 12 12 12 11 12 12 12 12 12 11 11 11 11 12 12
15 15 15 15 15 15 15 15 15 14 14 14 13 13 13 13 13 13 13 13 13 13 13 13 13 13 12 12 12 11 12 12 12 12 11 12 12 11 11 11 11 11 11
14 15 14 15 15 14 15 14 14 14 14 14 14 14 13 13 13 13 13 13 13 12 13 13 13 13 12 12 12 11 11 11 11 11 11 11 11 10 10 10 10 10 11
14 14 14 14 14 14 14 14 14 14 13 13 13 13 13 13 13 13 13 13 13 12 12 12 12 12 12 12 12 11 11 11 11 11 11 10 10 10 10 10 10 10 10
15 14 14 14 14 14 14 14 14 13 13 13 13 13 13 13 13 13 13 12 12 12 12 11 12 12 12 12 12 11 11 11 11 11 11 10 10 10 10 10 10 10 10
15 14 14 14 13 14 13 14 13 13 13 13 12 12 13 13 13 12 12 12 13 13 13 12 12 11 11 11 11 11 11 11 11 10 10 10 10 10 10 10 10 10 10
14 14 14 13 13 13 13 13 13 12 13 12 12 13 13 13 12 13 13 13 12 12 12 12 12 10 11 11 11 11 11 10 10 10 10 9 9 9 9 9 9 9 10
14 14 13 13 13 13 13 12 13 12 13 13 13 12 13 13 12 13 13 12 12 12 12 12 11 11 11 11 10 10 9 10 9 9 9 9 9 8 8 8 8 8 9
13 13 13 13 12 12 12 12 13 13 12 12 12 12 13 14 11 12 11 12 11 11 11 11 11 11 10 10 10 10 9 9 9 9 8 8 8 8 8 8 7 7 8
13 12 13 12 12 12 12 12 12 11 12 12 12 12 13 12 11 12 10 10 10 10 10 10 10 10 10 10 10 9 9 9 8 8 8 8 8 7 7 7 7 7 7
12 12 12 12 12 11 11 11 12 11 11 11 12 12 12 12 11 10 11 10 8 9 9 9 9 9 9 9 9 9 9 8 8 7 7 7 8 7 7 7 7 7 7
12 11 11 11 11 11 12 12 13 12 12 12 12 11 11 11 10 10 9 9 8 8 8 9 8 8 8 8 8 8 8 7 7 6 6 6 8 7 6 6 6 6 6
12 12 11 11 12 12 12 11 11 11 12 12 11 11 12 12 11 11 9 8 7 7 6 9 8 7 7 7 7 7 7 6 6 6 5 5 6 6 6 5 5 5 6
13 12 11 11 12 11 12 11 11 11 12 12 12 11 11 11 10 9 8 7 6 6 6 5 7 7 6 6 6 6 6 6 5 5 5 5 6 5 5 5 5 5 5
13 12 11 11 11 11 11 11 11 12 11 11 11 11 10 10 10 9 9 8 6 5 7 6 6 6 6 5 6 6 5 5 5 4 5 4 4 4 4 4 5 5 6
13 12 11 11 11 11 11 11 11 11 11 11 10 10 10 10 10 9 8 7 6 4 4 4 4 5 5 5 5 5 4 4 4 4 4 4 3 3 4 4 4 4 4
13 12 11 11 11 11 11 11 11 11 11 11 10 9 9 9 9 8 7 6 5 4 3 4 3 4 4 4 4 4 3 3 3 3 3 3 3 3 3 3 4 3 4
12 11 11 10 10 10 10 10 10 10 10 9 9 9 9 9 8 7 6 5 4 3 2 2 3 3 3 3 3 3 3 2 3 2 2 2 2 3 3 2 3 3 3
11 10 10 9 9 9 9 10 9 10 9 8 9 9 8 8 7 6 5 5 4 2 2 2 2 2 2 2 2 2 3 2 2 2 2 1 1 2 2 2 2 3 3
10 10 9 9 9 9 9 9 10 9 9 8 8 8 7 7 6 5 4 4 1 1 1 1 1 1 1 1 1 2 2 2 1 1 0 0 1 2 2 2 2 2 2
9 8 8 8 8 9 9 9 9 8 8 8 8 7 6 5 4 3 3 2 1 1 1 1 1 1 1 1 1 1 1 1 1 0 0 0 1 1 1 2 2 2 2
8 8 8 8 8 8 8 8 8 7 7 7 7 7 5 3 2 0 1 1 1 1 1 1 1 1 1 1 1 1 0 0 -0 1 1 1 0 1 1 0 1 1 2
7 7 7 7 7 7 7 7 7 7 7 7 7 6 4 1 0 -0 -0 0 1 1 1 1 1 1 1 0 0 -0 0 0 -0 0 0 0 1 0 -0 0 1 0 1
6 6 6 6 6 6 6 6 6 6 6 5 4 3 1 0 0 -0 -0 1 1 1 1 1 1 1 1 1 0 0 0 0 0 0 -0 -0 0 -0 -0 -0 -1 0 0
5 5 5 5 5 5 5 5 5 5 4 4 4 2 0 0 -0 -1 0 1 1 1 1 1 1 1 1 1 1 0 0 -0 -1 -0 -0 -1 -0 -0 -1 -1 -1 -0 -0
5 4 4 4 4 4 4 4 5 4 4 4 3 1 0 -0 -1 -1 -0 0 0 0 1 1 1 0 0 1 1 0 0 -0 -1 -0 -0 -0 -0 -1 -0 -0 -1 -1 -1

GFSMA_850_temp_099.txt.gz
Temp
13 13 13 13 13 13 13 13 13 13 14 13 13 14 13 14 14 14 13 13 13 13 13 13 13 13 13 12 12 12 12 12 12 12 12 12 12 11 11 11 11 11 11
13 13 13 13 13 14 13 13 13 13 13 13 14 14 14 14 14 14 14 14 13 13 13 13 13 13 12 12 12 12 12 12 12 12 12 12 11 11 11 11 11 11 11
13 14 13 14 14 15 14 14 13 13 13 14 14 14 14 14 14 14 14 14 13 13 13 13 12 13 12 12 12 12 11 11 12 11 11 11 11 11 11 10 10 10 10
15 16 15 15 15 15 15 13 13 13 13 14 14 14 14 14 14 14 14 14 13 13 13 12 12 12 12 12 12 11 11 11 11 11 11 11 11 11 11 10 10 10 10
15 15 15 14 15 14 14 13 13 13 13 14 14 14 14 14 14 14 14 13 13 12 12 12 12 12 12 12 12 11 11 11 11 11 11 11 10 10 11 11 10 10 10
14 14 14 13 12 13 13 12 13 13 13 14 13 14 14 14 14 13 13 12 12 13 13 13 12 11 12 12 11 11 11 11 11 11 10 10 10 10 10 10 10 10 10
13 13 14 13 13 13 12 13 13 13 13 13 13 14 14 14 13 13 13 12 12 12 12 12 12 10 11 11 11 11 11 11 10 10 10 10 10 10 10 9 8 9 9
14 13 13 13 13 13 13 12 13 13 13 13 13 13 13 14 13 13 13 12 12 12 12 12 12 11 10 10 10 10 10 10 10 9 9 9 9 9 9 8 8 8 8
13 13 13 13 13 13 13 12 12 13 12 12 12 12 14 14 13 13 11 12 12 11 11 11 11 11 10 10 10 10 9 9 9 8 8 8 8 8 8 8 8 8 8
13 13 13 13 13 13 12 12 13 12 12 12 12 12 12 12 12 13 12 11 12 11 10 10 10 10 10 9 9 9 9 9 8 8 7 7 7 7 7 7 8 8 7
13 13 13 13 12 12 12 11 12 12 11 12 12 12 12 12 12 11 11 12 10 10 10 10 9 8 9 9 9 8 8 8 8 8 7 7 7 7 7 6 6 7 7
13 13 13 14 13 11 11 12 12 12 11 11 12 11 11 11 11 11 10 10 10 9 8 9 9 8 8 8 8 8 8 7 7 7 6 6 6 7 6 6 5 5 5
12 12 12 14 13 11 11 12 11 11 11 11 12 11 11 12 12 11 11 10 8 9 8 7 7 7 7 7 7 7 7 7 6 6 6 6 6 6 6 6 6 4 4
13 12 12 12 11 11 10 11 10 10 11 11 11 12 12 12 12 11 10 9 8 8 7 7 6 7 7 6 5 6 6 6 6 6 5 6 5 6 6 6 5 5 3
13 13 13 11 11 10 10 10 10 10 11 11 12 12 12 11 11 10 9 9 8 6 7 7 6 6 6 6 5 5 5 5 5 5 4 4 4 5 5 5 5 4 5
14 14 13 11 10 11 10 11 10 10 11 11 11 11 11 10 10 9 8 7 6 5 5 6 5 5 5 5 5 4 4 4 4 5 4 4 4 4 4 4 4 4 4
14 14 13 12 11 11 11 10 11 10 11 11 11 11 10 10 9 9 8 7 6 5 4 4 4 4 3 4 4 4 4 3 3 4 4 3 4 3 3 3 3 4 4
13 13 12 11 11 11 10 10 10 10 11 11 10 10 10 9 9 8 7 7 6 5 3 3 3 2 3 3 3 3 3 3 3 3 3 2 3 2 2 3 3 4 4
12 11 10 10 11 10 10 10 10 10 10 10 10 10 9 8 8 7 6 6 5 5 3 2 2 2 2 2 2 2 2 2 2 2 2 2 2 1 2 3 3 2 4
10 10 9 10 9 9 9 9 9 9 9 9 9 8 8 7 7 6 5 5 4 4 2 1 1 1 2 2 2 2 2 2 2 1 2 1 1 1 1 2 2 2 3
9 9 8 9 8 8 8 8 8 9 8 8 8 7 7 6 6 5 5 4 3 3 1 1 1 1 1 2 2 1 1 1 1 1 1 0 0 1 1 1 1 2 2
8 8 8 7 7 8 8 8 8 8 7 7 7 7 6 6 6 5 4 2 2 1 1 1 1 1 1 1 1 1 1 1 -0 1 1 1 1 1 1 1 1 1 2
7 7 7 7 7 7 7 7 7 7 7 7 7 6 6 5 4 3 2 1 1 1 1 1 1 1 1 1 1 1 0 -0 -0 1 0 0 0 0 -0 0 0 0 1
7 7 6 6 6 6 6 6 6 6 6 6 6 6 5 4 3 1 0 1 1 1 2 1 1 1 0 0 -0 0 -0 -0 0 0 0 0 0 0 -0 -0 0 0 0
6 6 6 6 6 6 6 6 6 6 6 5 5 5 4 3 2 0 -1 0 1 1 1 1 1 1 1 1 1 0 1 0 0 1 0 -0 0 0 -0 -0 -0 0 0
5 5 5 5 6 5 6 6 5 5 5 5 4 4 3 2 1 -0 -1 -1 0 1 1 1 1 1 1 1 0 1 1 0 0 1 0 -0 -0 -0 -0 0 -0 -0 -0

GFSMA_850_temp_102.txt.gz
Temp
13 14 15 15 15 15 15 14 13 13 14 14 14 14 14 14 14 14 13 13 13 13 13 13 13 13 13 13 12 12 12 12 12 12 12 12 12 12 11 11 11 11 11
14 13 13 14 14 14 13 14 14 14 13 13 14 14 14 14 14 14 14 14 13 13 13 13 13 13 12 12 12 12 12 12 12 12 12 12 12 11 11 11 11 10 11
13 13 13 15 15 15 15 15 14 13 14 14 14 14 14 14 14 14 14 14 14 13 13 12 12 12 12 12 12 12 12 12 11 11 11 11 11 11 11 11 10 10 10
14 14 14 15 16 16 15 15 15 14 14 14 14 14 14 14 14 14 14 14 13 13 13 13 12 12 12 12 12 12 11 11 11 11 11 11 11 11 11 11 11 10 10
14 15 15 15 15 15 15 14 14 13 14 14 14 14 14 14 14 14 14 13 13 13 13 12 12 12 13 13 12 11 11 11 11 11 11 11 10 10 10 10 10 10 10
15 15 14 14 14 14 14 13 13 13 13 14 14 14 14 14 14 14 13 13 13 13 13 13 12 12 12 12 12 11 10 10 10 10 10 10 10 10 10 10 10 9 9
13 14 14 14 13 13 14 13 13 13 13 13 14 14 14 13 14 13 13 13 12 13 13 12 13 12 11 12 11 10 10 10 10 10 10 10 9 9 10 10 9 8 8
13 13 13 13 13 13 13 12 13 13 13 13 13 14 13 14 13 13 14 13 13 13 13 12 12 12 11 9 10 10 10 10 9 9 9 9 9 9 9 8 8 8 8
13 13 13 13 13 13 13 13 12 13 13 13 13 13 13 14 13 13 13 13 13 12 12 12 11 11 10 9 9 9 10 9 9 9 8 8 8 8 8 7 8 8 8
13 14 14 13 13 13 13 13 13 13 13 12 12 12 12 13 13 13 12 12 12 12 11 11 10 10 10 10 9 8 9 9 8 8 7 7 7 8 7 8 7 7 7
13 13 13 13 13 14 14 14 14 14 13 12 12 11 12 12 13 12 12 11 11 11 11 10 10 9 9 9 9 8 8 8 7 7 7 7 7 7 7 7 7 7 7
12 13 12 12 13 13 13 13 12 12 12 12 12 11 11 11 12 12 11 11 10 10 10 10 9 8 8 8 8 7 7 7 7 6 7 6 6 7 6 7 6 6 6
13 11 11 11 12 13 13 13 15 11 11 12 12 11 11 11 11 11 10 10 11 9 9 9 8 8 7 7 7 7 6 6 6 6 6 6 6 6 6 6 6 6 5
11 11 12 11 11 11 11 11 15 10 10 10 11 11 11 11 11 11 10 11 10 9 9 7 7 7 7 7 6 5 5 5 5 5 5 5 5 5 5 6 6 6 5
12 12 12 12 12 12 11 11 12 11 10 10 10 10 11 11 11 11 11 10 10 8 8 7 7 6 6 6 5 4 4 4 5 5 5 5 4 4 4 5 5 5 5
13 13 13 13 13 11 11 11 11 10 10 10 10 11 11 11 11 11 10 10 9 7 6 6 6 6 5 4 4 4 3 3 4 4 4 4 4 4 4 4 4 4 4
13 13 13 13 13 11 11 11 11 10 10 10 10 10 11 10 10 10 9 9 8 7 5 5 5 5 4 3 3 4 3 3 3 4 4 4 3 3 3 3 3 3 4
13 13 13 13 12 10 11 11 10 10 10 10 10 10 10 10 10 10 9 8 7 6 5 3 3 3 3 3 3 3 3 3 3 3 3 3 3 3 2 2 3 3 4
12 12 13 12 11 10 10 10 10 10 9 9 10 10 10 10 10 9 8 8 6 6 4 4 3 2 2 2 2 2 3 3 2 2 2 2 3 2 1 2 3 3 3
11 11 11 10 9 10 10 9 9 9 8 9 9 9 9 10 9 9 8 6 6 5 4 3 2 1 1 1 2 2 2 2 2 2 2 2 2 1 1 2 2 3 3
9 10 10 9 8 9 9 9 8 8 8 9 9 9 9 9 9 8 7 6 6 5 4 3 1 1 1 1 2 2 2 2 1 1 1 1 1 1 1 1 1 2 2
8 8 8 8 7 8 9 8 7 7 8 8 8 8 8 8 8 8 7 5 4 4 2 1 1 1 1 1 1 2 2 1 1 0 1 1 0 0 1 1 1 1 1
6 6 7 7 7 7 7 7 7 7 7 7 8 8 8 7 7 6 5 3 3 1 1 1 1 1 1 1 1 1 1 0 -0 -0 0 0 0 1 1 0 0 1 1
6 6 6 6 6 6 6 6 6 6 6 6 7 7 7 6 5 4 3 2 1 1 1 1 1 1 1 1 0 0 -0 -1 -0 -0 -0 -0 0 1 0 0 0 -0 0
5 5 5 5 5 6 6 6 6 6 6 6 6 6 6 6 5 4 2 1 0 1 1 1 1 1 1 1 1 0 0 0 -0 0 0 1 1 1 1 0 -0 0 1
4 4 4 4 4 4 5 5 5 5 5 5 5 5 5 5 4 2 1 -0 -1 0 1 1 1 1 1 1 1 1 1 0 1 1 1 1 1 1 0 0 0 0 0

GFSMA_850_temp_105.txt.gz
Temp
13 13 13 14 16 15 15 15 15 15 15 15 14 14 14 14 14 13 13 13 13 13 13 13 13 13 12 13 12 12 12 12 12 12 12 12 12 12 11 11 11 11 11
14 13 14 15 15 15 15 15 15 15 15 15 15 14 14 14 14 14 14 14 13 13 13 13 12 12 12 12 12 12 12 12 12 11 11 11 11 11 11 11 11 10 11
13 14 15 15 15 15 15 15 14 14 14 14 14 14 14 14 14 14 14 14 14 13 13 12 12 12 12 12 12 12 11 11 11 11 11 11 11 11 11 11 11 11 10
13 14 15 15 15 15 14 14 14 14 14 13 13 14 14 14 14 14 14 14 13 13 13 13 12 13 12 12 12 12 11 11 11 11 11 11 11 11 11 10 10 10 10
13 13 14 14 14 14 14 15 14 14 14 14 14 14 14 14 14 14 14 14 13 13 13 13 13 13 13 13 12 12 11 11 11 11 10 10 10 11 10 10 10 10 10
13 13 14 14 14 14 14 14 14 14 14 14 14 14 14 14 14 14 14 14 13 13 13 14 14 13 13 13 12 11 11 10 10 10 10 10 10 10 10 10 9 9 9
13 13 13 13 14 14 15 14 14 14 13 13 13 14 14 14 14 14 13 13 13 14 14 14 13 13 13 13 11 10 10 10 10 10 10 9 9 9 9 9 8 8 9
13 13 13 13 13 14 13 13 14 14 13 13 13 13 14 14 13 13 13 13 13 14 13 13 13 13 12 11 10 10 10 9 10 9 10 9 9 9 9 8 9 9 8
13 13 13 13 13 13 13 14 13 13 13 13 13 13 13 14 13 13 13 13 13 13 13 13 13 12 11 11 9 8 9 9 9 8 8 8 8 8 8 8 8 8 8
14 13 13 13 13 13 14 14 14 14 14 13 13 13 13 13 13 13 12 12 12 12 12 12 12 12 11 9 9 9 8 8 9 8 7 7 7 7 7 7 7 7 8
13 13 13 13 13 13 14 14 14 14 13 14 13 14 12 12 12 12 12 12 12 11 11 11 10 10 9 9 9 9 8 8 8 8 8 7 6 6 6 7 7 7 7
13 12 12 13 13 13 14 13 13 13 13 13 12 12 13 12 12 12 12 12 12 11 10 10 9 9 8 8 9 8 8 6 6 6 7 6 7 6 6 6 6 6 7
12 12 12 12 11 11 12 12 13 13 13 13 12 11 10 10 12 12 11 11 10 10 9 9 9 8 8 8 8 8 7 5 5 6 6 6 7 6 6 6 6 6 6
13 12 12 11 12 12 12 11 11 11 11 11 13 11 10 10 10 11 10 10 10 10 9 8 9 8 7 7 7 7 7 5 5 5 5 5 5 5 5 5 5 6 5
12 12 11 11 11 12 11 11 11 10 11 11 12 12 11 10 10 10 10 10 10 9 9 8 8 7 7 6 6 5 5 4 4 5 5 4 5 5 4 4 5 5 5
12 12 12 11 12 12 11 10 10 10 10 11 11 11 11 10 10 11 10 10 10 9 8 8 8 7 6 5 5 4 4 3 3 4 3 4 4 4 4 4 4 4 4
13 13 12 12 12 12 11 11 10 10 10 10 10 10 10 10 10 10 10 10 10 9 9 7 7 6 5 5 4 3 3 3 3 3 3 3 3 3 3 3 3 3 3
12 12 12 12 11 10 10 10 10 10 10 10 10 10 10 10 10 10 10 10 9 9 8 8 5 4 3 3 3 2 2 3 3 3 3 3 3 3 3 3 2 3 3
11 11 11 11 11 10 10 10 10 10 10 10 10 10 9 9 10 10 10 10 9 9 8 6 5 4 3 3 2 2 2 2 2 2 2 2 2 2 3 2 2 3 3
10 10 10 10 11 10 9 9 9 9 10 9 9 9 8 9 9 9 9 9 9 8 6 6 4 3 2 2 1 1 2 2 2 2 2 1 1 2 1 1 2 2 3
9 9 9 9 9 9 8 8 9 9 9 9 8 7 7 7 8 8 8 8 7 7 6 5 3 2 2 2 1 1 2 2 2 2 2 2 1 1 1 1 2 2 3
8 8 8 8 8 8 7 7 8 8 8 7 7 7 7 7 7 7 8 7 8 7 6 5 4 2 2 1 1 1 1 2 1 1 1 1 1 1 1 1 2 2 2
8 7 7 7 7 7 7 7 7 6 6 6 6 6 6 7 7 7 7 7 7 7 6 4 3 1 1 2 1 1 1 1 1 -0 0 0 1 1 1 1 1 1 1
7 7 6 6 5 6 5 6 6 6 6 6 6 6 6 7 6 6 6 6 6 5 5 4 3 2 2 1 1 1 0 0 -1 -1 -0 0 1 1 1 1 1 1 1
5 6 6 5 5 5 5 5 4 5 5 5 6 6 6 6 6 6 6 5 5 5 3 2 2 2 1 1 0 -0 -0 -1 -1 -0 0 0 1 1 1 1 1 1 1
3 2 3 3 3 3 3 3 4 4 4 5 5 5 5 5 5 5 5 5 4 4 2 2 2 2 1 1 0 0 -0 -1 -0 0 1 0 1 1 1 1 1 1 1

GFSMA_850_temp_108.txt.gz
Temp
14 13 12 13 13 15 16 16 15 15 15 15 15 15 15 14 14 14 13 13 13 13 13 13 12 12 12 12 12 12 12 12 12 12 12 12 12 12 12 11 11 11 11
14 14 12 13 12 16 16 15 15 16 15 15 15 15 14 14 13 13 13 13 13 13 13 12 12 12 13 12 12 12 12 11 11 11 11 11 11 11 11 11 11 11 11
13 14 14 13 14 15 15 15 15 15 14 14 14 14 14 14 14 14 14 14 14 13 13 13 12 12 12 12 12 12 12 11 11 11 11 11 11 11 11 11 11 10 10
14 13 14 15 15 14 14 15 15 15 14 14 14 14 14 14 14 14 14 14 14 13 13 13 13 13 13 13 12 12 12 11 11 11 11 10 10 10 10 10 10 10 10
13 13 14 14 14 14 14 15 15 14 14 14 14 14 14 14 14 14 14 14 14 13 13 13 13 14 14 13 13 12 12 11 10 10 10 10 10 10 10 10 10 10 9
13 13 14 13 13 14 14 14 14 14 14 14 13 13 14 14 14 14 14 14 13 13 13 13 14 13 13 13 13 12 11 11 10 10 10 10 10 10 9 9 9 9 9
12 13 13 13 13 14 14 14 14 14 14 13 13 13 13 13 14 14 14 14 13 13 13 14 14 13 13 13 13 11 10 10 10 10 10 10 9 9 9 9 9 9 9
13 13 12 13 13 13 14 14 14 14 13 13 13 13 13 13 13 13 13 13 13 13 14 14 13 13 13 12 12 10 9 10 10 10 9 9 9 9 8 8 8 8 8
13 13 13 13 13 13 14 14 13 13 13 13 13 14 13 13 13 13 13 13 13 13 13 13 13 12 12 12 11 10 9 9 9 9 9 9 8 8 8 8 7 7 7
12 13 13 13 13 13 13 13 13 13 13 13 13 13 13 13 13 13 12 12 12 12 12 12 12 12 11 11 11 10 8 8 8 8 8 8 8 7 7 7 7 6 6
12 13 13 13 13 12 13 13 13 13 12 13 13 13 13 13 13 13 13 12 11 11 11 11 11 11 11 10 10 9 9 8 8 7 7 7 7 7 7 7 7 6 6
11 12 12 12 12 12 12 12 12 12 12 12 12 13 13 12 12 11 12 12 12 12 11 11 10 10 10 9 9 9 8 7 7 6 6 7 6 7 7 6 6 6 6
11 11 11 12 13 12 13 13 13 12 13 12 12 12 12 12 11 11 10 11 12 11 10 10 10 10 9 8 9 8 7 7 7 5 5 6 6 6 6 6 5 6 6
11 11 11 12 11 11 12 12 12 12 12 12 12 12 11 11 11 11 10 10 11 10 10 9 10 9 8 8 8 7 7 7 6 4 5 5 5 5 5 5 5 5 5
10 10 11 12 12 10 11 11 12 11 11 11 12 11 11 10 10 10 11 10 10 9 10 10 9 9 8 7 6 6 6 6 6 5 4 4 4 4 4 5 5 4 5
11 11 11 10 11 10 10 11 12 11 10 11 11 11 10 10 10 10 10 10 10 10 10 9 9 8 8 7 6 6 5 5 5 4 4 4 4 4 4 4 4 4 4
10 11 10 11 11 12 11 10 11 11 11 10 10 10 10 10 10 10 9 9 10 10 10 9 8 8 7 6 6 5 4 4 4 3 3 3 3 3 4 3 4 3 3
11 11 12 12 11 11 10 10 10 10 10 10 10 10 10 10 9 10 9 10 10 9 8 8 8 7 6 5 4 3 3 2 2 3 3 3 3 3 2 3 3 2 2
10 10 10 10 11 11 11 10 9 10 9 10 10 10 10 10 10 9 9 9 9 9 8 8 7 6 5 5 3 3 2 2 2 2 2 2 2 2 2 3 2 2 2
10 10 10 10 10 10 10 9 8 8 8 9 9 9 9 9 9 8 7 8 7 7 8 7 6 6 5 5 4 2 2 1 2 2 1 2 2 2 2 1 1 2 3
9 9 9 8 8 8 8 8 7 7 8 8 8 9 9 9 8 9 6 7 6 6 6 6 6 5 5 5 5 3 2 1 2 1 2 2 2 1 1 1 1 2 2
8 8 8 8 8 7 7 7 7 7 7 8 8 8 8 7 7 6 7 7 7 6 6 6 7 5 5 5 4 3 1 1 1 2 2 1 1 1 1 1 2 2 2
7 7 7 7 7 7 6 6 6 6 5 6 6 6 6 6 6 6 6 6 6 6 7 5 6 5 4 5 2 1 1 1 2 1 1 0 1 1 1 1 1 1 1
6 6 6 6 6 6 5 4 4 4 4 5 4 4 5 5 5 5 5 5 5 5 5 5 4 3 3 3 2 2 2 1 1 1 -1 -1 1 1 2 1 1 1 1
4 5 5 5 5 5 5 4 3 3 3 3 4 4 4 4 4 4 3 4 4 4 3 3 3 2 3 2 2 1 1 0 -0 -0 -0 -1 1 1 1 1 1 1 1
1 1 1 1 1 1 1 1 1 2 3 3 3 3 3 3 3 2 3 3 3 4 4 3 2 2 1 1 1 1 0 -0 -1 -1 -0 -0 1 1 1 1 1 1 1

GFSMA_850_temp_111.txt.gz
Temp
13 13 14 14 15 16 16 15 15 15 15 15 15 15 14 14 14 14 13 13 13 12 13 13 13 12 12 13 12 12 12 12 12 12 12 11 11 11 11 11 11 11 11
13 14 14 14 14 15 15 15 15 15 15 15 14 14 14 14 14 14 13 13 13 13 13 12 13 12 12 12 12 12 12 12 11 11 11 11 11 11 11 11 11 11 11
13 14 14 14 14 14 15 14 14 15 15 15 15 14 14 14 13 13 14 13 13 13 13 13 13 13 12 12 12 12 12 12 11 11 11 11 10 10 10 10 10 10 10
13 13 13 14 14 13 14 14 14 15 15 15 15 14 14 13 13 13 13 13 14 14 13 13 13 13 12 12 12 12 12 11 11 11 10 10 10 10 10 10 10 10 10
13 13 13 13 13 13 14 14 14 14 14 14 14 14 13 13 14 13 14 14 14 14 13 13 13 13 13 13 13 12 12 11 11 10 10 10 10 10 10 9 9 9 9
13 13 12 12 12 13 14 13 14 13 14 14 14 13 13 13 13 13 13 13 14 14 13 13 13 13 13 13 13 13 12 11 11 10 10 10 10 10 10 9 9 9 9
14 11 11 11 12 12 14 13 14 13 13 13 13 13 13 13 13 13 13 13 14 14 13 13 13 13 13 13 13 13 11 10 10 10 10 9 9 9 10 9 8 8 7
14 13 12 12 12 14 14 13 13 14 13 13 13 13 13 13 13 13 13 13 13 13 13 13 13 13 13 13 12 12 10 10 10 9 10 9 9 9 8 9 8 8 7
12 12 12 12 13 13 13 13 13 13 13 13 13 13 13 13 14 13 13 13 13 13 13 13 13 12 12 12 11 11 10 10 9 9 9 8 8 8 8 8 8 7 7
12 11 12 12 13 13 13 13 13 13 13 13 12 12 13 13 13 13 13 13 12 12 12 12 12 12 12 11 11 11 10 9 9 8 8 8 8 7 7 7 7 6 7
11 12 12 12 12 12 13 13 13 13 12 12 13 13 13 12 12 12 12 13 12 12 11 12 12 12 12 11 10 10 10 9 8 8 8 8 7 7 6 7 7 6 6
11 11 11 12 12 13 13 14 13 12 12 12 12 12 13 13 12 11 11 11 12 11 10 11 12 11 10 10 9 9 9 8 8 8 7 7 6 6 6 6 6 6 5
11 11 11 11 12 12 12 12 13 12 12 13 13 13 12 12 13 12 11 10 10 10 10 10 11 10 10 10 9 9 8 8 7 7 6 6 6 5 5 6 6 5 5
11 11 11 10 11 10 11 11 11 12 13 12 13 12 13 12 11 11 10 10 9 9 9 10 11 10 9 9 9 9 8 8 7 6 6 5 4 5 5 5 5 5 5
11 11 11 11 11 11 11 11 11 11 11 11 12 11 11 11 10 10 10 9 9 8 9 9 10 10 9 9 8 8 7 7 6 6 5 4 4 4 4 4 4 4 4
10 10 10 10 10 11 10 10 10 10 10 10 10 10 10 10 10 10 10 9 9 9 8 9 10 9 9 9 8 7 7 6 6 6 5 5 4 4 3 4 4 4 3
10 10 10 10 10 11 11 10 10 10 10 11 10 10 10 10 9 10 10 10 9 9 8 8 9 9 9 8 8 7 6 6 6 5 5 4 3 3 3 3 3 3 3
10 10 10 10 10 10 10 10 10 10 10 10 10 10 10 10 10 10 10 9 9 9 7 8 9 9 9 8 7 6 6 5 4 4 3 3 3 3 3 3 3 3 2
10 9 10 10 10 10 10 10 9 9 9 8 9 8 9 9 9 9 9 9 9 8 7 7 7 8 7 7 7 6 5 4 3 2 2 2 2 2 2 2 2 2 2
9 9 9 9 9 9 9 9 9 8 7 8 8 9 9 9 9 9 9 9 8 6 6 5 6 6 6 5 6 5 4 4 3 2 2 2 2 2 2 2 1 1 2
8 8 9 9 8 8 8 8 7 7 7 7 7 7 8 8 8 8 8 7 7 5 7 6 4 4 6 5 5 5 4 3 2 2 2 2 2 2 1 1 1 1 2
8 8 8 8 8 8 8 8 7 7 7 6 6 6 7 7 7 7 7 7 5 5 5 5 5 5 6 5 4 4 3 3 2 2 2 2 1 1 1 1 1 2 2
6 6 6 6 7 7 6 6 6 5 5 5 5 5 6 5 5 5 5 5 4 5 4 5 5 4 6 5 3 3 3 1 2 2 2 1 1 1 1 1 2 2 1
7 7 7 6 6 5 5 4 4 4 4 4 4 4 4 5 5 4 4 3 4 4 4 5 4 5 4 4 2 2 1 1 0 1 0 0 1 1 1 2 1 1 1
4 4 4 4 4 4 4 2 1 1 1 1 2 3 3 3 3 3 3 3 3 3 3 2 3 2 2 2 2 0 -0 0 -0 -0 0 -0 0 1 1 1 2 1 1
3 3 2 1 0 1 1 1 -0 0 0 1 1 3 3 3 3 2 2 2 2 3 2 2 2 2 1 2 1 0 0 -0 -0 -1 -0 -0 0 0 1 2 2 2 1

GFSMA_850_temp_114.txt.gz
Temp
14 13 13 13 14 14 15 15 16 15 15 15 15 15 15 15 14 14 13 13 13 13 13 13 13 13 13 12 12 12 12 12 12 11 11 11 11 11 11 11 11 11 11
14 13 13 13 13 14 15 15 15 15 15 15 15 15 14 14 14 14 14 13 13 13 13 13 13 13 13 12 12 12 12 12 11 11 11 11 11 11 11 11 10 10 10
15 15 13 13 13 13 14 14 14 14 14 14 15 15 14 14 14 14 13 13 13 13 13 13 13 13 12 12 12 13 12 12 12 11 11 11 11 10 10 10 10 10 10
15 14 15 14 14 12 13 13 13 14 15 14 14 14 14 14 14 13 13 13 13 13 13 13 13 13 13 12 13 13 12 12 11 11 11 11 10 10 10 10 10 10 9
15 13 14 15 14 13 12 13 13 14 14 14 14 14 14 14 14 13 13 13 13 13 13 13 13 13 13 13 13 13 13 12 11 11 10 10 10 10 10 9 9 9 9
14 13 13 13 13 13 12 12 13 13 13 14 13 13 13 13 13 13 13 13 13 13 13 13 13 13 13 13 13 13 13 12 11 10 10 10 10 9 9 9 8 8 8
13 12 12 12 13 12 11 12 12 12 13 13 13 13 13 13 13 13 13 13 13 13 13 13 13 13 13 13 13 13 13 11 10 10 10 10 9 9 9 8 8 8 7
11 12 12 12 13 12 11 11 12 12 13 13 12 12 12 13 14 13 13 13 13 13 13 13 13 13 13 13 13 13 12 11 10 10 9 9 9 9 9 8 8 8 7
11 12 12 13 13 11 11 12 11 12 13 13 12 12 12 13 14 14 14 13 13 13 13 13 13 13 13 13 12 12 12 11 10 10 9 9 9 8 8 7 8 7 7
11 11 11 12 12 12 11 11 12 13 13 12 12 12 12 12 13 13 13 13 13 13 13 12 12 12 12 12 12 12 11 11 10 10 9 8 8 8 7 7 7 7 7
11 11 11 10 12 11 12 13 13 14 13 13 12 12 12 12 12 12 12 12 13 13 13 13 12 12 11 11 12 11 11 11 10 10 8 8 8 8 7 6 7 6 6
11 11 11 11 11 10 11 12 13 13 13 13 12 12 12 13 12 12 12 12 12 13 12 11 12 11 11 11 10 10 10 10 10 9 9 8 7 6 6 6 6 6 6
11 11 11 11 11 11 11 11 12 12 12 11 12 12 12 12 12 12 12 12 12 13 12 11 11 11 10 9 9 9 10 9 9 9 9 8 8 7 6 6 5 5 5
10 10 11 10 10 11 11 11 11 11 11 12 12 11 11 12 11 11 11 10 10 10 10 10 9 10 10 9 8 9 9 9 8 9 8 8 7 7 6 5 5 5 5
10 10 10 10 11 11 11 11 12 12 12 11 11 11 11 11 11 10 10 11 10 9 9 10 9 9 9 9 9 9 9 8 8 8 8 7 7 6 5 5 4 4 4
9 10 10 10 10 10 10 11 10 10 10 11 11 10 11 10 10 10 10 10 10 9 9 10 10 10 9 8 8 8 7 7 7 7 6 6 6 5 4 4 3 4 4
10 10 10 10 10 10 10 10 10 10 10 10 10 10 10 9 9 10 10 10 10 9 9 9 8 8 8 7 7 7 6 6 6 6 5 4 4 4 3 3 3 3 3
9 10 9 9 9 10 9 10 10 10 9 9 9 9 9 9 9 9 9 9 9 9 9 9 8 7 7 6 6 6 6 5 5 4 4 3 3 3 3 2 3 3 3
9 9 9 9 9 9 9 9 9 9 9 8 8 8 8 8 8 8 9 9 9 8 8 9 9 7 7 6 6 5 4 4 4 4 3 3 2 2 2 2 2 2 2
9 9 9 9 9 9 9 9 9 8 8 8 8 7 7 7 7 7 7 8 8 8 8 8 6 6 6 6 5 4 5 4 4 4 3 2 2 2 2 2 1 2 1
9 9 9 8 8 8 8 8 8 8 8 7 7 7 7 7 6 7 7 7 7 7 7 6 6 6 5 5 5 6 4 4 4 4 3 2 2 2 1 1 1 1 2
7 8 8 7 8 7 8 7 7 7 7 7 7 6 6 6 6 6 6 6 6 6 5 6 5 5 5 5 6 5 4 4 4 4 3 2 2 2 1 1 1 1 1
7 7 7 7 7 6 5 5 5 5 4 4 4 4 5 4 4 4 5 4 4 4 4 5 5 5 5 5 5 5 4 4 5 3 2 2 1 1 1 1 1 1 2
6 6 6 6 6 5 5 4 4 4 3 3 2 1 1 1 2 3 3 3 3 3 3 3 4 4 4 4 3 4 3 3 2 1 1 1 1 1 1 0 1 2 1
4 3 3 3 3 3 3 3 3 2 2 2 1 0 0 1 2 2 3 3 3 4 3 3 3 3 3 3 3 3 2 2 0 0 0 -1 -0 0 0 0 0 1 1
3 3 3 3 2 2 2 2 1 0 -0 -1 -2 -2 -2 -1 1 1 1 1 2 3 3 2 2 2 2 2 2 2 2 1 0 -0 -0 -1 -1 -0 -0 1 0 1 1

GFSMA_850_temp_117.txt.gz
Temp
15 14 14 14 13 14 14 15 15 15 15 15 14 15 15 15 14 14 14 13 13 13 13 13 13 13 13 13 12 12 12 12 12 12 12 12 11 11 11 11 11 11 11
15 15 14 14 13 13 14 14 14 15 14 14 14 14 14 14 14 14 14 13 13 13 13 13 13 13 13 13 13 13 12 12 12 12 12 11 11 11 11 10 10 10 10
14 14 14 15 15 14 13 13 13 14 14 14 14 14 14 14 14 14 14 13 13 13 13 13 13 13 13 13 12 12 12 12 12 12 12 11 11 10 10 10 10 10 10
14 14 14 14 14 13 14 13 13 13 13 13 14 14 14 14 14 14 14 13 13 13 13 13 13 13 13 13 13 12 13 12 12 12 11 11 10 10 10 10 9 9 9
14 14 14 14 13 13 13 13 13 12 13 13 13 13 14 13 14 14 14 13 13 13 13 13 13 13 13 13 13 13 13 13 12 11 11 10 10 10 9 9 9 9 9
15 15 15 14 13 13 13 13 12 13 12 12 13 13 13 14 13 13 13 13 13 13 13 13 13 13 13 13 13 14 14 13 13 11 10 10 10 10 9 9 9 9 8
15 15 15 14 14 13 12 12 12 11 11 12 12 12 13 13 13 14 13 13 13 13 13 13 13 13 13 13 13 13 13 13 12 11 11 10 9 9 9 9 8 8 8
14 14 14 14 13 12 12 12 12 11 11 11 12 12 12 13 14 14 14 13 13 13 13 13 13 13 13 12 13 13 13 13 12 12 12 10 10 9 9 8 8 8 8
14 13 11 12 12 12 12 12 12 12 11 11 12 12 12 12 13 14 15 14 14 14 14 14 13 12 12 12 12 13 12 12 12 12 11 10 10 10 9 8 8 8 8
11 12 11 11 12 12 12 12 12 11 11 12 11 11 12 12 12 13 13 14 14 14 13 13 13 13 13 12 12 11 12 12 11 11 10 9 9 9 9 8 7 7 7
12 11 11 11 11 11 12 11 11 11 11 11 12 11 11 12 11 12 12 13 13 13 13 13 13 13 12 12 11 11 11 10 10 10 10 10 9 8 8 7 7 7 7
11 11 11 11 11 11 11 11 11 11 11 12 12 12 11 12 12 12 12 13 13 12 12 13 12 12 12 11 11 11 10 10 10 9 10 10 9 7 7 7 6 6 6
11 11 11 11 11 11 10 10 11 11 11 12 12 12 12 12 11 11 11 11 11 12 12 13 13 12 12 10 10 10 9 10 9 9 9 9 8 7 7 6 6 5 5
11 10 10 11 11 10 10 10 10 10 10 10 10 11 12 12 11 11 11 10 10 10 11 11 11 11 11 10 9 9 8 8 8 8 8 8 6 6 6 6 5 5 5
10 10 10 10 10 10 10 10 10 10 10 10 11 11 12 11 11 11 10 10 10 10 10 10 10 10 11 11 9 8 8 8 8 7 8 7 6 6 6 5 5 4 4
10 9 10 10 10 10 10 10 10 10 10 10 10 10 10 11 11 10 10 10 10 10 9 10 9 10 10 9 9 8 8 8 7 6 7 6 5 5 5 5 4 4 4
10 10 10 10 9 9 9 9 10 10 10 10 10 10 10 10 9 9 9 9 9 9 9 9 9 9 9 9 9 8 8 8 8 7 6 5 4 4 4 4 4 4 3
9 9 9 9 9 9 9 9 9 9 10 9 9 9 9 9 9 9 8 8 8 9 8 8 8 8 8 9 8 8 7 8 7 6 6 5 5 4 3 3 3 3 3
8 9 9 9 9 9 9 9 9 9 9 9 9 8 8 8 8 7 7 7 7 8 8 7 7 8 8 7 7 7 6 6 6 6 6 4 5 4 3 3 2 2 2
9 9 9 9 9 9 9 9 8 8 8 8 8 7 7 7 7 6 6 6 7 7 7 7 7 7 7 7 7 7 5 6 5 5 5 4 4 3 2 3 2 2 2
8 8 8 7 7 7 8 8 7 7 7 7 7 6 6 5 5 4 4 4 4 5 5 5 6 6 6 6 6 6 5 5 5 5 5 4 3 2 2 2 2 2 1
7 7 7 7 7 7 7 6 6 6 6 6 5 5 5 5 5 4 4 4 3 4 4 4 4 4 5 6 5 6 5 4 4 4 4 5 4 3 2 2 2 1 1
6 6 6 6 6 5 5 5 5 5 4 4 4 4 4 3 3 2 2 2 3 3 4 4 4 4 4 5 5 5 5 4 5 5 5 4 4 3 3 1 2 1 1
6 6 6 5 4 4 4 4 4 3 3 3 2 2 2 2 2 1 1 1 1 2 2 2 2 3 4 4 4 4 4 4 4 4 3 2 2 2 2 1 1 0 1
4 4 4 4 3 3 2 2 2 2 1 1 1 1 -1 -2 -2 -1 -1 -1 -0 1 2 2 2 2 2 3 3 3 2 3 3 3 2 2 1 0 1 1 0 0 1
3 3 1 2 2 2 1 1 1 0 0 1 0 -0 0 -0 -3 -3 -2 -2 -1 -1 -0 1 2 2 1 2 2 2 2 1 1 2 1 0 -0 -0 -1 -0 -0 0 1